     2              OBSERVATION DATA    GPS                 RINEX VERSION / TYPE
teqc 1999Jul19 19991123 02:41:56UTC                         PGM / RUN BY / DATE
                                                            COMMENT
Original Marker Name: 0115                                  COMMENT
Campaign Name: HPGN 1991                                    COMMENT
4-Character Station Name: 0115                              COMMENT
6-Character Antenna Code: TRMSST                            COMMENT
Vertical Measurement Point: BPA                             COMMENT
Vertical Offset to Rinex Ref. Point: 0.0000                 COMMENT
Radial Measurement Point: RRP                               COMMENT
Radial Offset to Rinex Ref. Point: 0.0000                   COMMENT
Antenna Height from Field Measurement: 2.2200 m             COMMENT
                                                            COMMENT
Original XYZ: -2702843.0993 -3986110.6939 4167669.5353      COMMENT
New XYZ position is based on association with SCEC monument COMMENT
E1O1I1V6+0011. Position of that monument is believed to be  COMMENT
valid to within 1 m horizontally; vertical accuracy         COMMENT
should be no worse than 3-times this value.                 COMMENT
                                                            COMMENT
Revised Rinex header created by UCSD GPS archive for        COMMENT
GSAC on 10-Mar-2000 (2000:070) 04:23:44 GMT                 COMMENT
For assistance contact dagnew@ucsd.edu or hjohnson@ucsd.edu COMMENT
                                                            COMMENT
HPGN CA 01 15                                               MARKER NAME
0115                                                        MARKER NUMBER
-Unknown- CALIF DEPT TRANSPORTATION                         OBSERVER / AGENCY
457 TRIMBLE 4000 SST NP 4.30 / SP 4.20                      REC # / TYPE / VERS
140 TR 4000SST L1/L2 GEO                                    ANT # / TYPE
 -2702846.5810 -3986115.1347  4167669.2970                  APPROX POSITION XYZ
        2.2200        0.0000        0.0000                  ANTENNA: DELTA H/E/N
     1     1     0                                          WAVELENGTH FACT L1/2
     5    C1    L1    L2    S1    S2                        # / TYPES OF OBSERV
     0                                                      INTERVAL
  1991     7    27     0    30   15.000000                  TIME OF FIRST OBS
  1991     7    27     6    55   60.000000                  TIME OF LAST OBS
                                                            END OF HEADER
 91  7 27  0 30 15.0000000  0  4G 3G17G16G20
  20542911.414     -124439.016 7                        24.500
  20878861.219          -0.03217                        22.750
  22165149.031          -0.80217                        22.500
  22849503.844          -0.14216                        15.250
 91  7 27  0 30 45.0000000  0  4G 3G17G16G20
  20532650.938     -178371.574 7    -21020.85323        25.500           2.750
  20864474.813      -75594.360 7        -0.35433        23.000           3.438
  22171513.195       33459.146 7     13043.05622        21.500           1.938
  22863754.148       74883.554 6     29158.87021        15.000           0.969
 91  7 27  0 31  0.0000000  0  4G 3G17G16G20
  20527511.016     -205362.723 7    -42052.90723        24.000           2.688
  20857283.359     -113400.780 7    -29459.88323        23.750           3.344
  22174704.219       50220.732 7     26104.00422        22.750           1.938
  22870863.289      112268.921 6     58290.25721        14.250           0.906
 91  7 27  0 31 30.0000000  0  4G 3G17G16G20
  20517241.023     -259351.319 7    -84121.92123        25.250           2.719
  20842898.477     -188989.330 7    -88359.99423        23.500           3.375
  22181105.086       83848.115 7     52307.13922        22.000           1.969
  22885079.148      186967.358 6    116496.69521        14.250           1.031
 91  7 27  0 31 45.0000000  0  4G 3G17G16G20
  20512105.328     -286342.476 7   -105153.97423        25.500           2.625
  20835713.563     -226765.657 7   -117796.06123        23.750           3.406
  22184312.555      100718.907 7     65453.20822        21.000           1.813
  22892178.695      224285.648 6    145575.82921        14.500           0.813
 91  7 27  0 32  0.0000000  0  4G 3G17G16G20
  20506966.758     -313332.617 7   -126185.23023        24.500           2.781
  20828526.438     -264531.692 7   -147224.10423        23.750           3.438
  22187533.148      117626.178 7     78627.69822        21.750           2.094
  22899278.133      261581.305 6    174637.31821        14.750           0.719
 91  7 27  0 32 15.0000000  0  4G 3G17G16G20
  20501829.148     -340316.046 7   -147211.26723        24.500           2.750
  20821342.961     -302281.764 7   -176639.71723        23.750           3.375
  22190758.641      134575.206 7     91834.71722        21.500           1.969
  22906373.680      298859.645 6    203685.32221        14.750           0.813
 91  7 27  0 32 30.0000000  0  5G 3G17G16G20G23
  20496701.602     -367287.816 7   -168228.21623        25.500           2.719
  20814162.234     -340010.967 7   -206039.07523        23.500           3.375
  22193991.734      151570.457 7    105077.76922        21.000           2.000
  22913459.422      336125.135 6    232723.29821        14.250           0.750
  24168422.281          -0.85814                         7.250
 91  7 27  0 32 45.0000000  0  5G 3G17G16G20G23
  20491571.820     -394244.550 7   -189233.46023        25.500           2.719
  20806986.555     -377715.966 7   -235419.56224        23.500           3.500
  22197235.164      168614.876 7    118359.11022        21.500           1.938
  22920553.375      373380.728 6    261753.56021        14.500           0.750
  24154958.352      -70799.840 4                         7.000
 91  7 27  0 33  0.0000000  0  5G 3G17G16G20G23
  20486438.977     -421187.045 7   -210227.59223        24.000           2.750
  20799812.930     -415398.008 7   -264782.17423        24.000           3.469
  22200486.086      185707.200 7    131677.79322        21.250           1.906
  22927637.883      410624.713 6    290774.78521        13.750           0.813
  24141472.602     -141636.177 4                         7.250
 91  7 27  0 33 15.0000000  0  5G 3G17G16G20G23
  20481318.047     -448117.400 7   -231212.29023        25.250           2.688
  20792648.414     -453059.123 7   -294128.47223        23.750           3.406
  22203747.828      202844.816 7    145031.76822        20.750           1.938
  22934727.344      447854.668 6    319785.04421        14.750           0.813
  24127998.563     -212511.525 5                         8.000
 91  7 27  0 33 30.0000000  0  5G 3G17G16G20G23
  20476197.938     -475028.340 7   -252181.83523        25.500           2.750
  20785485.859     -490692.348 7   -323453.03323        23.750           3.375
  22207017.711      220034.773 7    158426.53222        20.250           2.031
  22941807.414      485077.240 6    348789.08821        14.000           0.750
  24114498.555     -283418.484 5                         8.000
 91  7 27  0 33 45.0000000  0  5G 3G17G16G20G23
  20471079.719     -501922.158 7   -273138.04723        25.000           2.844
  20778330.266     -528299.968 7   -352757.65323        24.000           3.344
  22210297.820      237274.356 7    171859.95022        20.750           1.750
  22948894.555      522289.895 6    377785.89821        15.000           0.875
  24100996.438     -354359.217 5        -0.05831         8.000           0.313
 91  7 27  0 33 59.9990000  0  5G 3G17G16G20G23
  20465964.886     -528797.826 7   -294080.11723        25.500           2.781
  20771176.128     -565880.735 7   -382041.34024        23.500           3.500
  22213587.667      254560.717 7    185329.84122        20.000           1.969
  22955970.214      559488.442 6    406771.70821        14.500           0.750
  24087491.230     -425330.039 5    -55301.78121         7.750           0.438
 91  7 27  0 34 14.9990000  0  5G 3G17G16G20G23
  20460855.612     -555657.934 7   -315010.06523        25.000           2.688
  20764033.151     -603438.798 7   -411307.33623        24.000           3.438
  22216889.839      271896.617 7    198838.30922        21.500           1.750
  22963041.222      596678.370 6    435750.79721        13.500           0.844
  24073971.722     -496339.149 4   -110633.31121         7.250           0.344
 91  7 27  0 34 29.9990000  0  5G 3G17G16G20G23
  20455743.659     -582499.311 7   -335925.40523        24.500           2.750
  20756889.605     -640970.273 7   -440552.61723        24.500           3.469
  22220194.823      289281.935 7    212385.31022        20.250           1.938
  22970121.589      633858.141 6    464721.98321        14.500           0.813
  24060457.230     -567380.255 5   -165989.80521         7.750           0.375
 91  7 27  0 34 44.9990000  0  5G 3G17G16G20G23
  20450645.386     -609319.741 7   -356824.43723        25.750           2.594
  20749751.823     -678473.332 7   -469775.75324        24.000           3.594
  22223514.495      306718.558 7    225972.26522        20.500           1.813
  22977195.737      671029.366 6    493686.50521        13.750           0.813
  24046931.269     -638451.056 5   -221369.43221         8.250           0.438
 91  7 27  0 34 59.9990000  0  5G 3G17G16G20G23
  20445545.190     -636122.588 7   -377709.76023        25.250           2.656
  20742621.683     -715951.484 7   -498979.48323        24.500           3.406
  22226842.355      324202.597 7    239596.18622        20.500           1.813
  22984268.253      708188.129 6    522641.30621        13.500           0.750
  24033409.487     -709554.914 5   -276774.82021         8.500           0.375
 91  7 27  0 35 14.9990000  0  5G 3G17G16G20G23
  20440449.901     -662896.387 7   -398572.45723        25.250           2.781
  20735496.323     -753393.173 7   -528154.80024        24.500           3.531
  22230179.964      341745.377 7    253265.87122        21.250           1.844
  22991335.542      745345.686 6    551595.16721        13.250           0.844
  24019871.550     -780679.963 5   -332196.71121         8.750           0.406
 91  7 27  0 35 29.9990000  0  5G 3G17G16G20G23
  20435361.417     -689624.965 7   -419399.89923        25.250           2.688
  20728382.331     -790782.850 7   -557289.59124        24.000           3.500
  22233530.245      359362.015 7    266993.10422        20.750           1.875
  22998409.792      782517.087 6    580559.81721        13.750           0.813
  24006340.862     -851810.456 5   -387622.83721         8.500           0.406
 91  7 27  0 35 44.9990000  0  5G 3G17G16G20G23
  20430282.144     -716327.370 7   -440206.96223        25.500           2.781
  20721274.073     -828139.300 7   -586398.48923        24.000           3.469
  22236896.581      377033.352 7    280762.97022        21.250           1.813
  23005482.440      819683.134 6    609520.30321        14.000           0.781
  23992793.956     -922964.747 5   -443067.53021         8.500           0.313
 91  7 27  0 35 59.9990000  0  5G 3G17G16G20G23
  20425202.847     -743007.096 7   -460996.35023        24.750           2.750
  20714170.206     -865466.549 7   -615484.63524        24.000           3.563
  22240269.159      394755.411 7    294572.34822        22.000           2.000
  23012559.667      856839.697 6    638473.38821        14.000           0.781
  23979252.456     -994146.521 5   -498533.61921         8.250           0.344
 91  7 27  0 36 14.9990000  0  5G 3G17G16G20G23
  20420130.456     -769661.070 7   -481765.67723        25.000           2.813
  20707072.730     -902761.609 7   -644545.69623        24.000           3.469
  22243649.308      412530.715 7    308423.22522        20.750           1.844
  23019626.495      893989.231 6    667421.00421        14.500           0.719
  23965696.034    -1065352.629 5   -554018.70121         8.250           0.375
 91  7 27  0 36 29.9990000  0  5G 3G17G16G20G23
  20415066.183     -796290.067 7   -502515.52923        25.000           2.875
  20699982.128     -940025.329 7   -673582.33624        24.000           3.500
  22247042.862      430358.137 7    322314.71222        21.500           1.969
  23026690.753      931130.393 6    696362.11021        14.250           0.625
  23952141.761    -1136583.748 5   -609523.23021         7.500           0.406
 91  7 27  0 36 44.9990000  0  5G 3G17G16G20G23
  20410003.425     -822893.818 7   -523245.71623        25.000           2.875
  20692898.972     -977257.614 7   -702594.48624        24.750           3.656
  22250445.323      448237.273 7    336246.49622        21.000           1.875
  23033756.472      968263.078 6    725296.58921        13.000           0.719
  23938584.386    -1207839.419 5   -665046.92821         8.500           0.375
 91  7 27  0 36 59.9990000  0  5G 3G17G16G20G23
  20404946.230     -849470.501 7   -543954.81223        25.000           2.719
  20685822.065    -1014457.101 7   -731581.07624        24.750           3.531
  22253857.105      466169.362 7    350219.53722        21.250           1.781
  23040823.722     1005388.389 6    754225.32021        13.000           0.813
  23925030.034    -1279117.854 5   -720588.33921         9.500           0.406
 91  7 27  0 37 14.9990000  0  5G 3G17G16G20G23
  20399893.065     -876017.673 7   -564640.91823        24.500           2.688
  20678744.628    -1051621.327 7   -760540.19024        24.000           3.625
  22257282.269      484156.375 7    364235.38422        22.250           2.000
  23047883.714     1042508.314 6    783149.85021        13.000           0.813
  23911450.378    -1350416.485 5   -776145.51721         8.250           0.281
 91  7 27  0 37 29.9990000  0  5G 3G17G16G20G23
  20394846.331     -902535.834 7   -585304.41223        24.250           2.656
  20671681.073    -1088750.909 7   -789472.30724        24.750           3.563
  22260712.308      502197.548 7    378293.41822        21.750           1.906
  23054950.808     1079621.882 6    812069.43721        13.500           0.688
  23897868.144    -1421735.765 5   -831718.76521         7.750           0.313
 91  7 27  0 37 44.9990000  0  5G 3G17G16G20G23
  20389804.284     -929023.365 7   -605944.04223        24.500           2.531
  20664625.558    -1125844.481 7   -818376.37624        25.000           3.531
  22264158.167      520293.957 7    392394.50622        21.250           1.875
  23062010.526     1116730.050 6    840984.81821        12.750           0.781
  23884308.300    -1493073.986 5   -887306.78721         8.750           0.375
 91  7 27  0 37 59.9990000  0  5G 3G17G16G20G23
  20384771.581     -955480.372 7   -626559.88223        24.750           2.563
  20657570.222    -1162902.571 7   -847252.78824        24.500           3.656
  22267611.800      538445.000 7    406538.16422        21.500           1.875
  23069066.995     1153832.072 6    869895.38821        12.500           0.719
  23870717.136    -1564431.285 5   -942909.66721         8.250           0.469
 91  7 27  0 38 14.9990000  0  5G 3G17G16G20G23
  20379740.667     -981909.853 7   -647154.28023        24.500           2.531
  20650523.190    -1199927.994 7   -876103.74324        24.250           3.625
  22271074.394      556647.523 7    420721.93022        21.000           1.781
  23076130.503     1190924.737 6    898798.68021        12.750           0.719
  23857140.730    -1635810.006 5   -998529.24721         8.750           0.281
 91  7 27  0 38 29.9990000  0  5G 3G17G16G20G23
  20374720.565    -1008310.518 7   -667726.22123        25.750           2.531
  20643484.870    -1236919.949 7   -904928.62024        23.750           3.531
  22274550.300      574901.738 7    434945.98522        21.500           1.813
  23083182.472     1228008.363 6    927694.93921        12.500           0.688
  23843546.659    -1707209.162 5  -1054164.77221         8.500           0.344
 91  7 27  0 38 44.9990000  0  5G 3G17G16G20G23
  20369700.144    -1034678.135 7   -688272.41723        25.250           2.625
  20636452.011    -1273874.226 7   -933724.14324        24.000           3.688
  22278034.862      593211.782 7    449213.54022        21.500           1.719
  23090244.222     1265086.784 6    956587.15121        12.250           0.781
  23829961.683    -1778624.499 5  -1109812.89821         9.000           0.375
 91  7 27  0 38 59.9990000  0  5G 3G17G16G20G23
  20364691.925    -1061004.021 7   -708786.08423        25.500           2.688
  20629432.401    -1310782.338 7   -962483.68724        25.000           3.719
  22281528.737      611585.808 7    463530.94622        20.250           1.719
  23097296.886     1302168.122 6    985481.59521        12.750           0.750
  23816370.058    -1850047.245 5  -1165466.79921         8.500           0.469
 91  7 27  0 39 14.9990000  0  5G 3G17G16G20G23
  20359689.495    -1087285.606 7   -729265.23723        25.250           2.625
  20622417.339    -1347641.987 7   -991205.47224        25.000           3.625
  22285037.425      630025.857 7    477899.80022        20.500           1.594
  23104352.745     1339254.582 6   1014380.04021        13.500           0.625
  23802767.245    -1921474.507 4  -1221124.21121         7.250           0.438
 91  7 27  0 39 29.9990000  0  5G 3G17G16G20G23
  20354697.534    -1113526.835 7   -749712.94523        25.250           2.688
  20615407.167    -1384457.176 7  -1019892.61124        24.500           3.719
  22288557.433      648527.343 7    492316.53622        20.000           1.719
  23111416.065     1376341.540 6   1043278.90621        13.000           0.719
  23789187.386    -1992910.433 5  -1276788.35721         8.250           0.375
 91  7 27  0 39 44.9990000  0  5G 3G17G16G20G23
  20349710.292    -1139725.112 7   -770127.18123        25.000           2.688
  20608410.800    -1421225.728 7  -1048543.40924        24.750           3.656
  22292093.128      667092.417 6    506782.80422        19.750           1.625
  23118476.386     1413430.955 6   1072179.65021        12.750           0.719
  23775581.386    -2064352.052 5  -1332456.96921         8.000           0.406
 91  7 27  0 39 59.9990000  0  5G 3G17G16G20G23
  20344733.776    -1165882.105 7   -790509.25223        25.000           2.750
  20601422.370    -1457949.485 7  -1077159.29924        24.500           3.656
  22295637.315      685719.077 7    521297.07122        20.000           1.563
  23125528.300     1450520.825 6   1101080.75821        12.500           0.656
  23761995.628    -2135800.814 5  -1388131.12921         9.250           0.406
 91  7 27  0 40 14.9990000  0  5G 3G17G16G20G23
  20339762.628    -1192002.904 7   -810863.11223        24.750           2.656
  20594444.331    -1494633.619 7  -1105744.31424        24.500           3.750
  22299192.292      704401.689 7    535854.94722        20.500           1.531
  23132589.198     1487605.447 6   1129977.81221        12.500           0.594
  23748396.394    -2207262.021 5  -1443815.02421         9.250           0.438
 91  7 27  0 40 29.9990000  0  5G 3G17G16G20G23
  20334799.292    -1218084.636 7   -831186.53623        24.750           2.750
  20587474.292    -1531275.328 7  -1134296.27424        25.000           3.656
  22302757.644      723142.748 6    550458.34421        19.500           1.438
  23139648.425     1524687.175 6   1158872.56521        12.750           0.656
  23734802.644    -2278732.684 5  -1499506.27021        10.000           0.344
 91  7 27  0 40 44.9990000  0  5G 3G17G16G20G23
  20329844.597    -1244127.347 7   -851479.55423        25.000           2.750
  20580505.925    -1567875.069 7  -1162815.53024        24.750           3.719
  22306334.956      741941.279 7    565106.55022        20.500           1.563
  23146703.105     1561765.157 6   1187764.41421        13.250           0.656
  23721189.589    -2350212.806 5  -1555204.90021         9.000           0.344
 91  7 27  0 40 59.9990000  0  5G 3G17G16G20G23
  20324894.917    -1270131.397 7   -871742.44523        25.000           2.688
  20573549.573    -1604433.271 7  -1191302.42124        25.250           3.688
  22309924.042      760797.010 7    579799.30521        20.000           1.438
  23153754.026     1598838.655 6   1216652.76921        12.750           0.750
  23707587.495    -2421702.542 5  -1610911.01321         8.500           0.375
 91  7 27  0 41 14.9990000  0  5G 3G17G16G20G23
  20319954.800    -1296096.162 7   -891974.71623        25.000           2.844
  20566600.089    -1640949.754 7  -1219756.79724        25.000           3.750
  22313523.683      779709.764 7    594536.49821        20.000           1.469
  23160804.159     1635907.827 6   1245537.74221        12.500           0.625
  23693979.440    -2493201.246 5  -1666624.11721         8.750           0.438
 91  7 27  0 41 29.9990000  0  5G 3G17G16G20G23
  20315020.644    -1322018.856 7   -912174.21123        24.500           2.750
  20559658.565    -1677421.734 7  -1248176.50724        24.750           3.750
  22317135.159      798681.721 7    609319.83421        20.000           1.469
  23167862.026     1672974.714 6   1274420.94221        12.750           0.688
  23680379.292    -2564705.888 5  -1722341.86121         9.250           0.438
 91  7 27  0 41 44.9990000  0  5G 3G17G16G20G23
  20310096.534    -1347899.063 7   -932340.60023        24.250           2.656
  20552728.628    -1713848.794 7  -1276561.20324        25.250           3.781
  22320755.472      817713.097 7    624149.45821        20.500           1.375
  23174917.526     1710039.415 6   1303302.42821        13.000           0.656
  23666764.237    -2636216.028 5  -1778063.87621         9.000           0.469
 91  7 27  0 41 59.9990000  0  5G 3G17G16G20G23
  20305181.714    -1373737.478 7   -952474.43223        25.000           2.781
  20545806.823    -1750231.994 7  -1304911.72724        25.250           3.750
  22324388.237      836802.493 6    639024.30422        19.750           1.531
  23181967.222     1747100.578 6   1332181.17021        12.250           0.656
  23653158.683    -2707732.280 5  -1833790.66321         8.750           0.469
 91  7 27  0 42 14.9990000  0  5G 3G17G16G20G23
  20300273.073    -1399523.430 7   -972567.36923        25.000           2.531
  20538892.815    -1786560.663 7  -1333219.76424        25.000           3.719
  22328032.987      855960.341 6    653952.47321        19.500           1.469
  23189016.323     1784168.397 5   1361065.08221        11.750           0.531
  23639557.847    -2779243.914 5  -1889513.85021         9.750           0.406
 91  7 27  0 42 29.9990000  0  5G 3G17G16G20G23
  20295375.464    -1425263.215 7   -992624.33923        25.250           2.625
  20531988.058    -1822841.416 7  -1361490.45124        24.750           3.781
  22331691.167      875179.586 7    668928.49621        20.000           1.469
  23196068.347     1821235.936 5   1389948.79321        11.500           0.531
  23625945.940    -2850757.143 5  -1945238.29121         9.500           0.375
 91  7 27  0 42 44.9990000  0  5G 3G17G16G20G23
  20290484.855    -1450963.882 7  -1012650.82423        24.750           2.500
  20525091.534    -1859081.748 7  -1389729.64924        25.250           3.875
  22335357.253      894452.942 7    683946.68721        20.000           1.469
  23203132.620     1858295.672 6   1418826.41221        12.750           0.688
  23612328.855    -2922278.745 5  -2000969.26121         9.000           0.469
 91  7 27  0 42 59.9990000  0  5G 3G17G16G20G23
  20285602.339    -1476620.816 7  -1032643.23923        25.000           2.531
  20518204.230    -1895276.961 7  -1417933.69024        25.500           3.781
  22339034.323      913784.459 6    699010.18322        19.000           1.500
  23210172.222     1895351.705 5   1447701.13921        11.750           0.750
  23598715.222    -2993804.180 5  -2056703.19621         9.500           0.563
 91  7 27  0 43 14.9990000  0  5G 3G17G16G20G23
  20280729.167    -1502234.814 7  -1052602.19323        25.250           2.563
  20511324.151    -1931428.069 7  -1446103.36724        25.500           3.781
  22342724.761      933172.829 6    714117.98122        18.500           1.500
  23217232.698     1932402.526 5   1476571.81521        11.750           0.688
  23585110.761    -3065334.138 5  -2112440.68321        10.000           0.344
 91  7 27  0 43 29.9990000  0  5G 3G17G16G20G23
  20275859.964    -1527814.590 7  -1072534.48123        25.000           2.563
  20504451.401    -1967544.263 7  -1474245.83724        25.250           3.688
  22346422.690      952608.607 6    729262.72622        19.500           1.563
  23224276.456     1969438.969 6   1505431.26121        12.500           0.563
  23571491.917    -3136877.344 5  -2168188.49021        10.250           0.313
 91  7 27  0 43 44.9990000  0  5G 3G17G16G20G23
  20271001.409    -1553348.833 7  -1092431.28223        25.000           2.563
  20497587.089    -2003614.146 7  -1502352.21624        25.500           3.750
  22350134.269      972103.046 6    744453.17621        18.500           1.406
  23231320.690     2006472.014 5   1534288.10621        11.750           0.656
  23557875.245    -3208422.140 5  -2223937.52921         9.750           0.438
 91  7 27  0 43 59.9990000  0  5G 3G17G16G20G23
  20266152.355    -1578836.650 7  -1112291.91923        25.250           2.563
  20490734.651    -2039637.149 7  -1530422.07524        25.750           3.781
  22353853.370      991656.444 6    759689.57522        18.000           1.656
  23238366.112     2043501.830 6   1563142.40421        12.250           0.688
  23544262.487    -3279967.615 5  -2279687.09121         9.750           0.469
 91  7 27  0 44 14.9990000  0  5G 3G17G16G20G23
  20261312.245    -1604274.782 7  -1132113.83623        25.500           2.500
  20483889.347    -2075610.167 7  -1558452.97424        25.500           3.781
  22357586.667     1011271.319 6    774973.86121        18.750           1.469
  23245420.636     2080531.000 6   1591996.21821        12.000           0.656
  23530653.784    -3351510.718 5  -2335434.82321        10.250           0.469
 91  7 27  0 44 29.9990000  0  5G 3G17G16G20G23
  20256479.026    -1629664.308 7  -1151897.87823        25.000           2.500
  20477051.464    -2111534.335 7  -1586445.81424        25.500           3.750
  22361331.222     1030946.145 6    790304.88522        19.750           1.563
  23252467.511     2117558.112 6   1620848.40121        12.000           0.500
  23517032.323    -3423052.188 5  -2391181.27421         9.750           0.500
 91  7 27  0 44 44.9990000  0  5G 3G17G16G20G23
  20251658.019    -1655004.911 7  -1171643.79722        25.750           2.469
  20470227.105    -2147409.579 7  -1614400.53224        25.250           3.781
  22365086.480     1050680.700 6    805682.44122        18.250           1.594
  23259508.839     2154582.727 6   1649698.64321        12.250           0.563
  23503423.386    -3494591.517 5  -2446926.05321        10.250           0.438
 91  7 27  0 44 59.9990000  0  5G 3G17G16G20G23
  20246843.909    -1680295.800 7  -1191350.97723        25.250           2.563
  20463404.690    -2183235.265 7  -1642316.62724        25.000           3.750
  22368851.917     1070475.775 6    821107.14922        18.500           1.625
  23266558.198     2191605.230 6   1678547.26121        12.500           0.781
  23489811.433    -3566127.755 5  -2502668.44821        10.750           0.344
 91  7 27  0 45 14.9990000  0  5G 3G17G16G20G23
  20242042.120    -1705536.849 7  -1211019.32423        25.000           2.594
  20456600.769    -2219011.889 7  -1670194.49724        25.500           3.719
  22372631.347     1090330.711 6    836578.50622        19.000           1.688
  23273596.315     2228625.042 5   1707393.76421        11.750           0.688
  23476197.784    -3637661.069 5  -2558408.54921        10.750           0.531
 91  7 27  0 45 29.9990000  0  5G 3G17G16G20G23
  20237246.401    -1730729.184 7  -1230649.71123        24.500           2.719
  20449799.526    -2254740.736 7  -1698035.13724        25.000           3.813
  22376422.183     1110243.747 6    852095.14021        19.000           1.406
  23280641.167     2265640.668 5   1736236.99521        11.750           0.563
  23462586.792    -3709192.302 5  -2614147.01321        10.750           0.594
 91  7 27  0 45 44.9990000  0  5G 3G17G16G20G23
  20232463.175    -1755873.159 7  -1250242.41423        25.250           2.781
  20443013.480    -2290421.672 7  -1725838.44824        25.750           3.688
  22380222.823     1130214.134 6    867656.47022        18.250           1.656
  23287687.542     2302651.362 5   1765076.40121        11.750           0.469
  23448973.722    -3780721.434 5  -2669883.84721        10.250           0.500
 91  7 27  0 45 59.9990000  0  5G 3G17G16G20G23
  20227686.589    -1780966.820 7  -1269795.90823        25.250           2.500
  20436232.792    -2326053.284 7  -1753603.32324        25.750           3.781
  22384033.019     1150243.070 6    883263.39522        18.750           1.656
  23294728.425     2339658.238 6   1793912.82621        12.000           0.500
  23435358.886    -3852246.692 5  -2725617.66321        10.000           0.531
 91  7 27  0 46 14.9990000  0  5G 3G17G16G20G23
  20222922.901    -1806010.018 7  -1289310.08723        25.250           2.625
  20429457.753    -2361635.895 7  -1781330.01224        25.500           3.750
  22387855.026     1170330.406 6    898915.84021        18.750           1.438
  23301766.550     2376661.005 5   1822746.05121        11.000           0.625
  23421759.542    -3923768.092 5  -2781348.46421        10.750           0.563
 91  7 27  0 46 29.9990000  0  5G 3G17G16G20G23
  20218161.690    -1831009.996 7  -1308790.58123        24.500           2.625
  20422694.831    -2397177.038 7  -1809024.39424        25.750           3.844
  22391687.448     1190468.509 6    914607.85922        18.250           1.500
  23308815.776     2413651.861 5   1851569.98121        11.750           0.625
  23408137.605    -3995292.660 5  -2837081.73721        10.000           0.563
 91  7 27  0 46 44.9990000  0  5G 3G17G16G20G23
  20213414.323    -1855958.215 7  -1328230.75223        24.500           2.531
  20415940.862    -2432668.000 7  -1836679.67124        25.500           3.875
  22395529.058     1210665.504 6    930345.74622        18.250           1.625
  23315849.542     2450638.885 6   1880390.90621        12.250           0.500
  23394529.940    -4066811.522 5  -2892810.58021        10.250           0.469
 91  7 27  0 46 59.9990000  0  5G 3G17G16G20G23
  20208677.214    -1880854.896 7  -1347630.75623        24.000           2.531
  20409196.409    -2468109.191 7  -1864296.16524        25.500           3.875
  22399384.370     1230920.518 6    946128.84822        18.500           1.656
  23322883.034     2487621.176 5   1909208.19721        11.750           0.688
  23380923.573    -4138324.839 5  -2948535.08521        11.000           0.469
 91  7 27  0 47 14.9990000  0  5G 3G17G16G20G23
  20203949.878    -1905699.432 7  -1366990.13823        24.750           2.563
  20402462.370    -2503500.303 7  -1891873.63824        25.500           3.781
  22403252.292     1251233.627 6    961957.23022        18.500           1.688
  23329925.464     2524598.727 5   1938021.76821        11.500           0.500
  23367314.433    -4209832.049 5  -3004254.85621        11.000           0.500
 91  7 27  0 47 29.9990000  0  5G 3G17G16G20G23
  20199235.698    -1930486.110 7  -1386304.42823        25.500           2.563
  20395738.980    -2538835.565 7  -1919407.59424        25.750           3.813
  22407126.784     1271610.330 6    977835.14922        17.750           1.563
  23336953.433     2561577.079 5   1966835.93421        10.250           0.500
  23353711.987    -4281326.996 5  -3059965.04121        10.500           0.500
 91  7 27  0 47 44.9990000  0  5G 3G17G16G20G23
  20194528.222    -1955218.483 7  -1405576.40523        25.500           2.625
  20389022.511    -2574119.244 7  -1946901.35124        25.250           3.906
  22411018.417     1292046.109 6    993759.11422        18.750           1.563
  23343992.558     2598551.681 5   1995647.21021        10.750           0.531
  23340107.784    -4352813.665 5  -3115668.79021        10.250           0.469
 91  7 27  0 47 59.9990000  0  5G 3G17G16G20G23
  20189831.948    -1979898.048 7  -1424807.23023        25.500           2.656
  20382316.769    -2609352.651 7  -1974355.93324        25.250           3.781
  22414914.690     1312539.306 6   1009727.81722        18.000           1.563
  23351026.933     2635520.908 5   2024454.28821        11.000           0.531
  23326505.644    -4424293.165 5  -3171366.94521        11.000           0.406
 91  7 27  0 48 14.9990000  0  5G 3G17G16G20G23
  20185145.159    -2004522.466 7  -1443995.08323        25.250           2.563
  20375625.409    -2644533.959 7  -2001769.92724        25.750           3.906
  22418828.011     1333091.412 6   1025742.42122        18.500           1.563
  23358064.651     2672486.248 5   2053258.34421        11.250           0.500
  23312902.089    -4495763.311 5  -3227057.80021        10.000           0.594
 91  7 27  0 48 29.9990000  0  5G 3G17G16G20G23
  20180467.730    -2029090.535 7  -1463139.03923        24.500           2.656
  20368940.300    -2679662.022 7  -2029142.42524        26.000           3.844
  22422752.105     1353703.530 6   1041803.79422        19.250           1.688
  23365100.480     2709448.556 6   2082060.02221        12.000           0.563
  23299298.370    -4567222.580 5  -3282740.19921        10.500           0.281
 91  7 27  0 48 44.9990000  0  5G 3G17G16G20G23
  20175807.597    -2053601.400 7  -1482238.40523        25.750           2.656
  20362268.464    -2714735.943 7  -2056472.74324        26.000           3.750
  22426684.894     1374375.810 6   1057912.03422        18.250           1.500
  23372128.339     2746408.178 5   2110859.60321        11.000           0.500
  23285711.706    -4638669.952 5  -3338413.35121        11.000           0.625
 91  7 27  0 48 59.9990000  0  5G 3G17G16G20G23
  20171154.980    -2078055.391 7  -1501293.46123        25.750           2.656
  20355600.550    -2749756.596 7  -2083761.54624        25.750           3.781
  22430627.495     1395107.335 6   1074066.44421        18.500           1.406
  23379162.995     2783363.783 5   2139656.07721        10.500           0.500
  23272111.526    -4710106.046 5  -3394077.67421         9.750           0.406
 91  7 27  0 49 14.9990000  0  5G 3G17G16G20G23
  20166510.487    -2102451.758 7  -1520303.61323        25.000           2.750
  20348948.167    -2784722.876 7  -2111007.97924        26.000           3.813
  22434586.065     1415899.058 6   1090267.78321        18.250           1.469
  23386198.550     2820316.502 5   2168450.26521        11.250           0.438
  23258526.026    -4781529.171 5  -3449731.92821        10.250           0.563
 91  7 27  0 49 29.9990000  0  5G 3G17G16G20G23
  20161879.136    -2126786.445 7  -1539265.70823        24.750           2.594
  20342301.940    -2819631.821 7  -2138209.73924        25.750           3.906
  22438554.644     1436753.379 6   1106517.86722        18.500           1.531
  23393224.175     2857268.802 5   2197244.16621        11.000           0.469
  23244938.355    -4852936.204 5  -3505373.60221        10.500           0.625
 91  7 27  0 49 44.9990000  0  5G 3G17G16G20G23
  20157260.644    -2151059.804 7  -1558180.00923        25.000           2.563
  20335673.120    -2854483.382 7  -2165366.78024        26.000           3.813
  22442533.651     1457670.221 6   1122816.67021        18.250           1.375
  23400260.878     2894220.325 5   2226037.44421        11.000           0.500
  23231361.519    -4924326.884 5  -3561002.55021        11.250           0.594
 91  7 27  0 49 59.9990000  0  5G 3G17G16G20G23
  20152652.276    -2175272.750 7  -1577047.24323        24.750           2.625
  20329051.597    -2889278.723 7  -2192480.02024        26.000           3.875
  22446527.026     1478647.950 6   1139162.95021        18.500           1.406
  23407283.347     2931169.692 5   2254829.02421        10.000           0.531
  23217769.105    -4995702.115 5  -3616619.48721        10.750           0.563
 91  7 27  0 50 14.9990000  0  5G 3G17G16G20G23
  20148055.214    -2199425.580 7  -1595867.62223        24.500           2.563
  20322442.995    -2924018.528 7  -2219549.98124        26.250           4.000
  22450527.769     1499685.880 6   1155556.11321        18.000           1.406
  23414323.776     2968116.017 5   2283618.25621        10.750           0.469
  23204189.597    -5067062.142 5  -3672224.54721        11.500           0.406
 91  7 27  0 50 29.9990000  0  5G 3G17G16G20G23
  20143472.730    -2223519.378 7  -1614642.01323        25.000           2.500
  20315840.097    -2958703.975 7  -2246577.58624        26.000           3.781
  22454544.894     1520782.373 6   1171994.91721        18.250           1.406
  23421345.542     3005057.500 5   2312403.71421        10.750           0.531
  23190610.167    -5138408.079 5  -3727818.65121        10.750           0.594
 91  7 27  0 50 44.9990000  0  5G 3G17G16G20G23
  20138898.034    -2247550.603 7  -1633367.62722        24.500           2.438
  20309251.987    -2993331.611 7  -2273560.14524        26.500           3.844
  22458571.222     1541940.524 6   1188481.76421        18.500           1.375
  23428380.917     3041997.221 5   2341187.79421        10.750           0.563
  23177040.175    -5209736.193 5  -3783398.85121        10.500           0.500
 91  7 27  0 50 59.9990000  0  5G 3G17G16G20G23
  20134338.878    -2271517.426 7  -1652043.08722        25.250           2.469
  20302674.831    -3027899.983 7  -2300496.52324        26.500           3.906
  22462610.862     1563161.576 6   1205017.62722        18.250           1.594
  23435409.339     3078936.448 5   2369971.44921        10.000           0.625
  23163466.065    -5281044.392 5  -3838963.54121        10.250           0.656
 91  7 27  0 51 14.9990000  0  5G 3G17G16G20G23
  20129787.581    -2295422.818 7  -1670670.66123        24.250           2.750
  20296105.480    -3062412.167 7  -2327389.12024        26.250           3.813
  22466656.503     1584442.086 6   1221599.80221        17.750           1.375
  23442439.714     3115871.879 5   2398752.17821        11.250           0.594
  23149898.534    -5352335.599 5  -3894515.00421        11.000           0.594
 91  7 27  0 51 29.9990000  0  5G 3G17G16G20G23
  20125251.151    -2319264.197 7  -1689248.35723        24.750           2.563
  20289549.605    -3096866.057 7  -2354236.29424        26.000           3.813
  22470719.050     1605784.204 6   1238230.02121        18.750           1.281
  23449468.886     3152805.288 5   2427530.82621        11.000           0.563
  23136345.394    -5423607.233 5  -3950051.20621        11.250           0.625
 91  7 27  0 51 44.9990000  0  5G 3G17G16G20G23
  20120728.565    -2343041.655 7  -1707776.23822        24.750           2.469
  20283003.823    -3131261.618 7  -2381038.01424        26.250           3.906
  22474793.237     1627187.306 6   1254907.74921        17.250           1.313
  23456494.261     3189736.072 5   2456307.95621        11.000           0.313
  23122781.597    -5494859.387 5  -4005572.21921        11.250           0.594
 91  7 27  0 51 59.9990000  0  5G 3G17G16G20G23
  20116217.776    -2366755.612 7  -1726254.65023        25.250           2.563
  20276468.995    -3165599.505 7  -2407794.79224        25.250           3.938
  22478876.714     1648650.496 6   1271632.26321        18.750           1.313
  23463520.230     3226663.468 5   2485082.43421        11.000           0.531
  23109223.769    -5566092.279 5  -4061078.23821        11.500           0.500
 91  7 27  0 52 14.9990000  0  5G 3G17G16G20G23
  20111715.823    -2390412.864 7  -1744688.86723        25.000           2.719
  20269945.159    -3199886.851 7  -2434512.19724        25.500           4.000
  22482972.511     1670166.397 6   1288397.89321        18.250           1.219
  23470545.245     3263580.088 5   2513848.48621        10.500           0.500
  23095675.073    -5637312.757 6  -4116574.60321        12.250           0.656
 91  7 27  0 52 29.9990000  0  5G 3G17G16G20G23
  20107224.183    -2414010.848 7  -1763076.90223        25.500           2.719
  20263429.198    -3234121.106 7  -2461188.21924        25.250           3.875
  22487077.972     1691737.242 6   1305206.32721        18.250           1.313
  23477568.276     3300487.866 5   2542607.64421        10.750           0.469
  23082123.065    -5708518.237 5  -4172059.25421        11.000           0.594
 91  7 27  0 52 44.9990000  0  5G 3G17G16G20G23
  20102746.784    -2437540.335 7  -1781411.55723        25.750           2.688
  20256927.487    -3268293.143 7  -2487815.76824        25.250           3.844
  22491192.253     1713371.967 6   1322064.51921        18.000           1.313
  23484592.167     3337395.648 5   2571366.82421        10.750           0.313
  23068580.472    -5779698.843 5  -4227524.53021        11.750           0.531
 91  7 27  0 52 59.9990000  0  5G 3G17G16G20G23
  20098278.940    -2460996.180 7  -1799688.83823        24.500           2.781
  20250437.753    -3302398.745 7  -2514391.55124        25.750           3.750
  22495323.925     1735074.295 6   1338975.40121        17.750           1.156
  23491626.831     3374307.580 5   2600129.25021        11.000           0.406
  23055037.269    -5850850.066 6  -4282966.92021        12.000           0.563
 91  7 27  0 53 14.9990000  0  5G 3G17G16G20G23
  20093830.550    -2484384.285 7  -1817913.33323        25.000           2.719
  20243960.206    -3336443.327 7  -2540919.78024        25.500           3.906
  22499463.269     1756838.802 6   1355934.74021        17.250           1.219
  23498648.440     3411217.876 5   2628890.36721        11.250           0.375
  23041506.284    -5921976.991 6  -4338390.37221        12.000           0.656
 91  7 27  0 53 29.9990000  0  5G 3G17G16G20G23
  20089392.480    -2507702.493 7  -1836083.36123        24.750           2.719
  20237493.097    -3370425.241 7  -2567399.18024        25.500           3.844
  22503618.519     1778666.509 6   1372943.32021        18.000           1.281
  23505673.753     3448127.754 5   2657651.18021        11.250           0.344
  23027972.433    -5993077.984 6  -4393793.60921        12.250           0.625
 91  7 27  0 53 44.9990000  0  5G 3G17G16G20G23
  20084968.542    -2530953.455 7  -1854200.98823        25.250           2.781
  20231038.230    -3404347.043 7  -2593831.73824        25.750           3.781
  22507782.769     1800554.961 6   1389999.23121        16.750           1.188
  23512690.253     3485034.236 5   2686409.34921        10.750           0.281
  23014437.073    -6064155.207 5  -4449178.35421        11.250           0.625
 91  7 27  0 53 59.9990000  0  5G 3G17G16G20G23
  20080558.698    -2554134.924 7  -1872264.46423        24.750           2.656
  20224594.644    -3438206.705 7  -2620215.87824        26.000           3.938
  22511960.323     1822505.585 6   1407103.58821        17.250           1.313
  23519709.995     3521938.851 5   2715166.06621        10.250           0.344
  23000928.620    -6135206.439 6  -4504542.82421        12.500           0.594
 91  7 27  0 54 14.9990000  0  5G 3G17G16G20G23
  20076157.511    -2577248.254 7  -1890274.85123        24.250           2.844
  20218160.636    -3472005.940 7  -2646552.93124        25.500           3.875
  22516148.769     1844516.483 6   1424254.90021        17.500           1.250
  23526733.808     3558839.765 5   2743919.88021        11.750           0.438
  22987411.839    -6206232.903 6  -4559887.99721        12.750           0.656
 91  7 27  0 54 29.9990000  0  5G 3G17G16G20G23
  20071772.308    -2600292.972 7  -1908231.76723        23.750           2.813
  20211741.214    -3505744.569 7  -2672842.76124        25.750           3.875
  22520350.425     1866587.664 6   1441453.19821        17.750           1.031
  23533758.417     3595736.866 5   2772670.74321        11.750           0.531
  22973896.542    -6277234.120 6  -4615213.49121        12.500           0.625
 91  7 27  0 54 44.9990000  0  5G 3G17G16G20G23
  20067402.878    -2623269.357 7  -1926135.44323        24.750           2.594
  20205332.847    -3539423.018 7  -2699085.70024        25.500           3.844
  22524561.776     1888718.485 6   1458697.99021        17.750           1.188
  23540781.175     3632629.463 5   2801418.08221        10.750           0.594
  22960392.105    -6348210.428 6  -4670519.60921        12.750           0.594
 91  7 27  0 54 59.9990000  0  5G 3G17G16G20G23
  20063044.386    -2646178.707 7  -1943986.87923        24.750           2.625
  20198935.956    -3573042.635 7  -2725282.79524        26.000           3.938
  22528780.136     1910906.657 6   1475987.44221        15.750           1.438
  23547793.573     3669515.738 5   2830160.47221         9.750           0.313
  22946890.753    -6419162.780 6  -4725807.04421        13.000           0.688
 91  7 27  0 55 14.9990000  0  5G 3G17G16G20G23
  20058696.894    -2669017.427 7  -1961783.27923        24.750           2.500
  20192547.026    -3606600.606 7  -2751431.84624        25.000           3.969
  22533017.964     1933155.257 6   1493323.96521        17.750           1.188
  23554810.019     3706398.384 5   2858900.03421        10.250           0.344
  22933397.042    -6490087.838 6  -4781073.20921        12.750           0.688
 91  7 27  0 55 29.9990000  0  5G 3G17G16G20G23
  20054363.003    -2691787.609 7  -1979526.27523        24.500           2.531
  20186175.198    -3640098.766 7  -2777534.29724        25.500           3.906
  22537259.581     1955462.085 6   1510705.90021        18.250           1.250
  23561834.987     3743275.145 5   2887635.05221        10.000           0.406
  22919900.972    -6560987.542 6  -4836319.60321        12.250           0.688
 91  7 27  0 55 44.9980000  0  5G 3G17G16G20G23
  20050044.568    -2714486.742 7  -1997213.90823        24.250           2.500
  20179810.545    -3673534.095 7  -2803587.79124        25.250           4.000
  22541515.092     1977826.176 6   1528132.45021        16.750           1.094
  23568847.490     3780144.016 5   2916363.88521        10.000           0.438
  22906421.412    -6631855.814 6  -4891541.53621        13.500           0.688
 91  7 27  0 55 59.9980000  0  5G 3G17G16G20G23
  20045736.318    -2737116.087 7  -2014847.15823        24.250           2.531
  20173459.857    -3706909.252 7  -2829594.39324        25.500           3.906
  22545785.693     2000251.944 6   1545607.04621        16.750           1.250
  23575858.147     3817011.121 5   2945091.35321        10.000           0.406
  22892935.732    -6702700.204 6  -4946744.85121        13.000           0.625
 91  7 27  0 56 14.9980000  0  5G 3G17G16G20G23
  20041446.834    -2759676.905 7  -2032427.01523        25.000           2.531
  20167121.943    -3740225.317 7  -2855554.95124        25.250           3.875
  22550064.951     2022734.437 6   1563125.82521        18.000           1.250
  23582880.506     3853870.699 5   2973812.93521        11.250           0.469
  22879462.193    -6773518.772 6  -5001928.02621        13.250           0.781
 91  7 27  0 56 29.9980000  0  5G 3G17G16G20G23
  20037166.193    -2782168.097 7  -2049952.62022        25.000           2.469
  20160790.850    -3773481.432 7  -2881468.79424        24.750           3.938
  22554353.373     2045273.739 6   1580688.91621        17.250           1.094
  23589894.092     3890723.210 5   3002529.04121        10.750           0.375
  22865994.951    -6844310.484 6  -5057090.29621        14.000           0.781
 91  7 27  0 56 44.9980000  0  5G 3G17G16G20G23
  20032895.857    -2804587.767 7  -2067422.49223        24.250           2.594
  20154477.740    -3806675.642 7  -2907334.40324        25.500           3.938
  22558653.873     2067871.827 6   1598297.78021        17.250           1.094
  23596900.639     3927570.346 5   3031240.95421         9.750           0.469
  22852523.272    -6915073.029 6  -5112229.84621        13.750           0.625
 91  7 27  0 56 59.9980000  0  5G 3G17G16G20G23
  20028644.326    -2826940.189 7  -2084839.95623        25.000           2.594
  20148170.662    -3839812.340 7  -2933155.19524        25.500           3.906
  22562963.529     2090523.903 6   1615948.73321        17.250           1.250
  23603915.709     3964407.157 5   3059944.79321        10.000           0.250
  22839058.193    -6985810.767 6  -5167350.05721        13.000           0.781
 91  7 27  0 57 14.9980000  0  5G 3G17G16G20G23
  20024404.451    -2849216.916 7  -2102198.44223        24.750           2.594
  20141878.842    -3872883.660 7  -2958925.04224        25.750           3.781
  22567285.014     2113237.522 6   1633647.62821        16.000           1.250
  23610921.732     4001241.078 5   3088646.39921        10.000           0.406
  22825609.092    -7056515.588 6  -5222444.62421        13.750           0.813
 91  7 27  0 57 29.9980000  0  5G 3G17G16G20G23
  20020180.443    -2871421.178 7  -2119500.46523        24.750           2.750
  20135595.686    -3905892.758 7  -2984646.40624        25.250           3.844
  22571618.522     2136009.438 6   1651391.94621        17.750           1.156
  23617932.740     4038068.915 5   3117343.22921        10.750           0.406
  22812156.443    -7127190.118 6  -5277515.57921        12.750           0.750
 91  7 27  0 57 44.9980000  0  5G 3G17G16G20G23
  20015970.162    -2893555.131 7  -2136747.69523        25.250           2.594
  20129326.779    -3938842.022 7  -3010321.14724        25.250           3.844
  22575963.154     2158836.829 6   1669179.52121        17.500           1.250
  23624932.592     4074888.012 5   3146033.31721         9.500           0.281
  22798713.248    -7197836.323 6  -5332564.46221        13.500           0.750
 91  7 27  0 57 59.9980000  0  5G 3G17G16G20G23
  20011768.561    -2915620.042 7  -2153941.13123        25.000           2.594
  20123068.022    -3971733.073 7  -3035950.52724        25.750           3.781
  22580318.576     2181718.003 6   1687008.97321        16.000           1.188
  23631940.295     4111696.323 5   3174714.96821         8.750           0.406
  22785278.357    -7268455.645 6  -5387592.41821        13.500           0.781
 91  7 27  0 58 14.9980000  0  5G 3G17G16G20G23
  20007583.522    -2937614.291 7  -2171079.50923        25.250           2.719
  20116818.147    -4004565.038 7  -3061533.86324        25.500           3.875
  22584680.232     2204653.921 6   1704881.08121        16.750           1.125
  23638945.170     4148494.551 5   3203388.73421        10.000           0.281
  22771840.240    -7339046.751 6  -5442598.36021        13.500           0.531
 91  7 27  0 58 29.9980000  0  5G 3G17G16G20G23
  20003413.053    -2959538.076 7  -2188162.97423        25.500           2.563
  20110581.232    -4037337.596 7  -3087070.90924        25.250           3.844
  22589058.990     2227644.228 6   1722795.59021        17.000           1.188
  23645939.443     4185282.638 5   3232054.61721         9.500           0.406
  22758416.123    -7409609.165 6  -5497581.99121        13.500           0.719
 91  7 27  0 58 44.9980000  0  5G 3G17G16G20G23
  19999254.154    -2981390.968 7  -2205191.20623        25.250           2.656
  20104354.803    -4070050.295 7  -3112561.31424        25.000           3.844
  22593440.256     2250688.617 6   1740752.22621        16.250           1.125
  23652940.943     4222060.499 5   3260712.52021         9.500           0.406
  22744992.053    -7480142.307 6  -5552542.77121        14.250           0.688
 91  7 27  0 58 59.9980000  0  5G 3G17G16G20G23
  19995108.459    -3003172.856 7  -2222164.09823        25.000           2.563
  20098144.334    -4102703.706 7  -3138005.52224        25.750           4.000
  22597837.459     2273786.594 6   1758750.62221        16.500           1.219
  23659938.537     4258827.443 5   3289361.93821         9.750           0.438
  22731574.522    -7550646.224 6  -5607480.80721        13.500           0.719
 91  7 27  0 59 14.9980000  0  5G 3G17G16G20G23
  19990975.647    -3024885.199 7  -2239082.80523        24.500           2.719
  20091941.115    -4135299.580 7  -3163404.89424        25.750           3.938
  22602239.412     2296936.200 6   1776789.25021        17.000           1.156
  23666931.639     4295581.393 5   3318001.19921         9.500           0.281
  22718167.865    -7621122.362 6  -5662397.17021        14.000           0.688
 91  7 27  0 59 29.9980000  0  5G 3G17G16G20G23
  19986857.201    -3046525.280 7  -2255945.20423        25.000           2.656
  20085749.764    -4167835.239 7  -3188757.34524        25.500           3.813
  22606659.584     2320139.763 6   1794869.93421        16.750           1.281
  23673922.717     4332324.401 5   3346631.96521         7.750           0.375
  22704761.834    -7691567.994 6  -5717289.78621        14.250           0.781
 91  7 27  0 59 44.9980000  0  5G 3G17G16G20G23
  19982753.857    -3068094.479 7  -2272752.37123        25.000           2.531
  20079571.701    -4200311.949 7  -3214063.86124        26.000           3.906
  22611086.350     2343395.702 6   1812991.39921        16.000           1.281
  23680918.107     4369055.124 5   3375253.09721         9.250           0.406
  22691360.147    -7761983.937 6  -5772159.27121        13.750           0.688
 91  7 27  0 59 59.9980000  0  5G 3G17G16G20G23
  19978664.256    -3089592.255 7  -2289503.88123        25.250           2.563
  20073399.795    -4232729.710 7  -3239324.44624        25.500           3.906
  22615517.326     2366703.466 6   1831153.25221        17.000           1.000
  23687896.990     4405773.108 5   3403864.33921         9.000           0.313
  22677964.576    -7832370.102 6  -5827005.55121        13.500           0.719
 91  7 27  1  0 14.9980000  0  5G 3G17G16G20G23
  19974585.748    -3111016.232 7  -2306197.89023        24.750           2.625
  20067243.506    -4265086.038 7  -3264537.16024        26.000           3.938
  22619963.686     2390065.323 6   1849357.30621        17.000           1.031
  23694888.865     4442480.564 5   3432467.38321         8.750           0.313
  22664573.186    -7902723.497 6  -5881826.29821        13.250           0.656
 91  7 27  1  0 29.9980000  0  5G 3G17G16G20G23
  19970523.154    -3132369.300 7  -2322836.64623        24.750           2.688
  20061094.615    -4297384.275 7  -3289704.61024        25.750           3.906
  22624418.318     2413477.763 6   1867600.75121        14.750           1.125
  23701871.014     4479174.045 5   3461059.52021         9.000           0.313
  22651193.951    -7973047.433 6  -5936624.07321        14.250           0.719
 91  7 27  1  0 44.9980000  0  5G 3G17G16G20G23
  19966472.006    -3153648.325 7  -2339417.70123        24.000           2.594
  20054960.381    -4329621.427 7  -3314824.45624        25.750           3.906
  22628882.498     2436943.630 6   1885885.76821        16.750           1.250
  23708847.186     4515856.097 5   3489642.75821         9.000           0.281
  22637821.061    -8043338.333 6  -5991396.14421        14.000           0.844
 91  7 27  1  0 59.9980000  0  5G 3G17G16G20G23
  19962439.467    -3174853.580 7  -2355941.27523        25.250           2.531
  20048838.772    -4361797.814 7  -3339896.95624        25.750           3.875
  22633360.365     2460462.083 6   1904211.82321        16.250           1.063
  23715828.592     4552525.826 5   3518216.44021         9.750           0.250
  22624446.920    -8113596.385 6  -6046142.58621        13.500           0.813
 91  7 27  1  1 14.9980000  0  5G 3G17G16G20G23
  19958419.256    -3195983.265 7  -2372405.96323        25.500           2.594
  20042729.772    -4393912.245 7  -3364921.18124        25.750           3.938
  22637845.615     2484034.149 6   1922579.65621        15.750           0.938
  23722808.928     4589184.297 5   3546781.30021         9.750           0.313
  22611081.029    -8183820.174 6  -6100862.35521        13.500           0.875
 91  7 27  1  1 29.9980000  0  5G 3G17G16G20G23
  19954409.092    -3217040.867 7  -2388814.48522        24.750           2.469
  20036628.225    -4425968.286 7  -3389899.90724        26.250           3.813
  22642341.811     2507656.204 6   1940986.41021        15.500           1.125
  23729774.350     4625827.669 5   3575334.38621         8.500           0.375
  22597730.826    -8254012.671 6  -6155557.72921        13.750           0.813
 91  7 27  1  1 44.9980000  0  5G 3G17G16G20G23
  19950417.193    -3238023.641 7  -2405164.70623        25.250           2.531
  20030541.272    -4457963.334 7  -3414831.10824        26.000           3.938
  22646847.193     2531330.402 6   1959433.80221        16.500           1.094
  23736751.857     4662458.405 5   3603877.61021         8.750           0.250
  22584379.061    -8324171.033 6  -6210226.51121        14.250           0.938
 91  7 27  1  1 59.9980000  0  5G 3G17G16G20G23
  19946440.084    -3258929.445 7  -2421454.94323        25.750           2.563
  20024463.365    -4489895.397 7  -3439713.22424        25.750           3.938
  22651361.397     2555058.401 6   1977923.13221        16.250           1.219
  23743712.686     4699078.154 5   3632412.32921         7.500           0.250
  22571035.881    -8394293.087 6  -6264866.98921        14.750           0.938
 91  7 27  1  2 14.9980000  0  5G 3G17G16G20G23
  19942475.756    -3279761.409 7  -2437687.64523        25.500           2.563
  20018398.912    -4521767.950 7  -3464548.97724        26.250           3.906
  22655887.311     2578836.421 6   1996451.42821        15.500           1.094
  23750682.912     4735683.059 5   3660934.93521         9.000           0.219
  22557695.459    -8464381.961 6  -6319481.63621        14.250           0.844
 91  7 27  1  2 29.9980000  0  5G 3G17G16G20G23
  19938527.615    -3300514.705 7  -2453859.05323        25.750           2.500
  20012345.022    -4553576.396 7  -3489334.76824        25.750           3.938
  22660423.357     2602668.673 6   2015021.98321        15.500           1.000
  23757647.897     4772277.202 5   3689449.67121        10.250           0.250
  22544362.514    -8534433.105 6  -6374066.86321        13.750           0.938
 91  7 27  1  2 44.9980000  0  5G 3G17G16G20G23
  19934592.748    -3321193.052 7  -2469972.05123        25.500           2.500
  20006302.232    -4585324.019 7  -3514073.16624        25.500           3.844
  22664967.584     2626551.459 6   2033631.93221        16.250           1.125
  23764608.701     4808857.019 5   3717953.25621         9.500           0.344
  22531043.225    -8604449.296 6  -6428624.86021        14.500           0.969
 91  7 27  1  2 59.9980000  0  5G 3G17G16G20G23
  19930667.943    -3341797.350 7  -2486027.35523        25.000           2.531
  20000274.162    -4617012.385 7  -3538765.38824        25.750           3.906
  22669518.615     2650483.027 6   2052279.88621        15.750           1.219
  23771564.576     4845420.622 5   3746444.18121         9.250           0.313
  22517719.600    -8674431.899 6  -6483156.68221        14.000           0.875
 91  7 27  1  3 14.9980000  0  5G 3G17G16G20G23
  19926763.318    -3362324.174 7  -2502022.28323        25.500           2.531
  19994254.975    -4648638.563 7  -3563409.15624        26.000           4.000
  22674083.732     2674466.425 6   2070968.19221        15.750           1.156
  23778517.647     4881970.990 5   3774924.81221         8.250           0.406
  22504411.897    -8744377.453 6  -6537659.64221        13.500           0.938
 91  7 27  1  3 29.9980000  0  5G 3G17G16G20G23
  19922871.498    -3382778.636 7  -2517960.82622        26.000           2.469
  19988249.451    -4680207.345 7  -3588008.19624        26.000           3.906
  22678657.740     2698496.241 6   2089692.71821        15.000           1.031
  23785472.311     4918502.557 5   3803390.76121         8.500           0.344
  22491112.842    -8814290.484 6  -6592137.25221        14.000           0.969
 91  7 27  1  3 44.9980000  0  5G 3G17G16G20G23
  19918993.287    -3403159.805 7  -2533842.25523        25.000           2.594
  19982251.943    -4711718.381 7  -3612562.24024        26.250           3.875
  22683241.381     2722572.670 6   2108453.52421        16.500           1.188
  23792417.482     4955015.338 5   3831842.05221         8.000           0.375
  22477814.193    -8884170.396 6  -6646589.05021        14.500           0.906
 91  7 27  1  3 59.9980000  0  5G 3G17G16G20G23
  19915131.014    -3423465.073 7  -2549664.54423        25.250           2.500
  19976266.451    -4743169.443 7  -3637069.55424        26.250           3.750
  22687831.662     2746697.518 6   2127252.08821        15.000           0.969
  23799370.553     4991511.545 5   3860279.94821         8.250           0.188
  22464521.342    -8954014.640 6  -6701013.06921        14.000           0.906
 91  7 27  1  4 14.9980000  0  5G 3G17G16G20G23
  19911279.850    -3443693.554 7  -2565426.99423        24.750           2.531
  19970296.240    -4774559.084 7  -3661529.00624        26.750           3.844
  22692431.740     2770872.119 6   2146089.40421        15.500           1.094
  23806313.717     5027992.142 5   3888706.19521         8.500           0.188
  22451241.451    -9023821.629 6  -6755408.04321        15.000           0.906
 91  7 27  1  4 29.9980000  0  5G 3G17G16G20G23
  19907445.740    -3463846.805 7  -2581130.83222        25.000           2.469
  19964329.131    -4805889.495 7  -3685942.30424        26.000           3.813
  22697037.834     2795093.816 6   2164963.41821        16.250           1.000
  23813245.959     5064454.603 5   3917118.31821         8.250           0.188
  22437960.272    -9093593.320 6  -6809775.53521        14.250           0.969
 91  7 27  1  4 44.9980000  0  5G 3G17G16G20G23
  19903625.443    -3483923.854 7  -2596775.27823        24.750           2.563
  19958378.287    -4837160.037 7  -3710308.95124        26.000           3.781
  22701656.600     2819362.979 6   2183874.43221        16.000           1.031
  23820183.623     5100899.512 5   3945516.79121         7.500           0.125
  22424690.631    -9163328.561 6  -6864114.60621        13.750           1.063
 91  7 27  1  4 59.9980000  0  5G 3G17G16G20G23
  19899817.584    -3503926.307 7  -2612361.60623        24.750           2.531
  19952440.592    -4868372.420 7  -3734630.28124        26.000           3.906
  22706283.889     2843677.576 6   2202820.84621        15.250           1.063
  23827112.639     5137324.642 4   3973899.80621         7.250           0.219
  22411429.342    -9233028.840 6  -6918426.42321        15.250           0.969
 91  7 27  1  5 14.9980000  0  5G 3G17G16G20G23
  19896024.693    -3523849.313 7  -2627886.02623        24.750           2.500
  19946512.404    -4899522.022 7  -3758902.68624        25.500           4.000
  22710923.967     2868042.038 6   2221806.08721        16.250           1.031
  23834050.639     5173734.454 5   4002270.89921         8.000           0.250
  22398174.982    -9302689.218 6  -6972707.17221        14.000           0.969
 91  7 27  1  5 29.9980000  0  4G 3G17G16G23
  19892249.678    -3543697.665 7  -2643352.27522        25.000           2.469
  19940597.498    -4930613.750 7  -3783129.99624        26.250           3.969
  22715565.420     2892451.299 6   2240826.26521        15.000           0.969
  22384922.147    -9372314.291 6  -7026960.39121        14.000           0.938
 91  7 27  1  5 44.9980000  0  4G 3G17G16G23
  19888488.279    -3563466.167 7  -2658756.30123        26.000           2.625
  19934692.115    -4961642.557 7  -3807308.27624        26.250           4.156
  22720217.334     2916909.866 6   2259884.86221        14.500           0.969
  22371680.537    -9441898.940 6  -7081182.12221        13.750           0.938
 91  7 27  1  5 59.9980000  0  4G 3G17G16G23
  19884740.397    -3583154.145 7  -2674097.58123        25.250           2.531
  19928800.053    -4992608.177 7  -3831437.32324        26.000           3.906
  22724882.818     2941417.747 6   2278981.87421        15.500           1.063
  22358448.873    -9511442.531 6  -7135371.85721        14.500           1.000
 91  7 27  1  6 14.9980000  0  4G 3G17G16G23
  19881011.264    -3602761.661 7  -2689376.17023        26.000           2.563
  19922920.045    -5023510.638 7  -3855517.15124        26.000           3.969
  22729556.014     2965974.744 6   2298117.16121        14.750           0.906
  22345217.920    -9580944.748 6  -7189529.36021        13.750           1.031
 91  7 27  1  6 29.9980000  0  4G 3G17G16G23
  19877292.975    -3622291.078 7  -2704593.89123        25.750           2.563
  19917052.357    -5054352.603 7  -3879549.84424        27.000           4.031
  22734239.865     2990577.908 6   2317288.42521        15.750           0.938
  22332005.756    -9650407.939 6  -7243656.44421        14.000           0.938
 91  7 27  1  6 44.9980000  0  4G 3G17G16G23
  19873592.522    -3641741.244 7  -2719749.87023        26.000           2.500
  19911192.912    -5085133.415 7  -3903534.88424        26.250           3.969
  22738929.037     3015227.920 6   2336496.20621        15.250           1.000
  22318787.592    -9719830.857 6  -7297752.15121        13.750           1.000
 91  7 27  1  6 59.9980000  0  4G 3G17G16G23
  19869908.357    -3661114.728 7  -2734846.09822        26.500           2.406
  19905346.873    -5115855.502 7  -3927474.16524        26.250           3.906
  22743628.576     3039921.431 6   2355737.86321        14.500           0.875
  22305582.326    -9789216.109 6  -7351818.49421        13.750           0.938
 91  7 27  1  7 14.9980000  0  4G 3G17G16G23
  19866234.514    -3680407.473 7  -2749879.40022        25.250           2.469
  19899513.342    -5146514.762 7  -3951364.48624        26.500           3.938
  22748336.607     3064662.756 6   2375016.76521        15.250           0.875
  22292389.443    -9858559.174 6  -7405851.97721        14.250           1.031
 91  7 27  1  7 29.9980000  0  4G 3G17G16G23
  19862580.975    -3699621.921 7  -2764851.69822        25.500           2.375
  19893690.576    -5177114.135 7  -3975208.14824        26.500           3.906
  22753054.178     3089448.427 6   2394330.25521        15.750           0.781
  22279208.725    -9927862.888 6  -7459854.79321        14.750           1.125
 91  7 27  1  7 44.9980000  0  4G 3G17G16G23
  19858937.225    -3718756.522 7  -2779761.78422        25.250           2.406
  19887878.428    -5207652.464 7  -3999004.24324        26.500           3.969
  22757775.662     3114279.348 6   2413679.00421        15.500           0.969
  22266019.678    -9997125.589 6  -7513825.65021        14.250           0.969
 91  7 27  1  7 59.9980000  0  4G 3G17G16G23
  19855311.725    -3737811.612 7  -2794609.90023        25.500           2.500
  19882078.631    -5238129.938 7  -4022752.91024        26.250           4.031
  22762509.842     3139155.072 6   2433062.63721        14.000           1.000
  22252848.717   -10066347.061 6  -7567764.38921        15.000           1.063
 91  7 27  1  8 14.9980000  0  4G 3G17G16G23
  19851699.326    -3756791.424 7  -2809399.36722        25.000           2.406
  19876290.123    -5268551.734 7  -4046458.20224        26.750           4.031
  22767253.693     3164070.095 6   2452476.89121        14.750           0.938
  22239689.842   -10135532.378 6  -7621674.94221        15.000           1.125
 91  7 27  1  8 29.9980000  0  4G 3G17G16G23
  19848101.514    -3775698.519 7  -2824132.16722        25.500           2.469
  19870509.100    -5298919.491 7  -4070121.38224        26.250           4.094
  22772001.912     3189022.509 6   2471920.31121        14.500           0.844
  22226530.490   -10204682.767 6  -7675558.28721        15.000           1.125
 91  7 27  1  8 44.9980000  0  4G 3G17G16G23
  19844520.232    -3794521.369 7  -2838799.32422        25.250           2.438
  19864745.217    -5329222.384 7  -4093734.01424        26.750           4.031
  22776754.865     3214022.628 6   2491400.88421        13.500           0.875
  22213376.967   -10273787.342 6  -7729405.92521        14.750           1.094
 91  7 27  1  8 59.9980000  0  4G 3G17G16G23
  19840953.193    -3813261.001 7  -2853401.63922        25.250           2.375
  19858990.522    -5359461.649 7  -4117297.07224        26.500           4.000
  22781524.639     3239069.406 6   2510917.81321        14.500           0.750
  22200237.850   -10342846.615 6  -7783218.26621        15.000           1.063
 91  7 27  1  9 14.9980000  0  4G 3G17G16G23
  19837402.217    -3831918.074 7  -2867939.61622        25.000           2.469
  19853247.795    -5389638.001 7  -4140811.10824        27.000           4.125
  22786299.365     3264161.626 6   2530470.16221        15.250           0.844
  22187106.068   -10411861.413 6  -7836995.96521        15.000           1.125
 91  7 27  1  9 29.9980000  0  4G 3G17G16G23
  19833869.178    -3850490.629 7  -2882411.74123        24.750           2.531
  19847518.818    -5419749.878 7  -4164274.90124        27.250           4.063
  22791083.326     3289300.729 6   2550059.05421        14.250           0.844
  22173976.303   -10480829.737 6  -7890737.44221        15.000           1.156
 91  7 27  1  9 44.9980000  0  4G 3G17G16G23
  19830350.732    -3868977.109 7  -2896816.78923        25.500           2.531
  19841800.881    -5449796.045 7  -4187687.49224        27.000           4.000
  22795875.873     3314487.523 6   2569685.07421        12.750           1.063
  22160859.779   -10549750.295 6  -7944441.69721        14.750           1.063
 91  7 27  1  9 59.9980000  0  4G 3G17G16G23
  19826850.053    -3887382.126 7  -2911158.36422        25.500           2.438
  19836092.686    -5479780.973 7  -4211052.36324        26.250           4.031
  22800679.912     3339717.344 6   2589344.60421        14.000           1.094
  22147753.342   -10618626.977 6  -7998111.76521        15.000           1.094
 91  7 27  1 10 14.9980000  0  4G 3G17G16G23
  19823362.584    -3905707.194 7  -2925437.63823        25.750           2.500
  19830397.482    -5509706.354 7  -4234370.83924        26.250           3.969
  22805488.662     3364987.963 6   2609035.97121        14.750           0.938
  22134657.678   -10687461.403 6  -8051748.91221        15.250           1.250
 91  7 27  1 10 29.9980000  0  4G 3G17G16G23
  19819890.389    -3923946.746 7  -2939650.27422        25.250           2.469
  19824715.561    -5539567.381 7  -4257639.16424        26.250           4.063
  22810306.037     3390304.031 6   2628762.74321        14.250           0.844
  22121569.350   -10756248.145 6  -8105348.90421        15.250           1.219
 91  7 27  1 10 44.9980000  0  4G 3G17G16G23
  19816438.193    -3942100.861 7  -2953796.34223        25.500           2.563
  19819046.459    -5569363.452 7  -4280856.87424        26.500           4.094
  22815133.061     3415665.722 6   2648525.03821        13.500           0.719
  22108486.248   -10824986.764 6  -8158911.39121        15.250           1.063
 91  7 27  1 10 59.9980000  0  4G 3G17G16G23
  19812998.451    -3960169.401 7  -2967875.72723        25.250           2.531
  19813389.436    -5599095.271 7  -4304024.52024        26.750           4.000
  22819962.951     3441072.296 6   2668322.33221        13.000           0.688
  22095412.490   -10893677.424 6  -8212436.50821        15.250           1.188
 91  7 27  1 11 14.9980000  0  4G 3G17G16G23
  19809576.303    -3978152.981 7  -2981888.90623        25.000           2.500
  19807741.881    -5628763.487 7  -4327142.59924        26.500           4.063
  22824809.998     3466522.850 6   2688153.91821        14.000           0.656
  22082352.842   -10962320.518 6  -8265924.56021        15.750           1.188
 91  7 27  1 11 29.9980000  0  4G 3G17G16G23
  19806170.053    -3996051.167 7  -2995835.54523        25.250           2.531
  19802111.787    -5658367.890 7  -4350210.96024        26.500           3.969
  22829660.225     3492017.296 6   2708019.69221        14.500           0.938
  22069301.615   -11030915.380 6  -8319375.03421        15.750           1.063
 91  7 27  1 11 44.9980000  0  4G 3G17G16G23
  19802780.350    -4013864.162 7  -3009715.80522        25.750           2.469
  19796488.162    -5687908.826 7  -4373229.85724        26.500           4.125
  22834520.811     3517555.092 6   2727919.21721        14.500           1.031
  22056254.881   -11099462.267 6  -8372788.12021        15.000           1.063
 91  7 27  1 11 59.9980000  0  4G 3G17G16G23
  19799407.795    -4031590.578 7  -3023528.59522        26.000           2.469
  19790878.029    -5717385.089 7  -4396198.36724        26.250           4.125
  22839386.482     3543136.896 6   2747853.04521        13.750           0.969
  22043221.248   -11167959.812 6  -8426162.75121        15.750           1.188
 91  7 27  1 12 14.9980000  0  4G 3G17G16G23
  19796050.904    -4049228.354 7  -3037272.32222        26.000           2.438
  19785281.373    -5746794.823 7  -4419115.03424        26.250           4.094
  22844263.404     3568764.813 6   2767822.81121        12.500           0.844
  22030196.850   -11236405.670 6  -8479497.11921        16.000           1.125
 91  7 27  1 12 29.9980000  0  4G 3G17G16G23
  19792713.232    -4066773.703 7  -3050944.03722        25.250           2.438
  19779699.420    -5776134.304 7  -4441976.96624        26.500           4.125
  22849151.381     3594441.870 6   2787830.85221        13.500           0.781
  22017179.272   -11304795.932 6  -8532788.17721        15.500           1.219
 91  7 27  1 12 44.9980000  0  4G 3G17G16G23
  19789390.272    -4084229.256 7  -3064545.77022        25.250           2.438
  19774131.662    -5805406.539 7  -4464786.50024        26.500           4.063
  22854045.865     3620164.725 6   2807874.60421        14.000           0.906
  22004177.436   -11373133.245 6  -8586037.95521        15.500           1.250
 91  7 27  1 12 59.9980000  0  4G 3G17G16G23
  19786084.131    -4101591.988 7  -3078075.17322        25.000           2.344
  19768571.240    -5834608.507 7  -4487541.27024        26.500           4.125
  22858948.615     3645935.882 6   2827956.00221        12.250           0.906
  21991185.272   -11441414.612 6  -8639244.14521        16.000           1.281
 91  7 27  1 13 14.9980000  0  4G 3G17G16G23
  19782798.787    -4118861.298 7  -3091531.78722        25.000           2.375
  19763027.397    -5863739.991 7  -4510241.12624        26.750           4.156
  22863864.654     3671755.665 6   2848075.24021        12.000           0.875
  21978200.123   -11509639.302 6  -8692406.17121        16.000           1.156
 91  7 27  1 13 29.9980000  0  4G 3G17G16G23
  19779532.709    -4136037.338 7  -3104915.72022        24.750           2.469
  19757500.201    -5892801.165 7  -4532886.19124        27.000           4.063
  22868783.186     3697623.602 6   2868232.02321        13.250           0.844
  21965229.857   -11577807.041 6  -8745523.82121        16.000           1.313
 91  7 27  1 13 44.9980000  0  4G 3G17G16G23
  19776282.678    -4153119.562 7  -3118226.55022        25.250           2.438
  19751981.475    -5921792.039 7  -4555476.47724        26.000           4.063
  22873717.162     3723539.363 6   2888426.09521        14.250           0.750
  21952268.990   -11645917.721 6  -8798597.01821        16.500           1.313
 91  7 27  1 13 59.9980000  0  4G 3G17G16G23
  19773046.865    -4170107.260 7  -3131463.71522        24.750           2.438
  19746477.436    -5950711.872 7  -4578011.40724        26.500           4.063
  22878657.248     3749503.515 6   2908657.88321        13.000           0.719
  21939314.600   -11713970.170 6  -8851624.83121        16.000           1.188
 91  7 27  1 14 14.9980000  0  4G 3G17G16G23
  19769834.787    -4187000.258 7  -3144627.10022        25.250           2.438
  19740989.920    -5979560.430 7  -4600490.79424        27.000           3.938
  22883604.553     3775516.014 5   2928927.32321        11.500           0.719
  21926376.545   -11781964.021 6  -8904606.99921        16.500           1.219
 91  7 27  1 14 29.9980000  0  4G 3G17G16G23
  19766641.201    -4203787.116 7  -3157707.76922        25.500           2.438
  19735515.772    -6008326.739 7  -4622906.09724        27.000           3.813
  22888569.209     3801587.747 6   2949242.89921        13.500           0.844
  21913451.553   -11849887.984 6  -8957534.69721        16.250           1.156
 91  7 27  1 14 44.9980000  0  4G 3G17G16G23
  19763464.037    -4220473.795 7  -3170710.38323        24.750           2.500
  19730056.725    -6037016.849 7  -4645262.02524        27.250           3.938
  22893543.498     3827712.024 6   2969599.45221        14.500           0.938
  21900540.975   -11917748.018 6  -9010412.58621        16.250           1.313
 91  7 27  1 14 59.9970000  0  4G 3G17G16G23
  19760305.134    -4237068.368 7  -3183641.22422        25.000           2.469
  19724608.962    -6065637.927 7  -4667564.15924        26.500           3.906
  22898519.962     3853877.635 6   2989988.20521        13.500           0.969
  21887635.595   -11985548.297 6  -9063243.91621        16.500           1.313
 91  7 27  1 15 14.9970000  0  4G 3G17G16G23
  19757165.540    -4253570.723 7  -3196500.21022        25.000           2.469
  19719177.712    -6094192.024 7  -4689814.09724        27.500           4.000
  22903506.813     3880089.833 6   3010413.22321        12.500           0.969
  21874744.876   -12053295.671 6  -9116034.02021        16.750           1.219
 91  7 27  1 15 29.9970000  0  4G 3G17G16G23
  19754043.235    -4269975.493 7  -3209283.15222        24.750           2.438
  19713755.384    -6122673.597 7  -4712007.52624        26.750           3.906
  22908503.767     3906350.406 6   3030875.94521        13.000           0.813
  21861869.360   -12120981.617 6  -9168776.25321        17.250           1.344
 91  7 27  1 15 44.9970000  0  4G 3G17G16G23
  19750939.696    -4286285.590 7  -3221992.32123        24.750           2.563
  19708350.415    -6151085.138 7  -4734146.38324        26.750           4.031
  22913513.087     3932656.070 6   3051373.84021        12.750           0.781
  21848995.368   -12188608.715 6  -9221472.63321        17.000           1.281
 91  7 27  1 15 59.9970000  0  4G 3G17G16G23
  19747854.438    -4302498.165 7  -3234625.49822        25.500           2.438
  19702957.556    -6179423.732 7  -4756228.40524        27.000           3.875
  22918521.985     3959009.851 5   3071909.22721        11.000           0.688
  21836140.978   -12256173.579 6  -9274120.52221        17.500           1.250
 91  7 27  1 16 14.9970000  0  4G 3G17G16G23
  19744788.493    -4318610.990 7  -3247180.95623        25.250           2.563
  19697577.212    -6207687.873 7  -4778252.40124        26.750           3.875
  22923549.423     3985412.829 6   3092482.91021        12.500           0.719
  21823295.329   -12323674.300 6  -9326718.43021        17.250           1.406
 91  7 27  1 16 29.9970000  0  4G 3G17G16G23
  19741740.298    -4334628.176 7  -3259661.87623        24.750           2.531
  19692212.228    -6235881.886 7  -4800221.75924        26.500           3.906
  22928585.087     4011860.595 6   3113091.54321        13.750           0.750
  21810464.048   -12391114.850 6  -9379269.45021        17.500           1.281
 91  7 27  1 16 44.9970000  0  4G 3G17G16G23
  19738711.532    -4350545.392 7  -3272064.90823        24.750           2.594
  19686861.063    -6264000.979 7  -4822132.73424        26.500           3.969
  22933625.993     4038357.654 6   3133738.56421        13.000           0.844
  21797638.079   -12458490.636 6  -9431770.00821        17.500           1.375
 91  7 27  1 16 59.9970000  0  4G 3G17G16G23
  19735701.563    -4366366.994 7  -3284393.43323        25.000           2.531
  19681523.517    -6292050.235 7  -4843989.29024        26.500           4.000
  22938675.157     4064898.577 5   3154419.75721        11.500           0.719
  21784829.978   -12525806.164 6  -9484223.60722        17.500           1.500
 91  7 27  1 17 14.9970000  0  4G 3G17G16G23
  19732710.626    -4382086.272 7  -3296642.22223        24.250           2.625
  19676203.470    -6320023.009 7  -4865786.25524        27.000           3.875
  22943737.345     4091489.765 5   3175140.11821        11.750           0.906
  21772032.790   -12593054.497 6  -9536624.84121        17.500           1.469
 91  7 27  1 17 29.9970000  0  4G 3G17G16G23
  19729734.978    -4397712.678 7  -3308818.64422        24.000           2.406
  19670893.556    -6347929.078 7  -4887531.23924        27.500           3.844
  22948805.017     4118120.974 6   3195891.63721        13.000           0.781
  21759249.806   -12660245.253 6  -9588981.22821        17.750           1.469
 91  7 27  1 17 44.9970000  0  4G 3G17G16G23
  19726780.556    -4413241.858 7  -3320919.31223        24.000           2.563
  19665594.212    -6375764.185 7  -4909220.92724        27.000           3.875
  22953880.103     4144796.067 6   3216677.39021        14.000           0.750
  21746474.353   -12727373.702 6  -9641289.05422        17.750           1.531
 91  7 27  1 17 59.9970000  0  4G 3G17G16G23
  19723844.876    -4428670.766 7  -3332941.83423        24.000           2.531
  19660313.118    -6403525.370 7  -4930853.01824        27.500           3.938
  22958968.712     4171518.292 6   3237499.88921        13.500           0.531
  21733704.173   -12794436.712 6  -9693545.88921        17.250           1.438
 91  7 27  1 18 14.9970000  0  4G 3G17G16G23
  19720927.829    -4443998.169 7  -3344885.27122        24.250           2.469
  19655045.142    -6431211.637 7  -4952426.72924        27.000           3.813
  22964059.907     4198287.954 6   3258359.31721        12.250           0.438
  21720963.501   -12861433.189 6  -9745750.87922        18.250           1.500
 91  7 27  1 18 29.9970000  0  4G 3G17G16G23
  19718031.907    -4459224.637 7  -3356750.05522        25.250           2.438
  19649789.759    -6458823.785 7  -4973942.68524        26.750           3.844
  22969162.517     4225104.016 5   3279254.93721        11.500           0.688
  21708222.423   -12928363.480 6  -9797904.30621        17.750           1.469
 91  7 27  1 18 44.9970000  0  4G 3G17G16G23
  19715151.907    -4474351.728 7  -3368537.40323        24.750           2.531
  19644547.915    -6486363.019 7  -4995401.82824        26.750           3.938
  22974273.087     4251964.860 5   3300185.41021        11.000           0.844
  21695501.782   -12995228.645 6  -9850006.98221        18.250           1.438
 91  7 27  1 18 59.9970000  0  4G 3G17G16G23
  19712293.142    -4489378.812 7  -3380246.82422        25.000           2.375
  19639320.626    -6513829.676 7  -5016804.41324        26.000           3.938
  22979397.821     4278870.146 6   3321150.49621        12.500           1.156
  21682787.610   -13062028.463 6  -9902058.74422        18.000           1.500
 91  7 27  1 19 14.9970000  0  4G 3G17G16G23
  19709454.149    -4504304.567 7  -3391877.29122        25.500           2.438
  19634110.415    -6541222.691 7  -5038149.61924        26.750           3.875
  22984523.923     4305820.829 6   3342150.97421        13.000           1.125
  21670091.188   -13128761.551 6  -9954058.49621        18.250           1.469
 91  7 27  1 19 29.9970000  0  4G 3G17G16G23
  19706631.751    -4519125.712 7  -3403426.24422        24.750           2.438
  19628909.118    -6568537.985 7  -5059434.25624        26.000           3.969
  22989657.845     4332820.000 6   3363189.23521        12.750           0.938
  21657407.626   -13195424.189 6 -10006003.36922        18.750           1.563
 91  7 27  1 19 44.9970000  0  4G 3G17G16G23
  19703831.806    -4533845.766 7  -3414896.42322        25.250           2.469
  19623727.704    -6595779.857 7  -5080661.69124        26.500           4.031
  22994806.517     4359863.839 5   3384262.30721        11.750           0.844
  21644730.228   -13262020.046 6 -10057896.19022        18.000           1.500
 91  7 27  1 19 59.9970000  0  4G 3G17G16G23
  19701050.228    -4548465.601 7  -3426288.50023        25.500           2.500
  19618556.337    -6622949.580 7  -5101832.89524        26.500           3.906
  22999959.360     4386950.770 5   3405368.97121        10.000           0.594
  21632074.993   -13328549.841 6 -10109737.54222        18.000           1.531
 91  7 27  1 20 14.9970000  0  4G 3G17G16G23
  19698286.673    -4562976.784 7  -3437595.92423        25.000           2.531
  19613403.048    -6650038.787 7  -5122941.36624        26.250           4.063
  23005126.845     4414088.905 5   3426515.49721        10.000           0.813
  21619426.157   -13395005.098 6 -10161520.80122        18.500           1.531
 91  7 27  1 20 29.9970000  0  4G 3G17G16G23
  19695545.110    -4577384.190 7  -3448822.47722        24.250           2.469
  19608262.790    -6677052.425 7  -5143990.95224        26.750           4.063
  23010299.915     4441273.074 6   3447697.91321        12.000           0.688
  21606794.829   -13461390.453 6 -10213249.60622        18.750           1.594
 91  7 27  1 20 44.9970000  0  4G 3G17G16G23
  19692825.571    -4591682.422 7  -3459963.96622        24.750           2.469
  19603134.282    -6703985.318 7  -5164977.61624        25.500           3.906
  23015481.759     4468508.065 6   3468919.94221        13.250           0.781
  21594178.720   -13527700.570 6 -10264919.76722        19.250           1.688
 91  7 27  1 20 59.9970000  0  4G 3G17G16G23
  19690124.931    -4605873.279 7  -3471021.78423        24.500           2.531
  19598024.095    -6730839.217 7  -5185902.73224        26.000           3.938
  23020675.548     4495791.635 6   3490179.81521        13.500           0.688
  21581570.884   -13593937.135 6 -10316532.62722        18.750           1.563
 91  7 27  1 21 14.9970000  0  4G 3G17G16G23
  19687444.313    -4619958.872 7  -3481997.57123        24.500           2.500
  19592929.243    -6757616.663 7  -5206768.26824        26.000           3.938
  23025872.446     4523120.949 6   3511475.34621        13.250           0.563
  21568978.626   -13660102.033 6 -10368089.64422        18.000           1.781
 91  7 27  1 21 29.9970000  0  4G 3G17G16G23
  19684783.829    -4633941.355 7  -3492893.01123        24.750           2.563
  19587846.524    -6784319.844 7  -5227575.93824        26.000           4.031
  23031082.212     4550493.637 6   3532804.67821        13.250           0.656
  21556399.603   -13726197.411 6 -10419592.48422        17.750           1.656
 91  7 27  1 21 44.9970000  0  4G 3G17G16G23
  19682141.392    -4647818.319 7  -3503706.23523        24.250           2.563
  19582779.829    -6810946.600 7  -5248324.05224        26.500           4.031
  23036297.970     4577911.582 6   3554169.27721        12.500           0.656
  21543835.313   -13792220.845 6 -10471039.26022        18.000           1.500
 91  7 27  1 21 59.9970000  0  4G 3G17G16G23
  19679524.228    -4661586.588 7  -3514434.75923        25.000           2.656
  19577728.384    -6837493.937 7  -5269010.28824        26.250           3.969
  23041524.321     4605377.602 5   3575571.33121        11.750           0.719
  21531286.290   -13858169.011 6 -10522427.39222        18.000           1.719
 91  7 27  1 22 14.9970000  0  4G 3G17G16G23
  19676923.603    -4675246.326 7  -3525078.71723        24.750           2.688
  19572693.876    -6863961.980 7  -5289634.73624        26.500           3.938
  23046762.899     4632891.209 5   3597010.44321        11.250           0.625
  21518756.079   -13924041.849 6 -10573756.82622        19.250           1.625
 91  7 27  1 22 29.9970000  0  4G 3G17G16G23
  19674342.454    -4688804.559 7  -3535643.57823        24.500           2.625
  19567669.767    -6890358.115 7  -5310203.14424        26.750           3.938
  23052003.165     4660444.956 5   3618480.84421        10.250           0.781
  21506229.220   -13989846.254 6 -10625032.93722        18.750           1.781
 91  7 27  1 22 44.9970000  0  4G 3G17G16G23
  19671784.618    -4702257.394 7  -3546126.31123        24.750           2.656
  19562662.134    -6916678.610 7  -5330712.61824        26.500           3.938
  23057259.032     4688041.992 5   3639984.96521        10.750           0.719
  21493724.610   -14055578.481 6 -10676252.80522        19.250           1.719
 91  7 27  1 22 59.9970000  0  4G 3G17G16G23
  19669243.634    -4715598.403 7  -3556521.90723        24.750           2.500
  19557669.337    -6942917.062 7  -5351158.16324        26.500           4.031
  23062518.837     4715688.771 5   3661527.84221        11.250           0.531
  21481233.228   -14121231.765 6 -10727411.16022        19.000           1.594
 91  7 27  1 23 14.9970000  0  4G 3G17G16G23
  19666727.415    -4728836.031 7  -3566836.95123        25.000           2.531
  19552687.993    -6969082.379 7  -5371546.71724        25.750           4.125
  23067787.806     4743376.191 6   3683102.41221        12.250           0.656
  21468748.681   -14186814.444 6 -10778514.50022        19.000           1.563
 91  7 27  1 23 29.9970000  0  4G 3G17G16G23
  19664227.259    -4741963.301 7  -3577065.99922        24.750           2.438
  19547724.251    -6995167.766 7  -5391872.99124        26.000           4.094
  23073061.962     4771110.598 6   3704713.60421        12.750           0.594
  21456281.118   -14252319.696 6 -10829557.50522        18.250           1.656
 91  7 27  1 23 44.9970000  0  4G 3G17G16G23
  19661750.032    -4754983.308 7  -3587211.47323        25.000           2.563
  19542775.267    -7021176.126 7  -5412139.23724        26.250           4.125
  23078348.587     4798888.863 6   3726358.95821        12.000           0.469
  21443834.126   -14317750.246 6 -10880542.29822        18.750           1.656
 91  7 27  1 23 59.9970000  0  4G 3G17G16G23
  19659294.087    -4767895.282 7  -3597272.75223        24.750           2.500
  19537841.438    -7047107.224 7  -5432345.28724        26.750           4.063
  23083645.563     4826710.763 5   3748038.32721        11.500           0.406
  21431397.657   -14383105.650 6 -10931468.54322        19.000           1.688
 91  7 27  1 24 14.9970000  0  4G 3G17G16G23
  19656856.235    -4780703.170 7  -3607252.93322        24.250           2.375
  19532922.829    -7072965.007 7  -5452494.20424        26.750           4.063
  23088950.267     4854572.299 5   3769748.56721        11.500           0.594
  21418974.790   -14448389.527 6 -10982339.03922        18.750           1.688
 91  7 27  1 24 29.9970000  0  4G 3G17G16G23
  19654439.829    -4793403.498 7  -3617149.29923        24.500           2.563
  19528015.368    -7098746.260 7  -5472583.49424        26.500           4.125
  23094261.892     4882476.633 6   3791492.14421        12.000           0.594
  21406569.345   -14513598.338 6 -11033151.05622        19.500           1.625
 91  7 27  1 24 44.9970000  0  4G 3G17G16G23
  19652044.149    -4805992.573 7  -3626958.96923        24.250           2.500
  19523122.767    -7124447.200 7  -5492610.18924        26.250           4.031
  23099575.665     4910426.801 6   3813271.44121        12.250           0.500
  21394173.220   -14578728.036 6 -11083901.41822        19.250           1.656
 91  7 27  1 24 59.9970000  0  4G 3G17G16G23
  19649665.845    -4818470.966 7  -3636682.40523        23.750           2.500
  19518250.532    -7150068.485 7  -5512574.83224        26.750           4.125
  23104904.188     4938422.154 5   3835085.96821        11.250           0.438
  21381792.759   -14643779.016 6 -11134590.45222        19.000           1.688
 91  7 27  1 25 14.9970000  0  4G 3G17G16G23
  19647313.876    -4830842.890 7  -3646322.87322        24.500           2.406
  19513390.470    -7175614.739 7  -5532480.99924        27.250           4.125
  23110242.079     4966457.813 5   3856931.87921        10.500           0.438
  21369425.524   -14708755.833 6 -11185221.69622        18.750           1.688
 91  7 27  1 25 29.9970000  0  4G 3G17G16G23
  19644982.517    -4843105.031 7  -3655877.79122        25.000           2.438
  19508542.579    -7201082.743 7  -5552326.19324        27.000           4.031
  23115580.524     4994536.813 5   3878811.56121        10.250           0.500
  21357080.337   -14773654.904 6 -11235792.35122        19.500           1.688
 91  7 27  1 25 44.9970000  0  4G 3G17G16G23
  19642669.165    -4855256.671 7  -3665346.61722        24.500           2.469
  19503710.587    -7226472.245 7  -5572110.22024        27.250           4.156
  23120933.290     5022659.048 5   3900724.93621        10.500           0.406
  21344743.298   -14838475.428 6 -11286301.80822        19.500           1.688
 91  7 27  1 25 59.9970000  0  4G 3G17G16G23
  19640376.267    -4867293.947 7  -3674726.32022        24.500           2.469
  19498893.196    -7251779.361 7  -5591830.04924        26.750           4.125
  23126292.134     5050828.142 5   3922674.83421        10.500           0.438
  21332425.688   -14903213.464 6 -11336746.98822        19.750           1.719
 91  7 27  1 26 14.9970000  0  4G 3G17G16G23
  19638109.595    -4879215.422 7  -3684015.78922        24.500           2.469
  19494094.056    -7277002.772 7  -5611484.65324        26.750           4.063
  23131664.071     5079045.024 5   3944661.96721        10.250           0.438
  21320121.142   -14967867.363 6 -11387126.59822        19.750           1.750
 91  7 27  1 26 29.9970000  0  4G 3G17G16G23
  19635862.603    -4891017.069 7  -3693211.88523        24.000           2.594
  19489310.048    -7302138.361 7  -5631070.81924        26.500           4.156
  23137044.157     5107313.456 5   3966689.24821        11.250           0.531
  21307835.501   -15032433.037 7 -11437437.47122        20.250           1.719
 91  7 27  1 26 44.9970000  0  4G 3G17G16G23
  19633639.188    -4902704.593 7  -3702319.06123        23.750           2.594
  19484545.165    -7327192.142 7  -5650593.25224        26.750           4.125
  23142433.251     5135627.269 6   3988751.91921        12.000           0.469
  21295564.681   -15096916.204 7 -11487684.05222        20.000           1.750
 91  7 27  1 26 59.9970000  0  4G 3G17G16G23
  19631437.603    -4914284.396 7  -3711342.29123        24.500           2.625
  19479788.056    -7352170.734 7  -5670057.08124        26.000           4.125
  23147825.407     5163979.814 5   4010844.77021        11.500           0.344
  21283308.603   -15161323.083 6 -11537871.18422        19.750           1.781
 91  7 27  1 27 14.9970000  0  4G 3G17G16G23
  19629252.485    -4925759.157 7  -3720283.67423        24.000           2.563
  19475050.954    -7377077.135 7  -5689464.66724        27.000           4.063
  23153224.759     5192367.966 5   4032965.37621        10.750           0.469
  21271066.337   -15225656.405 7 -11588000.99722        20.000           1.719
 91  7 27  1 27 29.9970000  0  4G 3G17G16G23
  19627087.899    -4937124.642 7  -3729139.90323        23.250           2.594
  19470325.024    -7401906.931 7  -5708812.56024        27.250           4.063
  23158633.337     5220795.272 5   4055116.48021         9.750           0.531
  21258837.056   -15289911.615 6 -11638069.95322        19.750           1.875
 91  7 27  1 27 44.9970000  0  4G 3G17G16G23
  19624950.243    -4948375.986 7  -3737907.19222        24.750           2.469
  19465616.970    -7426655.670 7  -5728097.28924        27.000           4.094
  23164054.681     5249266.389 5   4077301.70621         9.500           0.625
  21246623.946   -15354083.681 6 -11688074.11122        19.500           1.750
 91  7 27  1 27 59.9970000  0  4G 3G17G16G23
  19622831.181    -4959512.747 7  -3746585.19423        24.750           2.500
  19460922.306    -7451323.023 7  -5747318.60224        26.750           4.156
  23169480.188     5277781.179 5   4099520.93921        10.750           0.563
  21234430.056   -15418172.275 6 -11738013.24022        19.500           1.813
 91  7 27  1 28 14.9970000  0  4G 3G17G16G23
  19620732.274    -4970534.565 7  -3755173.63323        24.250           2.500
  19456244.103    -7475908.709 7  -5766476.27924        26.750           4.000
  23174915.134     5306339.826 5   4121774.39821        11.500           0.594
  21222247.079   -15482176.931 6 -11787886.94722        19.000           1.844
 91  7 27  1 28 29.9970000  0  4G 3G17G16G23
  19618656.821    -4981444.978 7  -3763675.26522        25.000           2.344
  19451579.485    -7500416.941 7  -5785573.60024        26.000           4.188
  23180359.376     5334937.986 5   4144058.66421        11.000           0.531
  21210086.220   -15546101.240 6 -11837698.05022        19.500           1.875
 91  7 27  1 28 44.9970000  0  4G 3G17G16G23
  19616601.954    -4992247.040 7  -3772092.46922        25.250           2.469
  19446932.704    -7524850.356 7  -5804612.62724        26.750           4.063
  23185808.907     5363572.789 5   4166371.43221         8.750           0.406
  21197936.517   -15609947.865 6 -11887448.62922        19.250           1.781
 91  7 27  1 28 59.9970000  0  4G 3G17G16G23
  19614565.235    -5002937.399 7  -3780422.62922        24.750           2.406
  19442295.353    -7549205.940 7  -5823591.00524        26.500           4.188
  23191266.946     5392246.947 5   4188714.87421         9.000           0.656
  21185801.188   -15673713.616 6 -11937136.17422        19.250           1.906
 91  7 27  1 29 14.9970000  0  4G 3G17G16G23
  19612554.657    -5013510.179 7  -3788661.17522        25.250           2.375
  19437676.321    -7573477.796 7  -5842504.14024        26.250           4.125
  23196730.267     5420966.082 5   4211093.34021         9.250           0.531
  21173686.048   -15737392.268 6 -11986755.86322        19.250           2.031
 91  7 27  1 29 29.9970000  0  4G 3G17G16G23
  19610568.657    -5023945.842 7  -3796792.87022        25.750           2.344
  19433074.610    -7597646.641 7  -5861337.00524        25.500           4.031
  23202203.204     5449749.142 5   4233521.63521         9.500           0.406
  21161584.642   -15800964.131 6 -12036292.32522        18.750           2.000
 91  7 27  1 29 44.9970000  0  4G 3G17G16G23
  19608605.485    -5034265.118 7  -3804833.86822        25.000           2.469
  19428494.728    -7621733.475 7  -5880105.96824        26.500           4.094
  23207687.696     5478574.885 5   4255983.19621         9.750           0.469
  21149505.454   -15864449.897 6 -12085761.71022        19.250           1.906
 91  7 27  1 29 59.9970000  0  4G 3G17G16G23
  19606664.329    -5044469.168 7  -3812785.09222        25.000           2.375
  19423923.728    -7645739.459 7  -5898811.92524        25.750           4.094
  23213183.579     5507441.701 5   4278476.77721         9.750           0.438
  21137440.556   -15927850.632 6 -12135164.83222        19.000           2.000
 91  7 27  1 30 14.9970000  0  4G 3G17G16G23
  19604742.673    -5054557.037 7  -3820645.77722        25.000           2.406
  19419374.954    -7669663.996 7  -5917454.42424        26.500           3.969
  23218689.954     5536349.910 5   4301002.61221         9.500           0.469
  21125389.235   -15991165.527 6 -12184501.07222        19.000           2.063
 91  7 27  1 30 29.9970000  0  4G 3G17G16G23
  19602844.446    -5064533.315 7  -3828419.51122        24.750           2.438
  19414836.251    -7693511.623 7  -5936036.99224        26.500           4.000
  23224195.618     5565295.077 5   4323557.23121         9.000           0.406
  21113362.149   -16054398.800 6 -12233773.70622        19.750           2.063
 91  7 27  1 30 44.9970000  0  4G 3G17G16G23
  19600967.853    -5074390.774 7  -3836100.65622        24.500           2.406
  19410313.313    -7717275.116 7  -5954554.00124        26.250           4.000
  23229710.915     5594283.983 5   4346145.92521         9.000           0.438
  21101346.970   -16117543.087 6 -12282976.99422        19.750           2.000
 91  7 27  1 30 59.9970000  0  4G 3G17G16G23
  19599116.220    -5084130.857 7  -3843690.34222        25.000           2.375
  19405807.399    -7740956.575 7  -5973007.08624        26.250           4.000
  23235234.712     5623314.462 5   4368767.02821        10.000           0.469
  21089340.376   -16180599.917 6 -12332112.14022        18.750           2.000
 91  7 27  1 31 14.9970000  0  4G 3G17G16G23
  19597284.876    -5093756.109 7  -3851190.54822        25.000           2.375
  19401317.384    -7764558.359 7  -5991398.09124        26.250           3.906
  23240766.618     5652383.823 5   4391418.44821        10.250           0.406
  21077360.751   -16243571.562 6 -12381180.91522        19.250           2.188
 91  7 27  1 31 29.9970000  0  4G 3G17G16G23
  19595474.782    -5103266.016 7  -3858600.87623        25.250           2.500
  19396840.040    -7788080.167 7  -6009726.76624        26.000           3.844
  23246307.056     5681492.019 5   4414100.11221         9.500           0.438
  21065399.001   -16306457.523 7 -12430182.91122        20.000           2.031
 91  7 27  1 31 44.9970000  0  4G 3G17G16G23
  19593687.774    -5112659.871 7  -3865920.77523        25.500           2.500
  19392377.649    -7811520.993 7  -6027992.34824        25.750           4.031
  23251852.329     5710639.585 5   4436812.45021         8.500           0.531
  21053443.649   -16369256.730 6 -12479117.31222        19.500           2.063
 91  7 27  1 31 59.9970000  0  4G 3G17G16G23
  19591921.251    -5121937.773 7  -3873150.32322        25.000           2.438
  19387934.509    -7834881.815 7  -6046195.58324        26.250           4.125
  23257403.587     5739825.685 5   4459554.80321         7.750           0.563
  21041509.767   -16431969.714 6 -12527984.53022        19.500           2.156
 91  7 27  1 32 14.9970000  0  4G 3G17G16G23
  19590179.259    -5131096.646 7  -3880287.11922        25.250           2.406
  19383501.907    -7858159.181 7  -6064333.78724        25.250           4.063
  23262971.556     5769053.441 5   4482329.61121         8.500           0.594
  21029589.868   -16494592.923 6 -12576781.78622        19.750           2.094
 91  7 27  1 32 29.9970000  0  4G 3G17G16G23
  19588459.774    -5140133.421 7  -3887328.77423        25.250           2.500
  19379091.329    -7881350.341 7  -6082404.82324        26.000           4.063
  23268539.509     5798325.233 5   4505138.73521         8.000           0.563
  21017692.306   -16557123.336 6 -12625506.73022        19.500           2.063
 91  7 27  1 32 44.9970000  0  4G 3G17G16G23
  19586762.368    -5149052.076 7  -3894278.38422        25.500           2.469
  19374692.962    -7904459.426 7  -6100411.89524        25.500           4.000
  23274116.392     5827636.386 5   4527978.54921         8.250           0.563
  21005806.165   -16619564.808 6 -12674162.38422        19.500           2.250
 91  7 27  1 32 59.9970000  0  4G 3G17G16G23
  19585088.759    -5157851.712 7  -3901135.25923        25.500           2.531
  19370310.860    -7927485.705 7  -6118354.45224        25.250           4.000
  23279701.212     5856987.988 5   4550849.84721         7.750           0.563
  20993947.626   -16681916.298 7 -12722747.91422        20.250           2.250
 91  7 27  1 33 14.9970000  0  3G 3G17G23
  19583434.478    -5166533.650 7  -3907900.41622        25.000           2.438
  19365945.962    -7950430.833 7  -6136233.77024        25.750           4.094
  20982095.938   -16744178.983 7 -12771264.24422        20.500           2.313
 91  7 27  1 33 29.9960000  0  3G 3G17G23
  19581805.410    -5175097.707 7  -3914573.72022        24.750           2.375
  19361593.277    -7973293.860 7  -6154049.10924        25.750           4.063
  20970266.098   -16806349.058 7 -12819708.41622        20.250           2.313
 91  7 27  1 33 44.9960000  0  3G 3G17G23
  19580198.199    -5183542.835 7  -3921154.34822        24.750           2.344
  19357258.223    -7996075.152 7  -6171800.76724        25.750           3.906
  20958452.871   -16868432.392 7 -12868084.99022        20.750           2.313
 91  7 27  1 33 59.9960000  0  3G 3G17G23
  19578614.684    -5191873.058 7  -3927645.43822        25.250           2.375
  19352939.410    -8018778.287 7  -6189491.51124        26.000           4.031
  20946657.231   -16930429.577 7 -12916394.44822        20.500           2.188
 91  7 27  1 34 14.9960000  0  3G 3G17G23
  19577051.246    -5200085.764 7  -3934044.95922        25.000           2.344
  19348633.590    -8041400.902 7  -6207119.51724        26.000           4.063
  20934874.887   -16992337.632 7 -12964634.44822        20.250           2.281
 91  7 27  1 34 29.9960000  0  3G 3G17G23
  19575507.895    -5208184.850 7  -3940355.95122        24.250           2.406
  19344344.973    -8063946.961 7  -6224687.87924        26.750           4.031
  20923107.223   -17054160.559 7 -13012808.11322        20.500           2.219
 91  7 27  1 34 44.9960000  0  3G 3G17G23
  19573991.051    -5216164.707 7  -3946574.03222        25.000           2.375
  19340068.020    -8086411.290 7  -6242192.54424        26.250           3.938
  20911363.871   -17115892.595 7 -13060910.96222        20.000           2.156
 91  7 27  1 34 59.9960000  0  3G 3G17G23
  19572496.043    -5224022.405 7  -3952696.93422        24.750           2.344
  19335809.645    -8108790.625 7  -6259630.98924        26.000           3.969
  20899631.637   -17177530.605 7 -13108940.53422        20.750           2.281
 91  7 27  1 35 14.9960000  0  3G 3G17G23
  19571024.496    -5231757.789 7  -3958724.50722        25.250           2.344
  19331567.762    -8131085.025 7  -6277003.25224        26.500           3.844
  20887920.793   -17239074.413 7 -13156896.71022        20.500           2.250
 91  7 27  1 35 29.9960000  0  3G 3G17G23
  19569575.285    -5239374.818 7  -3964659.86922        26.000           2.438
  19327339.520    -8153298.466 7  -6294312.41924        26.000           3.938
  20876225.402   -17300527.708 7 -13204782.35722        20.500           2.250
 91  7 27  1 35 44.9960000  0  3G 3G17G23
  19568148.332    -5246866.635 7  -3970497.66122        25.750           2.469
  19323130.176    -8175424.584 7  -6311553.55624        26.500           4.000
  20864552.731   -17361883.674 7 -13252592.15922        20.750           2.250
 91  7 27  1 35 59.9960000  0  3G 3G17G23
  19566747.371    -5254236.961 7  -3976240.78122        25.750           2.438
  19318934.551    -8197466.733 7  -6328729.25524        26.250           3.875
  20852894.863   -17423145.972 7 -13300328.97722        21.000           2.375
 91  7 27  1 36 14.9960000  0  3G 3G17G23
  19565366.660    -5261486.868 7  -3981890.07223        25.250           2.500
  19314756.910    -8219426.484 7  -6345840.74524        26.500           4.000
  20841254.449   -17484315.417 7 -13347993.44522        21.000           2.281
 91  7 27  1 36 29.9960000  0  3G 3G17G23
  19564012.098    -5268614.943 7  -3987444.42722        25.750           2.375
  19310593.340    -8241302.609 7  -6362887.07424        26.250           3.906
  20829629.957   -17545390.680 7 -13395584.51622        20.750           2.313
 91  7 27  1 36 44.9960000  0  3G 3G17G23
  19562675.527    -5275624.784 7  -3992906.65622        24.250           2.375
  19306447.684    -8263098.758 7  -6379871.08524        26.500           3.875
  20818027.176   -17606375.131 7 -13443104.83222        21.500           2.344
 91  7 27  1 36 59.9960000  0  3G 3G17G23
  19561363.066    -5282516.450 7  -3998276.79522        24.000           2.406
  19302314.543    -8284815.226 7  -6396793.01124        27.000           3.875
  20806439.348   -17667268.787 7 -13490554.39622        21.250           2.438
 91  7 27  1 37 14.9960000  0  3G 3G17G23
  19560075.191    -5289284.783 7  -4003550.83422        23.500           2.375
  19298199.629    -8306446.821 7  -6413648.79624        26.500           3.781
  20794871.410   -17728066.384 7 -13537929.10822        22.000           2.344
 91  7 27  1 37 29.9960000  0  3G 3G17G23
  19558810.645    -5295934.103 7  -4008732.13122        24.000           2.469
  19294097.137    -8327997.808 7  -6430441.77224        26.750           3.813
  20783317.098   -17788771.835 7 -13585232.01822        21.500           2.438
 91  7 27  1 37 44.9960000  0  3G 3G17G23
  19557566.324    -5302460.901 7  -4013817.95622        23.250           2.344
  19290010.527    -8349465.060 7  -6447169.49624        26.750           3.781
  20771785.473   -17849381.973 7 -13632460.66022        22.000           2.281
 91  7 27  1 37 59.9960000  0  3G 3G17G23
  19556350.613    -5308867.325 7  -4018809.98622        25.000           2.375
  19285940.926    -8370850.877 7  -6463833.76224        26.500           3.875
  20760265.965   -17909898.627 7 -13679616.46323        21.000           2.500
 91  7 27  1 38 14.9960000  0  3G 3G17G23
  19555155.340    -5315152.071 7  -4023707.20022        24.750           2.281
  19281890.027    -8392154.011 7  -6480433.60724        27.000           3.781
  20748771.535   -17970320.355 7 -13726698.28723        21.000           2.625
 91  7 27  1 38 29.9960000  0  3G 3G17G23
  19553980.637    -5321316.441 7  -4028510.62422        24.250           2.188
  19277850.777    -8413375.921 7  -6496970.15524        26.500           3.844
  20737290.715   -18030648.560 7 -13773707.24123        21.250           2.500
 91  7 27  1 38 44.9960000  0  3G 3G17G23
  19552829.012    -5327358.315 7  -4033218.58222        23.750           2.281
  19273827.770    -8434514.567 7  -6513441.82824        26.750           3.844
  20725829.473   -18090880.840 7 -13820641.44923        21.750           2.531
 91  7 27  1 38 59.9960000  0  3G 3G17G23
  19551705.902    -5333276.169 7  -4037829.91122        24.500           2.156
  19269819.113    -8455568.542 7  -6529847.51224        26.000           3.875
  20714387.020   -18151015.528 7 -13867499.61322        21.750           2.469
 91  7 27  1 39 14.9960000  0  3G 3G17G23
  19550604.332    -5339070.697 7  -4042345.14722        24.750           2.281
  19265829.262    -8476538.764 7  -6546187.95024        26.000           3.750
  20702959.481   -18211053.277 7 -13914282.23423        21.500           2.500
 91  7 27  1 39 29.9960000  0  3G 3G17G23
  19549523.254    -5344744.176 7  -4046766.05222        24.750           2.250
  19261853.207    -8497427.639 7  -6562464.99124        25.750           3.781
  20691552.137   -18270996.246 7 -13960991.00723        21.250           2.594
 91  7 27  1 39 44.9960000  0  3G 3G17G23
  19548466.191    -5350298.280 7  -4051093.93622        24.750           2.313
  19257893.379    -8518236.844 7  -6578679.95024        26.000           3.750
  20680163.074   -18330845.905 7 -14007627.07023        21.250           2.563
 91  7 27  1 39 59.9960000  0  3G 3G17G23
  19547431.496    -5355731.877 7  -4055327.92622        24.250           2.281
  19253952.840    -8538965.417 7  -6594832.08424        26.500           3.781
  20668794.902   -18390601.297 7 -14054189.67723        22.000           2.531
 91  7 27  1 40 14.9960000  0  3G 3G17G23
  19546420.520    -5361042.203 7  -4059465.85922        24.500           2.281
  19250023.363    -8559610.683 7  -6610919.30224        26.500           3.844
  20657442.668   -18450259.533 7 -14100676.58323        22.000           2.594
 91  7 27  1 40 29.9960000  0  3G 3G17G23
  19545434.520    -5366228.385 7  -4063507.04922        24.750           2.375
  19246109.996    -8580172.046 7  -6626941.14424        26.500           3.906
  20646105.574   -18509819.517 7 -14147086.92523        21.500           2.750
 91  7 27  1 40 44.9960000  0  3G 3G17G23
  19544471.754    -5371290.425 7  -4067451.51622        24.500           2.250
  19242212.957    -8600649.610 7  -6642897.68224        26.250           3.781
  20634793.152   -18569281.072 7 -14193420.57223        21.500           2.750
 91  7 27  1 40 59.9960000  0  3G 3G17G23
  19543531.316    -5376228.216 7  -4071299.15822        24.500           2.313
  19238333.871    -8621043.157 7  -6658788.75824        26.250           3.875
  20623497.418   -18628643.976 7 -14239677.34023        21.750           2.719
 91  7 27  1 41 14.9960000  0  3G 3G17G23
  19542616.793    -5381043.943 7  -4075051.68222        24.750           2.344
  19234469.043    -8641354.685 7  -6674615.92024        26.500           3.844
  20612214.973   -18687910.057 7 -14285858.67123        21.250           2.688
 91  7 27  1 41 29.9960000  0  3G 3G17G23
  19541724.027    -5385736.143 7  -4078707.95822        24.500           2.344
  19230617.043    -8661583.522 7  -6690378.65224        26.500           3.969
  20600957.988   -18747078.195 7 -14331963.68023        22.000           2.781
 91  7 27  1 41 44.9960000  0  3G 3G17G23
  19540853.465    -5390311.329 7  -4082273.04822        24.500           2.281
  19226782.941    -8681735.844 7  -6706081.75624        26.500           3.969
  20589714.004   -18806154.591 7 -14377997.20423        21.750           2.781
 91  7 27  1 41 59.9960000  0  3G 3G17G23
  19540005.121    -5394764.759 7  -4085743.27122        24.500           2.188
  19222961.098    -8701807.160 7  -6721721.74024        25.500           4.000
  20578494.199   -18865134.548 7 -14423955.58423        22.750           2.813
 91  7 27  1 42 14.9960000  0  3G 3G17G23
  19539177.871    -5399095.769 7  -4089118.09622        24.000           2.250
  19219159.223    -8721796.833 7  -6737298.10724        26.000           3.969
  20567291.340   -18924016.975 7 -14469837.96023        22.750           2.906
 91  7 27  1 42 29.9960000  0  3G 3G17G23
  19538379.590    -5403304.820 7  -4092397.88922        23.750           2.219
  19215371.566    -8741705.498 7  -6752811.35024        26.000           4.000
  20556107.434   -18982802.428 7 -14515644.77923        23.000           2.875
 91  7 27  1 42 44.9960000  0  3G 3G17G23
  19537600.949    -5407391.105 7  -4095582.02322        24.250           2.219
  19211595.621    -8761532.587 7  -6768261.02324        25.750           4.000
  20544933.543   -19041489.867 7 -14561375.21723        22.500           2.813
 91  7 27  1 42 59.9960000  0  3G 3G17G23
  19536847.637    -5411357.814 7  -4098672.97322        24.250           2.188
  19207837.551    -8781281.123 7  -6783649.49324        26.250           4.000
  20533783.832   -19100082.479 7 -14607031.77523        22.000           2.844
 91  7 27  1 43 14.9960000  0  3G 3G17G23
  19536115.129    -5415203.618 7  -4101669.72322        24.500           2.250
  19204095.481    -8800950.110 7  -6798975.97624        25.750           3.938
  20522650.566   -19158578.759 7 -14652613.26223        21.750           2.906
 91  7 27  1 43 29.9960000  0  3G 3G17G23
  19535407.207    -5418925.271 7  -4104569.72422        24.000           2.188
  19200368.254    -8820536.421 7  -6814238.03424        26.000           4.000
  20511538.082   -19216975.480 7 -14698117.16823        21.750           2.906
 91  7 27  1 43 44.9960000  0  3G 3G17G23
  19534722.465    -5422524.436 7  -4107374.28122        24.000           2.219
  19196659.520    -8840041.839 7  -6829437.06124        26.750           3.938
  20500444.074   -19275274.056 7 -14743544.60323        21.500           2.750
 91  7 27  1 43 59.9960000  0  3G 3G17G23
  19534060.004    -5425997.828 7  -4110080.83422        24.250           2.063
  19192960.465    -8859463.120 7  -6844570.52724        26.250           3.969
  20489370.145   -19333471.209 7 -14788893.00723        22.250           2.844
 91  7 27  1 44 14.9960000  0  3G 3G17G23
  19533422.676    -5429349.655 7  -4112692.65422        24.750           2.188
  19189280.621    -8878804.553 7  -6859641.76624        25.750           3.906
  20478318.316   -19391571.053 7 -14834165.58523        22.500           2.781
 91  7 27  1 44 29.9960000  0  3G 3G17G23
  19532808.606    -5432577.658 7  -4115207.99322        24.250           2.156
  19185617.527    -8898064.149 7  -6874649.24724        26.250           3.969
  20467277.145   -19449571.017 7 -14879360.33323        22.500           2.781
 91  7 27  1 44 44.9960000  0  3G 3G17G23
  19532218.949    -5435685.376 7  -4117629.60622        24.750           2.188
  19181967.199    -8917245.270 7  -6889595.57724        25.750           3.969
  20456261.629   -19507474.514 7 -14924479.91723        22.250           2.813
 91  7 27  1 44 59.9960000  0  3G 3G17G23
  19531649.871    -5438668.859 7  -4119954.41622        24.250           2.156
  19178333.238    -8936344.196 7  -6904477.85324        26.000           3.969
  20445262.590   -19565277.785 7 -14969521.39623        22.500           2.844
 91  7 27  1 45 14.9960000  0  3G 3G17G23
  19531105.410    -5441527.920 7  -4122182.27622        24.500           2.219
  19174714.223    -8955360.841 7  -6919296.02324        25.750           3.906
  20434281.371   -19622980.307 7 -15014484.37123        22.500           2.813
 91  7 27  1 45 29.9960000  0  3G 3G17G23
  19530585.856    -5444262.224 7  -4124312.91522        24.250           2.156
  19171110.731    -8974295.072 7  -6934049.96424        25.750           3.938
  20423321.621   -19680581.869 7 -15059368.67623        22.750           2.844
 91  7 27  1 45 44.9960000  0  3G 3G17G23
  19530088.004    -5446872.529 7  -4126346.93222        24.250           2.188
  19167523.887    -8993147.587 7  -6948740.23824        26.000           3.938
  20412374.707   -19738082.858 7 -15104174.61323        22.250           2.781
 91  7 27  1 45 59.9960000  0  3G 3G17G23
  19529618.324    -5449363.309 7  -4128287.81722        25.250           2.031
  19163947.715    -9011923.061 7  -6963370.47924        25.250           3.969
  20401453.746   -19795487.768 7 -15148905.67923        22.500           2.781
 91  7 27  1 46 14.9960000  0  3G 3G17G23
  19529164.082    -5451733.061 7  -4130134.39222        25.000           2.094
  19160393.746    -9030620.060 7  -6977939.57224        26.000           3.969
  20390546.504   -19852794.868 7 -15193560.53023        22.000           2.813
 91  7 27  1 46 29.9960000  0  3G 3G17G23
  19528738.871    -5453978.665 7  -4131884.23422        24.500           2.063
  19156848.988    -9049235.332 7  -6992444.97624        26.000           3.969
  20379661.816   -19910001.031 7 -15238136.73023        22.250           2.719
 91  7 27  1 46 44.9960000  0  3G 3G17G23
  19528335.965    -5456100.620 7  -4133537.72222        24.750           2.125
  19153321.324    -9067769.588 7  -7006887.25324        26.000           3.969
  20368793.645   -19967106.513 7 -15282634.48023        22.000           2.781
 91  7 27  1 46 59.9960000  0  3G 3G17G23
  19527952.996    -5458097.103 7  -4135093.43322        23.750           2.094
  19149811.699    -9086221.056 7  -7021265.02124        26.250           4.000
  20357947.035   -20024109.296 7 -15327052.20323        22.000           2.750
 91  7 27  1 47 14.9960000  0  3G 3G17G23
  19527594.301    -5459972.453 7  -4136554.76522        23.000           2.219
  19146315.035    -9104594.309 7  -7035581.84024        26.500           4.031
  20347119.191   -20081013.849 7 -15371393.38123        22.750           2.781
 91  7 27  1 47 29.9960000  0  3G 3G17G23
  19527261.957    -5461725.622 7  -4137920.89122        23.500           2.156
  19142833.121    -9122888.489 7  -7049837.05424        26.500           4.031
  20336307.035   -20137819.081 7 -15415657.16923        22.250           2.844
 91  7 27  1 47 44.9960000  0  3G 3G17G23
  19526952.582    -5463355.659 7  -4139191.06422        23.500           2.188
  19139367.543    -9141102.581 7  -7064029.85124        26.500           4.000
  20325519.629   -20194523.642 7 -15459842.51223        22.750           2.875
 91  7 27  1 47 59.9960000  0  3G 3G17G23
  19526665.512    -5464859.993 7  -4140363.28422        24.000           2.188
  19135917.606    -9159234.160 7  -7078158.35224        26.250           4.094
  20314747.629   -20251124.978 7 -15503947.41923        22.750           2.844
 91  7 27  1 48 14.9960000  0  3G 3G17G23
  19526405.418    -5466242.280 7  -4141440.40322        24.500           2.188
  19132484.340    -9177287.001 7  -7092225.51024        26.500           4.000
  20303996.270   -20307626.747 7 -15547974.74523        22.500           2.844
 91  7 27  1 48 29.9960000  0  3G 3G17G23
  19526163.660    -5467505.713 7  -4142424.91422        24.500           2.188
  19129058.301    -9195264.173 7  -7106233.69624        25.500           3.938
  20293262.887   -20364031.746 7 -15591926.65923        22.750           2.875
 91  7 27  1 48 44.9960000  0  3G 3G17G23
  19525948.184    -5468644.209 7  -4143312.07422        23.750           2.313
  19125656.699    -9213159.927 7  -7120178.43924        26.250           4.156
  20282550.770   -20420333.994 7 -15635798.51223        23.500           2.844
 91  7 27  1 48 59.9960000  0  3G 3G17G23
  19525749.363    -5469663.002 7  -4144105.96222        23.500           2.188
  19122264.801    -9230979.317 7  -7134063.67724        26.500           4.063
  20271855.582   -20476538.327 7 -15679594.06823        23.500           2.844
 91  7 27  1 49 14.9960000  0  3G 3G17G23
  19525582.387    -5470562.927 7  -4144807.21822        24.750           2.313
  19118886.277    -9248723.413 7  -7147890.24824        26.000           4.000
  20261174.910   -20532645.779 7 -15723314.13223        23.000           2.969
 91  7 27  1 49 29.9960000  0  3G 3G17G23
  19525431.699    -5471349.264 7  -4145419.96522        24.250           2.188
  19115526.543    -9266397.622 7  -7161662.36224        26.500           4.125
  20250517.324   -20588661.417 7 -15766962.65323        23.250           2.969
 91  7 27  1 49 44.9960000  0  3G 3G17G23
  19525303.621    -5472019.404 7  -4145942.16722        24.250           2.219
  19112174.926    -9283999.529 7  -7175378.13324        26.000           4.031
  20239877.066   -20644582.641 7 -15810537.60123        23.500           3.031
 91  7 27  1 49 59.9960000  0  3G 3G17G23
  19525197.246    -5472584.742 7  -4146382.71322        25.250           2.219
  19108839.637    -9301540.467 7  -7189046.39524        25.750           4.063
  20229248.691   -20700420.511 7 -15854047.60323        23.500           3.000
 91  7 27  1 50 14.9960000  0  3G 3G17G23
  19525112.426    -5473025.411 7  -4146726.10622        24.750           2.250
  19105513.801    -9319000.588 7  -7202651.68624        25.250           4.063
  20218641.137   -20756155.053 7 -15897477.08723        23.500           3.000
 91  7 27  1 50 29.9960000  0  3G 3G17G23
  19525052.051    -5473344.241 7  -4146974.55422        24.750           2.063
  19102207.434    -9336382.706 7  -7216196.20124        25.500           4.000
  20208056.488   -20811788.987 7 -15940828.17823        23.750           3.000
 91  7 27  1 50 44.9960000  0  3G 3G17G23
  19525011.738    -5473537.998 7                        23.250
  19098916.387    -9353683.727 7  -7229677.51224        25.750           4.125
  20197493.645   -20867319.168 7 -15984098.42123        24.500           3.000
 91  7 27  1 50 59.9960000  0  3G 3G17G23
  19525000.152    -5473610.256 7                        23.750
  19095638.277    -9370907.409 7  -7243098.57324        25.750           4.063
  20186942.465   -20922748.941 7 -16027290.42023        23.750           3.031
 91  7 27  1 51 14.9960000  0  3G 3G17G23
  19525010.777    -5473560.133 7                        23.750
  19092372.926    -9388052.922 7  -7256458.71224        25.500           3.969
  20176415.035   -20978077.269 7 -16070403.37623        24.250           3.094
 91  7 27  1 51 29.9960000  0  3G 3G17G23
  19525044.090    -5473380.413 7                        24.250
  19089128.520    -9405113.072 7  -7269752.34024        26.000           3.875
  20165903.356   -21033296.830 7 -16113431.57323        23.500           3.188
 91  7 27  1 51 44.9960000  0  3G 3G17G23
  19525106.684    -5473075.795 7                        24.750
  19085898.176    -9422092.475 7  -7282983.04424        26.500           3.813
  20155415.973   -21088412.225 7 -16156378.61223        23.250           3.188
 91  7 27  1 51 59.9960000  0  3G 3G17G23
  19525186.879    -5472638.064 7  -4146424.39622        24.750           1.938
  19082682.863    -9438983.125 7  -7296144.58924        25.750           3.844
  20144948.668   -21143415.004 7 -16199237.89523        23.750           3.156
 91  7 27  1 52 14.9950000  0  3G 3G17G23
  19525291.233    -5472088.464 7  -4145996.15022        23.750           2.000
  19079483.179    -9455805.490 7  -7309252.93424        26.250           3.813
  20134499.858   -21198322.530 7 -16242022.95123        23.750           3.188
 91  7 27  1 52 29.9950000  0  3G 3G17G23
  19525416.460    -5471418.972 7  -4145474.49322        23.750           1.969
  19076295.405    -9472553.760 7  -7322303.53424        26.250           3.813
  20124068.343   -21253134.286 7 -16284733.37823        23.500           3.281
 91  7 27  1 52 44.9950000  0  3G 3G17G23
  19525568.116    -5470629.936 7  -4144859.67722        23.750           2.094
  19073120.788    -9489227.005 7  -7335295.67724        25.750           3.813
  20113659.733   -21307846.807 7 -16327366.48523        23.750           3.281
 91  7 27  1 52 59.9950000  0  3G 3G17G23
  19525741.491    -5469717.673 7  -4144148.83422        23.750           2.094
  19069963.046    -9505821.717 7  -7348226.62124        25.250           3.688
  20103265.444   -21362456.221 7 -16369919.24723        24.000           3.281
 91  7 27  1 53 14.9950000  0  3G 3G17G23
  19525938.976    -5468683.111 7  -4143342.70022        24.000           2.063
  19066821.819    -9522339.026 7  -7361097.26024        26.000           3.813
  20092897.812   -21416963.294 7 -16412392.26623        24.250           3.375
 91  7 27  1 53 29.9950000  0  3G 3G17G23
  19526158.288    -5467523.692 7  -4142439.27922        23.250           2.031
  19063691.944    -9538776.204 7  -7373905.45424        26.000           3.875
  20082545.327   -21471365.175 7 -16454783.31423        24.250           3.281
 91  7 27  1 53 44.9950000  0  3G 3G17G23
  19526402.046    -5466241.977 7  -4141440.55622        23.750           2.063
  19060579.413    -9555135.868 7  -7386653.24624        26.000           3.844
  20072208.507   -21525664.611 7 -16497094.53723        23.750           3.313
 91  7 27  1 53 59.9950000  0  3G 3G17G23
  19526672.265    -5464832.952 7  -4140342.62622        24.250           2.063
  19057483.069    -9571413.188 7  -7399336.88124        26.000           3.844
  20061897.640   -21579856.435 7 -16539321.90323        24.000           3.344
 91  7 27  1 54 14.9950000  0  3G 3G17G23
  19526963.093    -5463297.370 7  -4139146.09222        24.000           2.000
  19054397.343    -9587608.819 7  -7411956.85324        25.250           3.875
  20051606.694   -21633941.147 7 -16581465.80923        23.750           3.344
 91  7 27  1 54 29.9950000  0  3G 3G17G23
  19527275.944    -5461641.259 7  -4137855.63022        23.000           2.063
  19051334.382    -9603729.068 7  -7424518.09224        26.250           3.906
  20041335.218   -21687924.792 7 -16623530.96223        24.250           3.406
 91  7 27  1 54 44.9950000  0  3G 3G17G23
  19527618.366    -5459861.085 7  -4136468.50022        23.750           2.063
  19048280.780    -9619770.392 7  -7437017.82324        26.250           3.938
  20031080.687   -21741803.527 7 -16665514.36623        23.750           3.469
 91  7 27  1 54 59.9950000  0  3G 3G17G23
  19527979.530    -5457958.587 7  -4134986.04522        23.500           2.031
  19045244.655    -9635734.569 7  -7449457.44824        26.250           3.938
  20020849.093   -21795578.910 7 -16707417.23724        24.000           3.500
 91  7 27  1 55 14.9950000  0  3G 3G17G23
  19528367.780    -5455931.956 7  -4133406.87322        24.500           2.000
  19042217.569    -9651620.024 7  -7461835.72524        25.750           3.969
  20010632.468   -21849249.386 7 -16749238.35823        23.750           3.406
 91  7 27  1 55 29.9950000  0  3G 3G17G23
  19528775.132    -5453781.914 7  -4131731.53422        24.000           2.031
  19039212.944    -9667427.351 7  -7474153.12624        26.000           4.031
  20000438.905   -21902815.296 7 -16790978.00323        23.500           3.375
 91  7 27  1 55 44.9950000  0  3G 3G17G23
  19529205.179    -5451511.767 7  -4129962.60722        23.500           2.031
  19036218.476    -9683159.840 7  -7486412.21124        26.250           3.906
  19990262.819   -21956280.047 7 -16832638.82123        23.250           3.375
 91  7 27  1 55 59.9950000  0  3G 3G17G23
  19529663.890    -5449116.359 7  -4128096.07722        24.000           1.938
  19033240.468    -9698812.417 7  -7498609.03024        26.250           4.031
  19980111.460   -22009638.148 7 -16874216.53623        23.500           3.469
 91  7 27  1 56 14.9950000  0  3G 3G17G23
  19530143.390    -5446597.805 7  -4126133.57622        24.250           1.938
  19030274.843    -9714387.083 7  -7510745.13524        25.750           3.906
  19969975.593   -22062891.437 7 -16915712.57523        23.000           3.375
 91  7 27  1 56 29.9950000  0  3G 3G17G23
  19530643.757    -5443956.917 7  -4124075.75722        23.750           1.906
  19027327.273    -9729885.303 7  -7522821.67624        26.250           4.031
  19959862.632   -22116040.959 7 -16957127.75923        22.750           3.406
 91  7 27  1 56 44.9950000  0  3G 3G17G23
  19531166.835    -5441190.358 7  -4121920.02022        23.500           2.000
  19024392.874    -9745303.263 7  -7534835.67524        26.000           4.063
  19949769.077   -22169083.127 7 -16998459.29623        23.250           3.406
 91  7 27  1 56 59.9950000  0  3G 3G17G23
  19531722.265    -5438301.988 7  -4119669.35622        23.750           1.875
  19021473.515    -9760644.954 7  -7546790.24424        25.750           3.938
  19939695.851   -22222021.587 7 -17039710.02023        23.500           3.438
 91  7 27  1 57 14.9950000  0  3G 3G17G23
  19532291.890    -5435288.877 7  -4117321.49922        23.000           1.875
  19018566.983    -9775907.547 7  -7558683.17624        26.000           4.094
  19929643.023   -22274853.143 7 -17080877.43623        23.500           3.375
 91  7 27  1 57 29.9950000  0  3G 3G17G23
  19532893.608    -5432153.533 7  -4114878.39122        23.750           1.875
  19015681.218    -9791093.624 7  -7570516.48924        26.500           4.156
  19919611.929   -22327580.313 7 -17121963.51524        24.250           3.500
 91  7 27  1 57 44.9950000  0  3G 3G17G23
  19533512.944    -5428894.791 7  -4112339.13122        24.000           1.906
  19012803.733    -9806201.876 7  -7582289.15524        26.000           4.031
  19909595.788   -22380201.841 7 -17162967.27623        23.500           3.438
 91  7 27  1 57 59.9950000  0  3G 3G17G23
  19534152.171    -5425514.339 7  -4109705.03322        23.250           1.969
  19009940.655    -9821234.195 7  -7594002.65824        25.750           4.125
  19899605.882   -22432719.343 7 -17203889.98223        24.250           3.344
 91  7 27  1 58 14.9950000  0  3G 3G17G23
  19534822.530    -5422013.824 7  -4106977.36822        24.250           1.969
  19007096.413    -9836192.414 7  -7605658.41324        26.250           4.156
  19889630.288   -22485134.349 7 -17244732.81123        23.500           3.281
 91  7 27  1 58 29.9950000  0  3G 3G17G23
  19535511.515    -5418390.118 7  -4104153.72322        24.000           2.000
  19004267.655    -9851073.393 7  -7617253.98524        26.500           4.063
  19879673.538   -22537443.630 7 -17285493.27023        23.000           3.313
 91  7 27  1 58 44.9950000  0  3G 3G17G23
  19536223.562    -5414642.630 7  -4101233.62722        23.500           1.844
  19001449.648    -9865876.620 7  -7628788.97124        27.000           4.125
  19869739.437   -22589646.460 7 -17326170.77123        23.250           3.344
 91  7 27  1 58 59.9950000  0  3G 3G17G23
  19536961.663    -5410771.723 7  -4098217.35522        24.250           1.875
  18998644.726    -9880602.264 7  -7640263.50324        26.500           4.094
  19859825.616   -22641742.937 7 -17366765.41123        22.750           3.406
 91  7 27  1 59 14.9950000  0  3G 3G17G23
  19537720.233    -5406777.353 7  -4095104.87522        23.750           1.906
  18995858.952    -9895250.212 7  -7651677.49524        26.500           4.219
  19849936.749   -22693732.690 7 -17407276.88023        24.000           3.438
 91  7 27  1 59 29.9950000  0  3G 3G17G23
  19538501.405    -5402660.395 7  -4091896.88822        23.250           1.875
  18993087.233    -9909821.812 7  -7663031.99124        27.000           4.125
  19840062.327   -22745616.963 7 -17447706.15823        23.750           3.375
 91  7 27  1 59 44.9950000  0  3G 3G17G23
  19539310.999    -5398416.412 7  -4088589.90222        24.000           1.938
  18990326.554    -9924312.345 7  -7674323.32324        26.250           4.094
  19830207.608   -22797391.047 7 -17488049.57423        23.250           3.313
 91  7 27  1 59 59.9950000  0  3G 3G17G23
  19540143.499    -5394051.436 7  -4085188.64622        23.750           1.938
  18987585.085    -9938728.128 7  -7685556.40624        26.750           4.250
  19820375.140   -22849060.805 7 -17528311.69923        23.250           3.313
 91  7 27  2  0 14.9950000  0  3G 3G17G23
  19540996.898    -5389561.378 7  -4081689.92622        23.250           1.875
  18984857.773    -9953064.913 7  -7696727.92224        26.750           4.188
  19810566.077   -22900621.769 7 -17568489.05223        24.000           3.281
 91  7 27  2  0 29.9950000  0  3G 3G17G23
  19541873.304    -5384949.852 7  -4078096.54422        22.750           1.875
  18982143.491    -9967326.479 7  -7707840.83824        27.000           4.156
  19800772.460   -22952077.821 7 -17608584.64623        23.750           3.156
 91  7 27  2  0 44.9950000  0  3G 3G17G23
  19542776.382    -5380215.601 7  -4074407.54422        23.750           1.844
  18979441.312    -9981511.404 7  -7718894.02924        26.500           4.156
  19791001.116   -23003427.249 7 -17648597.17223        23.500           3.219
 91  7 27  2  0 59.9950000  0  3G 3G17G23
  19543698.671    -5375358.465 7  -4070622.77922        23.500           1.938
  18976758.546    -9995619.757 7  -7729887.55424        26.500           4.125
  19781250.546   -23054670.074 7 -17688526.61523        24.000           3.219
 91  7 27  2  1 14.9950000  0  3G 3G17G23
  19544646.304    -5370380.624 7  -4066743.96822        23.250           1.813
  18974089.905   -10009653.779 7  -7740823.15824        27.000           4.156
  19771516.296   -23105808.280 7 -17728374.54423        23.250           3.219
 91  7 27  2  1 29.9950000  0  3G 3G17G23
  19545612.577    -5365282.125 7  -4062771.13122        22.500           1.844
  18971432.358   -10023613.327 7  -7751700.73624        27.000           4.125
  19761808.007   -23156841.583 7 -17768140.73423        23.750           3.188
 91  7 27  2  1 44.9950000  0  3G 3G17G23
  19546608.819    -5360061.082 7  -4058702.81122        23.250           1.969
  18968789.890   -10037496.429 7  -7762518.73924        26.750           4.031
  19752114.265   -23207767.977 7 -17807823.61623        23.250           3.250
 91  7 27  2  1 59.9950000  0  3G 3G17G23
  19547624.843    -5354720.216 7  -4054541.11522        23.500           1.813
  18966161.765   -10051306.264 7  -7773279.65924        26.500           4.094
  19742446.335   -23258590.210 7 -17847425.33623        23.500           3.375
 91  7 27  2  2 14.9950000  0  3G 3G17G23
  19548666.983    -5349255.839 7  -4050283.18922        23.500           1.844
  18963547.991   -10065039.219 7  -7783980.66224        26.500           4.094
  19732794.273   -23309304.533 7 -17886942.96523        23.750           3.406
 91  7 27  2  2 29.9950000  0  3G 3G17G23
  19549728.812    -5343669.240 7  -4045930.01722        23.250           1.938
  18960948.999   -10078696.229 7  -7794622.49524        26.500           3.906
  19723164.921   -23359911.855 7 -17926377.22223        23.750           3.406
 91  7 27  2  2 44.9950000  0  3G 3G17G23
  19550814.718    -5337962.171 7  -4041482.96922        23.500           1.781
  18958362.999   -10092279.103 7  -7805206.55524        26.250           3.875
  19713554.913   -23410413.878 7 -17965729.42823        24.000           3.406
 91  7 27  2  2 59.9950000  0  3G 3G17G23
  19551922.476    -5332131.362 7  -4036939.50922        23.250           1.969
  18955792.398   -10105784.701 7  -7815730.40324        26.000           4.000
  19703964.749   -23460807.217 7 -18004996.94223        24.250           3.406
 91  7 27  2  3 14.9950000  0  3G 3G17G23
  19553055.444    -5326179.807 7  -4032301.95422        23.500           1.875
  18953241.218   -10119216.274 7  -7826196.56624        27.000           3.938
  19694392.671   -23511095.085 7 -18044182.26723        23.500           3.375
 91  7 27  2  3 29.9950000  0  3G 3G17G23
  19554210.288    -5320105.663 7  -4027568.87522        22.750           1.750
  18950698.069   -10132571.490 7  -7836603.23124        26.750           4.031
  19684845.218   -23561274.945 7 -18083283.44123        24.250           3.375
 91  7 27  2  3 44.9950000  0  3G 3G17G23
  19555392.233    -5313909.188 7  -4022740.47522        24.000           1.875
  18948171.366   -10145850.818 7  -7846950.76424        26.500           4.156
  19675316.304   -23611347.275 7 -18122300.82323        23.500           3.406
 91  7 27  2  3 59.9950000  0  3G 3G17G23
  19556595.960    -5307592.747 7  -4017818.58822        23.750           1.781
  18945655.077   -10159056.982 7  -7857241.27524        25.750           4.000
  19665804.710   -23661314.435 7 -18161236.24623        23.500           3.344
 91  7 27  2  4 14.9950000  0  3G 3G17G23
  19557819.437    -5301155.185 7  -4012802.33522        23.000           1.813
  18943160.593   -10172188.293 7  -7867473.47624        26.750           4.125
  19656321.007   -23711174.677 7 -18200088.36523        24.250           3.344
 91  7 27  2  4 29.9950000  0  3G 3G17G23
  19559066.702    -5294595.979 7  -4007691.28622        22.750           1.875
  18940672.241   -10185244.479 7  -7877647.12424        26.500           4.031
  19646851.218   -23760927.626 7 -18238856.87523        23.750           3.438
 91  7 27  2  4 44.9950000  0  3G 3G17G23
  19560337.804    -5287916.307 7  -4002486.36922        22.750           1.750
  18938204.749   -10198226.678 7  -7887763.13024        26.750           3.969
  19637404.671   -23810574.160 7 -18277542.46523        24.000           3.469
 91  7 27  2  4 59.9950000  0  3G 3G17G23
  19561632.312    -5281117.084 7  -3997188.30222        22.250           1.813
  18935747.804   -10211135.957 7  -7897822.31224        27.000           4.063
  19627976.405   -23860115.188 7 -18316145.83923        24.250           3.406
 91  7 27  2  5 14.9950000  0  3G 3G17G23
  19562950.265    -5274195.505 7  -3991794.88922        22.750           1.781
  18933306.437   -10223969.476 7  -7907822.45724        27.000           4.125
  19618572.062   -23909548.019 7 -18354664.90724        24.750           3.625
 91  7 27  2  5 29.9950000  0  3G 3G17G23
  19564284.663    -5267155.127 7  -3986308.89322        22.250           1.969
  18930878.398   -10236730.748 7  -7917766.30924        27.000           4.156
  19609184.327   -23958875.823 7 -18393102.13124        24.500           3.625
 91  7 27  2  5 44.9950000  0  3G 3G17G23
  19565651.679    -5259996.066 7  -3980730.43222        22.500           1.750
  18928462.538   -10249419.993 7  -7927654.02924        27.000           4.344
  19599817.898   -24008098.488 7 -18431457.44024        24.500           3.500
 91  7 27  2  5 59.9950000  0  3G 3G17G23
  19567033.671    -5252716.269 7  -3975057.88222        22.000           1.781
  18926060.765   -10262035.100 7  -7937483.98824        26.750           4.250
  19590473.054   -24057213.853 7 -18469729.12824        24.750           3.500
 91  7 27  2  6 14.9950000  0  3G 3G17G23
  19568444.648    -5245317.201 7  -3969292.40022        22.250           1.719
  18923674.257   -10274577.562 7  -7947257.34024        26.750           4.375
  19581146.694   -24106223.399 7 -18507918.36223        25.000           3.469
 91  7 27  2  6 29.9950000  0  3G 3G17G23
  19569872.796    -5237800.593 7  -3963435.32722        22.000           1.719
  18921303.898   -10287049.164 7  -7956975.47524        27.250           4.313
  19571843.796   -24155128.544 7 -18546026.24323        25.500           3.469
 91  7 27  2  6 44.9950000  0  3G 3G17G23
  19571330.476    -5230165.489 7  -3957485.92122        23.250           1.781
  18918942.601   -10299449.045 7  -7966637.71724        26.750           4.281
  19562553.710   -24203928.454 7 -18584052.12824        24.500           3.563
 91  7 27  2  6 59.9950000  0  3G 3G17G23
  19572802.421    -5222411.230 7  -3951443.66422        22.250           1.813
  18916598.319   -10311776.379 7  -7976243.43624        27.250           4.156
  19553285.218   -24252622.307 7 -18621995.37223        24.250           3.469
 91  7 27  2  7 14.9950000  0  3G 3G17G23
  19574300.054    -5214538.200 7  -3945308.86022        22.250           1.781
  18914262.632   -10324031.333 7  -7985792.75224        26.500           4.344
  19544042.101   -24301210.086 7 -18659855.95224        25.250           3.531
 91  7 27  2  7 29.9950000  0  3G 3G17G23
  19575820.679    -5206546.924 7  -3939081.92222        21.750           1.781
  18911946.507   -10336214.917 7  -7995286.45524        26.750           4.281
  19534817.577   -24349692.417 7 -18697634.37224        26.000           3.500
 91  7 27  2  7 44.9950000  0  3G 3G17G23
  19577367.702    -5198437.102 7  -3932762.59922        22.500           1.594
  18909643.741   -10348326.516 7  -8004724.06924        27.500           4.156
  19525610.218   -24398068.655 7 -18735330.12324        25.000           3.531
 91  7 27  2  7 59.9950000  0  3G 3G17G23
  19578931.155    -5190211.788 7  -3926353.29322        22.500           1.625
  18907349.437   -10360369.281 7  -8014108.04224        27.250           4.125
  19516420.921   -24446341.854 7 -18772945.58024        24.250           3.531
 91  7 27  2  8 14.9950000  0  3G 3G17G23
  19580519.765    -5181868.365 7  -3919851.94022        22.250           1.719
  18905072.733   -10372340.652 7  -8023436.38724        27.500           4.031
  19507257.866   -24494509.334 7 -18810478.65924        24.750           3.563
 91  7 27  2  8 29.9950000  0  3G 3G17G23
  19582128.773    -5173407.635 7  -3913259.19122        22.000           1.656
  18902807.343   -10384241.325 7  -8032709.64224        27.250           4.094
  19498110.062   -24542571.486 7 -18847929.66023        25.000           3.438
 91  7 27  2  8 44.9950000  0  3G 3G17G23
  19583759.937    -5164827.222 7  -3906573.17522        21.750           1.719
  18900556.780   -10396068.884 7  -8041925.92624        27.500           4.188
  19488984.608   -24590526.221 7 -18885296.96924        25.000           3.594
 91  7 27  2  8 59.9950000  0  3G 3G17G23
  19585417.155    -5156133.006 7  -3899798.48722        22.750           1.656
  18898319.171   -10407829.273 7  -8051089.87024        27.500           4.156
  19479879.101   -24638379.155 7 -18922584.94724        24.250           3.563
 91  7 27  2  9 14.9950000  0  3G 3G17G23
  19587093.421    -5147321.430 7  -3892932.35222        22.750           1.750
  18896093.569   -10419518.818 7  -8060198.61024        27.250           4.094
  19470791.937   -24686126.594 7 -18959790.72324        24.750           3.500
 91  7 27  2  9 29.9950000  0  3G 3G17G23
  19588790.421    -5138396.241 7  -3885977.68722        22.250           1.719
  18893882.554   -10431141.372 7  -8069255.14524        27.250           4.188
  19461725.710   -24733771.987 7 -18996916.97924        25.000           3.563
 91  7 27  2  9 44.9950000  0  3G 3G17G23
  19590515.671    -5129351.795 7  -3878930.08922        23.000           1.688
  18891683.960   -10442691.271 7  -8078255.07424        27.750           4.344
  19452680.335   -24781309.483 7 -19033959.16624        24.500           3.594
 91  7 27  2  9 59.9950000  0  3G 3G17G23
  19592257.905    -5120190.930 7  -3871791.77822        22.500           1.594
  18889498.991   -10454171.246 7  -8087200.50924        27.750           4.094
  19443652.374   -24828742.091 7 -19070919.61724        24.250           3.594
 91  7 27  2 10 14.9950000  0  3G 3G17G23
  19594023.773    -5110913.941 7  -3864562.98522        23.000           1.719
  18887328.601   -10465581.883 7  -8096091.91924        27.500           4.156
  19434648.671   -24876069.966 7 -19107798.46424        24.750           3.531
 91  7 27  2 10 29.9950000  0  3G 3G17G23
  19595809.835    -5101525.494 7  -3857247.33822        22.500           1.656
  18885168.913   -10476927.755 7  -8104932.86324        27.500           4.156
  19425662.366   -24923297.266 7 -19144598.93624        25.000           3.594
 91  7 27  2 10 44.9950000  0  3G 3G17G23
  19597617.202    -5092020.926 7  -3849841.19722        22.000           1.750
  18883024.069   -10488203.959 8  -8113719.52324        28.250           4.281
  19416693.710   -24970419.400 7 -19181317.46024        24.500           3.563
 91  7 27  2 10 59.9950000  0  3G 3G17G23
  19599447.765    -5082397.167 7  -3842342.19322        22.000           1.594
  18880892.499   -10499407.359 8  -8122449.44724        28.000           4.313
  19407747.046   -25017433.088 7 -19217951.48024        24.500           3.563
 91  7 27  2 11 14.9940000  0  3G 3G17G23
  19601302.744    -5072658.536 7  -3834753.66822        22.000           1.656
  18878771.322   -10510541.073 7  -8131125.07425        27.500           4.500
  19398822.885   -25064338.992 7 -19254501.51524        25.000           3.594
 91  7 27  2 11 29.9940000  0  3G 3G17G23
  19603173.502    -5062804.341 7  -3827075.10922        21.250           1.656
  18876666.432   -10521607.195 8  -8139748.03025        28.250           4.563
  19389913.635   -25111143.880 7 -19290972.83823        24.500           3.469
 91  7 27  2 11 44.9940000  0  3G 3G17G23
  19605074.752    -5052836.645 7  -3819308.09522        21.250           1.625
  18874574.643   -10532606.248 8  -8148318.72725        28.500           4.594
  19381026.971   -25157845.590 7 -19327363.76324        24.500           3.531
 91  7 27  2 11 59.9940000  0  3G 3G17G23
  19606993.971    -5042754.971 7  -3811452.26922        21.750           1.656
  18872493.143   -10543537.866 7  -8156836.87525        27.750           4.531
  19372162.010   -25204443.570 7 -19363673.85524        25.000           3.563
 91  7 27  2 12 14.9940000  0  3G 3G17G23
  19608932.822    -5032558.929 7  -3803507.32722        22.000           1.688
  18870423.947   -10554401.586 7  -8165302.12324        27.250           4.406
  19363312.182   -25250937.237 7 -19399902.66723        24.250           3.438
 91  7 27  2 12 29.9940000  0  3G 3G17G23
  19610894.674    -5022248.533 7  -3795473.27522        21.750           1.594
  18868373.565   -10565197.380 8  -8173714.44325        28.750           4.531
  19354481.330   -25297326.648 7 -19436050.24124        24.000           3.500
 91  7 27  2 12 44.9940000  0  3G 3G17G23
  19612878.861    -5011824.122 7  -3787350.38522        22.000           1.656
  18866331.322   -10575925.363 8  -8182073.91224        28.000           4.438
  19345674.768   -25343611.714 7 -19472116.50824        24.250           3.500
 91  7 27  2 12 59.9940000  0  3G 3G17G23
  19614883.705    -5001284.388 7  -3779137.63822        22.500           1.594
  18864299.752   -10586584.298 7  -8190379.58225        27.250           4.563
  19336885.471   -25389791.431 7 -19508100.68523        24.250           3.438
 91  7 27  2 13 14.9940000  0  3G 3G17G23
  19616912.299    -4990631.107 7  -3770836.40222        22.250           1.625
  18862287.533   -10597176.055 7  -8198632.90625        27.500           4.563
  19328123.822   -25435867.136 7 -19544003.81323        24.750           3.469
 91  7 27  2 13 29.9940000  0  3G 3G17G23
  19618960.541    -4979866.764 7  -3762448.62922        22.500           1.656
  18860281.611   -10607703.214 7  -8206835.89224        27.250           4.438
  19319371.908   -25481841.228 7 -19579827.76324        24.250           3.563
 91  7 27  2 13 44.9940000  0  3G 3G17G23
  19621030.596    -4968988.550 7  -3753972.12422        22.250           1.719
  18858293.041   -10618162.708 7  -8214986.15625        27.000           4.531
  19310644.650   -25527710.758 7 -19615570.23823        24.750           3.469
 91  7 27  2 13 59.9940000  0  3G 3G17G23
  19623121.205    -4957996.169 7  -3745406.67222        22.000           1.688
  18856314.572   -10628554.521 7  -8223083.67424        26.750           4.469
  19301935.916   -25573475.370 7 -19651230.95823        25.000           3.469
 91  7 27  2 14 14.9940000  0  4G 3G17G21G23
  19625235.174    -4946887.310 7  -3736750.43922        22.500           1.688
  18854351.494   -10638876.114 7  -8231126.47824        27.000           4.406
  22908846.549          -0.54013                         5.750
  19293245.377   -25619132.549 7 -19686807.96124        24.750           3.500
 91  7 27  2 14 29.9940000  0  4G 3G17G21G23
  19627371.104    -4935664.740 7  -3728005.60922        22.250           1.594
  18852401.690   -10649129.996 7  -8239116.52024        27.000           4.469
  22894900.463      -73306.240 4                         6.250
  19284577.510   -25664685.009 7 -19722303.36923        24.750           3.438
 91  7 27  2 14 44.9940000  0  4G 3G17G21G23
  19629527.924    -4924332.194 7  -3719175.07122        22.000           1.719
  18850462.205   -10659319.855 7  -8247056.67824        27.000           4.344
  22880959.307     -146588.756 4                         7.250
  19275930.557   -25710135.984 7 -19757719.69423        25.000           3.438
 91  7 27  2 14 59.9940000  0  4G 3G17G21G23
  19631704.377    -4912886.500 7  -3710256.38422        21.250           1.625
  18848536.455   -10669442.666 7  -8254944.58824        27.250           4.344
  22867022.658     -219844.800 5                         7.500
  19267301.182   -25755482.540 7 -19793054.65123        24.750           3.406
 91  7 27  2 15 14.9940000  0  4G 3G17G21G23
  19633905.979    -4901328.704 7  -3701250.33822        21.750           1.500
  18846619.963   -10679499.841 7  -8262781.35224        26.500           4.313
  22853085.861     -293075.187 5        -0.05831         8.500           0.375
  19258690.877   -25800725.582 7 -19828308.95924        25.250           3.563
 91  7 27  2 15 29.9940000  0  4G 3G17G21G23
  19636126.869    -4889657.855 7  -3692156.19422        21.500           1.625
  18844716.463   -10689489.994 7  -8270565.89124        26.250           4.313
  22839152.502     -366278.567 4    -57041.43121         7.000           0.406
  19250103.010   -25845863.721 7 -19863481.52324        25.250           3.594
 91  7 27  2 15 44.9940000  0  4G 3G17G21G23
  19638367.924    -4877871.002 7  -3682971.65422        21.000           1.656
  18842830.580   -10699410.207 7  -8278295.92724        26.500           4.250
  22825226.588     -439451.906 4   -114059.40021         6.500           0.375
  19241534.760   -25890894.100 7 -19898570.10923        26.000           3.469
 91  7 27  2 15 59.9940000  0  4G 3G17G21G23
  19640631.775    -4865970.160 7  -3673698.30522        20.750           1.656
  18840954.096   -10709262.499 7  -8285973.04424        26.250           4.250
  22811311.400     -512596.824 5   -171055.20221         7.750           0.281
  19232984.955   -25935818.470 7 -19933576.09624        26.000           3.500
 91  7 27  2 16 14.9940000  0  4G 3G17G21G23
  19642918.307    -4853958.707 7  -3664338.76122        21.250           1.594
  18839093.893   -10719050.255 7  -8293599.87124        26.250           4.094
  22797404.283     -585716.750 5   -228031.63321         7.750           0.094
  19224453.252   -25980640.279 7 -19968502.16223        25.500           3.406
 91  7 27  2 16 29.9940000  0  4G 3G17G21G23
  19645224.697    -4841838.058 7  -3654894.12221        20.750           1.438
  18837244.752   -10728774.609 7  -8301177.29424        26.500           4.156
  22783489.682     -658812.567 5   -284989.25321         8.250           0.219
  19215945.377   -26025360.669 7 -20003349.20323        25.750           3.469
 91  7 27  2 16 44.9940000  0  4G 3G17G21G23
  19647551.736    -4829607.166 7  -3645363.58422        21.000           1.500
  18835406.744   -10738434.665 7  -8308704.62324        27.000           4.156
  22769578.658     -731883.253 5   -341927.28021         8.000           0.406
  19207453.049   -26069978.745 7 -20038116.51824        25.500           3.563
 91  7 27  2 16 59.9940000  0  4G 3G17G21G23
  19649900.393    -4817264.660 7  -3635746.08021        20.750           1.438
  18833581.182   -10748028.822 7  -8316180.59424        27.000           4.094
  22755678.275     -804926.907 4   -398844.20221         7.250           0.281
  19198982.572   -26114492.575 7 -20072802.60323        25.750           3.469
 91  7 27  2 17 14.9940000  0  4G 3G17G21G23
  19652269.033    -4804813.915 7  -3626044.22222        20.750           1.531
  18831766.979   -10757560.602 7  -8323607.95824        27.000           4.094
  22741790.908     -877946.725 4   -455742.60121         6.500           0.219
  19190532.432   -26158905.353 7 -20107409.94524        25.750           3.500
 91  7 27  2 17 29.9940000  0  4G 3G17G21G23
  19654660.127    -4792249.279 7  -3616253.61521        20.750           1.438
  18829966.338   -10767024.303 7  -8330982.27724        26.750           4.031
  22727893.135     -950936.817 4   -512617.81721         7.000           0.313
  19182104.947   -26203211.443 7 -20141934.15924        26.250           3.500
 91  7 27  2 17 44.9940000  0  4G 3G17G21G23
  19657076.760    -4779565.098 7  -3606369.87022        21.000           1.500
  18828179.854   -10776413.897 7  -8338298.84724        26.750           3.969
  22714009.283    -1023891.191 4   -569465.17421         6.500           0.469
  19173689.174   -26247405.269 7 -20176370.88923        26.000           3.406
 91  7 27  2 17 59.9940000  0  4G 3G17G21G23
  19659510.830    -4766768.975 7  -3596398.88922        21.250           1.500
  18826404.486   -10785737.167 7  -8345563.74224        26.250           4.063
  22700138.807    -1096817.213 5   -626290.45421         7.750           0.313
  19165302.596   -26291494.126 7 -20210725.82623        26.250           3.406
 91  7 27  2 18 14.9940000  0  4G 3G17G21G23
  19661968.119    -4753863.853 7  -3586342.98422        21.500           1.500
  18824640.416   -10794996.988 7  -8352779.18924        26.000           3.969
  22686260.861    -1169717.573 5   -683095.72921         8.750           0.281
  19156930.088   -26335480.721 7 -20245001.07524        26.000           3.594
 91  7 27  2 18 29.9940000  0  4G 3G17G21G23
  19664441.877    -4740848.880 7  -3576201.47621        21.250           1.469
  18822892.260   -10804192.518 7  -8359944.54024        26.250           4.125
  22672399.346    -1242590.981 5   -739880.08021         8.750           0.188
  19148579.674   -26379364.144 7 -20279195.93323        25.750           3.438
 91  7 27  2 18 44.9940000  0  4G 3G17G21G23
  19666939.854    -4727722.847 7  -3565973.43322        21.500           1.531
  18821154.963   -10813322.621 7  -8367058.91024        26.250           4.125
  22658534.533    -1315436.218 4   -796642.43721         7.000           0.250
  19140249.658   -26423142.988 7 -20313309.30223        26.000           3.469
 91  7 27  2 18 59.9940000  0  4G 3G17G21G23
  19669461.346    -4714486.410 7  -3555659.35221        21.750           1.469
  18819431.979   -10822387.613 7  -8374122.54924        27.250           4.219
  22644680.440    -1388253.609 4   -853383.10521         6.500           0.250
  19131938.072   -26466817.674 7 -20347341.51023        26.000           3.438
 91  7 27  2 19 14.9940000  0  4G 3G17G21G23
  19671999.119    -4701139.125 7  -3545258.91021        21.250           1.438
  18817717.682   -10831387.209 7  -8381135.22124        26.250           4.156
  22630824.533    -1461042.191 4   -910101.26121         7.000           0.406
  19123647.197   -26510387.546 7 -20381292.04323        26.250           3.375
 91  7 27  2 19 29.9940000  0  4G 3G17G21G23
  19674565.057    -4687679.555 7  -3534770.95821        22.250           1.438
  18816020.424   -10840319.935 7  -8388095.78724        27.250           4.219
  22616984.697    -1533800.520 5   -966795.86921         8.000           0.313
  19115371.940   -26553851.497 7 -20415160.04024        25.000           3.500
 91  7 27  2 19 44.9940000  0  4G 3G17G21G23
  19677145.299    -4674110.274 7  -3524197.52621        21.750           1.469
  18814331.479   -10849188.272 7  -8395006.18424        26.750           4.250
  22603139.775    -1606530.734 5  -1023468.59021         7.500           0.375
  19107122.627   -26597211.940 7 -20448947.38324        25.500           3.500
 91  7 27  2 19 59.9940000  0  4G 3G17G21G23
  19679747.916    -4660432.160 7  -3513539.28722        22.000           1.594
  18812654.604   -10857993.049 7  -8401867.04924        26.250           4.219
  22589304.221    -1679233.414 5  -1080119.83121         7.750           0.313
  19098894.369   -26640469.102 7 -20482654.24323        26.000           3.438
 91  7 27  2 20 14.9940000  0  4G 3G17G21G23
  19682370.096    -4646646.633 7  -3502797.35222        21.250           1.531
  18810989.729   -10866735.647 7  -8408679.47024        26.250           4.188
  22575482.940    -1751909.887 4  -1136750.73121         7.250           0.219
  19090683.221   -26683624.613 7 -20516281.89923        26.250           3.438
 91  7 27  2 20 29.9940000  0  4G 3G17G21G23
  19685011.869    -4632755.878 7  -3491973.41722        21.500           1.500
  18809337.666   -10875418.121 7  -8415445.03024        26.000           4.125
  22561643.025    -1824561.895 5  -1193362.51021         7.500           0.313
  19082489.650   -26726680.206 7 -20549831.70223        26.000           3.250
 91  7 27  2 20 44.9940000  0  4G 3G17G21G23
  19687675.361    -4618757.071 7  -3481065.28822        20.500           1.625
  18807698.213   -10884037.613 7  -8422161.52224        26.000           4.188
  22547826.518    -1897186.736 5  -1249953.13621         7.750           0.406
  19074314.354   -26769633.164 7 -20583301.51623        26.000           3.344
 91  7 27  2 20 59.9940000  0  4G 3G17G21G23
  19690362.619    -4604653.425 7  -3470075.46621        21.000           1.469
  18806069.455   -10892597.207 7  -8428831.33624        26.250           4.281
  22534004.041    -1969787.029 5  -1306524.56721         7.500           0.313
  19066159.690   -26812486.605 7 -20616693.79223        26.250           3.406
 91  7 27  2 21 14.9940000  0  4G 3G17G21G23
  19693063.893    -4590449.558 7  -3459007.55121        21.250           1.469
  18804453.377   -10901101.293 7  -8435457.89324        26.500           4.250
  22520199.525    -2042366.971 5  -1363080.22421         8.500           0.344
  19058023.150   -26855244.735 7 -20650011.79723        25.750           3.406
 91  7 27  2 21 29.9940000  0  4G 3G17G21G23
  19695787.643    -4576142.882 7  -3447859.53221        21.500           1.438
  18802842.947   -10909547.656 7  -8442039.47524        25.750           4.250
  22506398.236    -2114923.936 5  -1419617.96421         8.750           0.313
  19049904.877   -26897905.004 7 -20683253.54624        25.750           3.500
 91  7 27  2 21 44.9940000  0  4G 3G17G21G23
  19698525.596    -4561729.937 7  -3436628.69221        20.500           1.406
  18801248.713   -10917932.533 7  -8448573.14824        26.500           4.281
  22492579.768    -2187454.029 4  -1476134.76821         6.250           0.438
  19041809.799   -26940463.895 7 -20716416.30523        26.500           3.406
 91  7 27  2 21 59.9940000  0  4G 3G17G21G23
  19701291.924    -4547208.894 7  -3425313.62921        21.500           1.469
  18799665.611   -10926253.989 7  -8455057.40224        26.500           4.375
  22478789.197    -2259955.291 5  -1532629.05321         7.500           0.438
  19033724.643   -26982919.253 7 -20749498.38323        25.250           3.438
 91  7 27  2 22 14.9940000  0  4G 3G17G21G23
  19704075.572    -4532581.231 7  -3413915.48621        21.250           1.375
  18798095.650   -10934513.413 7  -8461493.32124        26.750           4.156
  22464996.190    -2332428.853 5  -1589101.76121         8.250           0.281
  19025668.940   -27025272.406 7 -20782500.82224        25.500           3.563
 91  7 27  2 22 29.9940000  0  4G 3G17G21G23
  19706880.111    -4517841.764 7  -3402430.22221        21.000           1.344
  18796534.791   -10942705.705 7  -8467876.92224        26.250           4.156
  22451220.752    -2404869.187 5  -1645548.67521        10.000           0.313
  19017629.627   -27067518.168 7 -20815419.57923        26.000           3.438
 91  7 27  2 22 44.9940000  0  4G 3G17G21G23
  19709704.486    -4502996.518 7  -3390862.53221        21.250           1.344
  18794986.424   -10950836.704 7  -8474212.76624        26.000           4.156
  22437422.440    -2477282.107 4  -1701974.19121         7.250           0.250
  19009608.416   -27109662.445 7 -20848259.26223        26.250           3.469
 91  7 27  2 22 59.9940000  0  4G 3G17G21G23
  19712551.533    -4488042.819 7  -3379210.34121        20.750           1.344
  18793451.713   -10958903.855 7  -8480498.85824        25.750           4.156
  22423674.549    -2549664.951 5  -1758376.24221         9.250           0.469
  19001609.408   -27151702.486 7 -20881017.71423        26.500           3.375
 91  7 27  2 23 14.9940000  0  4G 3G17G21G23
  19715419.682    -4472985.283 7  -3367477.21821        21.500           1.344
  18791930.080   -10966911.184 7  -8486738.33724        26.500           4.063
  22409891.908    -2622021.502 5  -1814757.78821         7.750           0.406
  18993627.400   -27193642.296 7 -20913698.07323        25.750           3.313
 91  7 27  2 23 29.9940000  0  4G 3G17G21G23
  19718303.815    -4457819.655 7  -3355659.88621        20.500           1.375
  18790415.432   -10974854.693 7  -8492928.08824        26.250           4.125
  22396131.705    -2694347.421 5  -1871115.48721         8.250           0.281
  18985666.463   -27235477.820 7 -20946297.16723        26.250           3.375
 91  7 27  2 23 44.9940000  0  4G 3G17G21G23
  19721209.338    -4442545.819 7  -3343758.23621        20.750           1.250
  18788917.315   -10982734.271 7  -8499068.02224        26.500           4.125
  22382377.611    -2766642.526 5  -1927449.18021         8.250           0.250
  18977724.986   -27277208.714 7 -20978814.72723        26.000           3.344
 91  7 27  2 23 59.9940000  0  4G 3G17G21G23
  19724137.065    -4427163.919 7  -3331772.37021        20.500           1.406
  18787430.111   -10990549.928 7  -8505158.14924        26.250           4.063
  22368624.119    -2838906.458 5  -1983758.59821         8.500           0.125
  18969804.369   -27318835.023 7 -21011250.79623        26.750           3.344
 91  7 27  2 24 14.9940000  0  4G 3G17G21G23
  19727083.252    -4411673.734 7  -3319702.13121        20.250           1.313
  18785955.354   -10998301.364 7  -8511198.22924        26.000           4.031
  22354883.846    -2911138.739 5  -2040043.36121         9.500           0.344
  18961901.705   -27360356.471 7 -21043605.15623        26.500           3.406
 91  7 27  2 24 29.9940000  0  4G 3G17G21G23
  19730056.127    -4396062.626 7  -3307537.67121        20.500           1.250
  18784496.815   -11005975.965 7  -8517178.44224        26.750           4.063
  22341141.705    -2983326.546 5  -2096293.44621         8.500           0.406
  18954024.244   -27401760.180 7 -21075867.77223        26.750           3.438
 91  7 27  2 24 44.9940000  0  4G 3G17G21G23
  19733045.080    -4380332.975 6  -3295280.83321        19.750           1.250
  18783048.393   -11013575.959 7  -8523100.51624        26.000           4.063
  22327410.822    -3055471.848 5  -2152510.39021         7.750           0.375
  18946168.408   -27443048.357 7 -21108040.36024        27.250           3.531
 91  7 27  2 24 59.9940000  0  4G 3G17G21G23
  19736062.861    -4364497.114 7  -3282941.23621        20.250           1.375
  18781614.768   -11021113.471 7  -8528973.91224        26.500           3.969
  22313683.775    -3127586.900 5  -2208703.78321         8.750           0.344
  18938329.174   -27484233.142 7 -21140132.38323        26.500           3.469
 91  7 27  2 25 14.9940000  0  4G 3G17G21G23
  19739096.338    -4348558.582 7  -3270521.63721        20.500           1.313
  18780191.143   -11028592.212 7  -8534801.50224        25.750           4.063
  22299967.916    -3199674.826 5  -2264876.05621         9.250           0.313
  18930512.338   -27525318.118 7 -21172146.63223        26.500           3.469
 91  7 27  2 25 29.9940000  0  4G 3G17G21G23
  19742146.518    -4332512.848 7  -3258018.50721        20.250           1.250
  18778781.565   -11036007.279 7  -8540579.48224        26.500           4.031
  22286256.830    -3271730.618 5  -2321023.30621         9.250           0.250
  18922713.893   -27566298.411 7 -21204079.31223        27.000           3.406
 91  7 27  2 25 44.9940000  0  4G 3G17G21G23
  19745221.768    -4316357.061 6  -3245429.61721        19.750           1.281
  18777381.525   -11043356.021 7  -8546305.78024        26.000           4.031
  22272555.713    -3343751.472 5  -2377143.30721         8.250           0.250
  18914936.494   -27607171.358 7 -21235928.34524        27.000           3.531
 91  7 27  2 25 59.9940000  0  4G 3G17G21G23
  19748314.440    -4300095.890 6  -3232758.61521        19.500           1.281
  18775994.291   -11050642.932 7  -8551983.90124        26.000           4.031
  22258861.229    -3415741.554 5  -2433239.31721         9.000           0.281
  18907177.565   -27647941.329 7 -21267697.13623        27.000           3.438
 91  7 27  2 26 14.9940000  0  4G 3G17G21G23
  19751431.010    -4283729.079 7  -3220005.27821        20.000           1.250
  18774621.799   -11057867.504 7  -8557613.44624        26.750           4.000
  22245152.807    -3487700.139 5  -2489310.80921         9.000           0.344
  18899437.924   -27688607.672 7 -21299385.17624        26.500           3.531
 91  7 27  2 26 29.9940000  0  4G 3G17G21G23
  19754565.533    -4267257.194 7  -3207170.08121        20.250           1.406
  18773257.729   -11065030.423 7  -8563194.94824        26.750           4.031
  22231464.166    -3559627.725 5  -2545358.17121         9.000           0.313
  18891720.541   -27729170.984 7 -21330992.93523        26.750           3.375
 91  7 27  2 26 44.9940000  0  4G 3G17G21G23
  19757721.072    -4250679.178 6  -3194252.17821        19.750           1.375
  18771907.463   -11072130.487 7  -8568727.47124        27.000           3.969
  22217795.799    -3631523.011 5  -2601380.32621         8.750           0.375
  18884021.557   -27769630.130 7 -21362519.52723        26.750           3.406
 91  7 27  2 26 59.9940000  0  4G 3G17G21G23
  19760894.627    -4233997.188 7  -3181253.26721        20.250           1.281
  18770566.690   -11079169.717 7  -8574212.58924        26.500           3.938
  22204110.940    -3703387.860 5  -2657378.75221         8.250           0.469
  18876341.385   -27809986.997 7 -21393966.42523        26.500           3.281
 91  7 27  2 27 14.9940000  0  4G 3G17G21G23
  19764088.721    -4217210.458 6  -3168172.73321        19.750           1.281
  18769240.104   -11086147.155 7  -8579649.56424        27.250           4.031
  22190446.065    -3775221.036 5  -2713352.49421         9.500           0.375
  18868681.018   -27850240.555 7 -21425332.81823        26.250           3.438
 91  7 27  2 27 29.9940000  0  4G 3G17G21G23
  19767305.799    -4200316.581 7  -3155008.70521        20.500           1.250
  18767924.854   -11093060.584 7  -8585036.66124        27.500           3.875
  22176785.846    -3847019.895 5  -2769299.53221         9.250           0.281
  18861041.729   -27890388.341 7 -21456616.79323        26.250           3.469
 91  7 27  2 27 44.9940000  0  4G 3G17G21G23
  19770540.088    -4183319.482 7  -3141764.25621        20.750           1.281
  18766618.900   -11099913.685 7  -8590376.75324        27.750           3.938
  22163130.252    -3918788.250 5  -2825222.83721         9.000           0.313
  18853419.838   -27930434.394 7 -21487821.49423        25.750           3.438
 91  7 27  2 27 59.9940000  0  4G 3G17G21G23
  19773792.400    -4166218.185 7  -3128438.60421        20.000           1.250
  18765327.315   -11106705.504 7  -8595669.08124        27.500           3.906
  22149477.400    -3990524.554 5  -2881121.13621         9.500           0.406
  18845817.799   -27970377.212 7 -21518945.75223        26.000           3.375
 91  7 27  2 28 14.9940000  0  4G 3G17G21G23
  19777065.885    -4149015.310 6  -3115033.80221        19.500           1.281
  18764046.721   -11113438.344 8  -8600915.46124        28.250           3.969
  22135833.783    -4062231.280 5  -2936996.37121        10.000           0.531
  18838238.697   -28010219.491 7 -21549991.67523        25.750           3.469
 91  7 27  2 28 29.9940000  0  4G 3G17G21G23
  19780360.791    -4131707.118 6  -3101546.93421        19.750           1.094
  18762776.869   -11120108.694 7  -8606113.14324        27.750           3.969
  22122190.744    -4133904.393 5  -2992845.41521         8.500           0.344
  18830672.494   -28049957.232 7 -21580956.13123        25.500           3.406
 91  7 27  2 28 44.9940000  0  4G 3G17G21G23
  19783672.900    -4114293.692 6  -3087978.06621        19.750           1.188
  18761517.979   -11126716.193 7  -8611261.85124        27.000           3.906
  22108553.979    -4205543.425 5  -3048667.89321         8.750           0.313
  18823133.775   -28089590.311 7 -21611839.03423        25.750           3.438
 91  7 27  2 28 59.9940000  0  4G 3G17G21G23
  19787007.830    -4096775.611 7  -3074327.65721        20.000           1.188
  18760274.361   -11133261.475 7  -8616362.07624        27.500           3.875
  22094928.979    -4277148.886 5  -3104464.27621         8.750           0.281
  18815611.143   -28129119.311 7 -21642640.83724        25.750           3.563
 91  7 27  2 29 14.9940000  0  4G 3G17G21G23
  19790363.190    -4079152.383 7  -3060595.30321        20.000           1.281
  18759041.096   -11139743.814 7  -8621413.26124        27.000           4.094
  22081317.830    -4348720.052 5  -3160233.91321         9.000           0.406
  18808110.580   -28168543.596 7 -21673361.04623        26.250           3.469
 91  7 27  2 29 29.9940000  0  4G 3G17G21G23
  19793735.971    -4061426.399 7  -3046782.88121        20.250           1.250
  18757817.994   -11146165.501 7  -8626417.17924        27.000           3.969
  22067699.135    -4420258.973 5  -3215978.38921         9.000           0.438
  18800626.252   -28207865.364 7 -21704001.36824        26.000           3.563
 91  7 27  2 29 44.9940000  0  4G 3G17G21G23
  19797125.369    -4043596.118 6  -3032889.19421        19.250           1.125
  18756607.557   -11152525.001 7  -8631372.64124        27.000           4.000
  22054093.908    -4491763.730 5  -3271696.28821         9.250           0.531
  18793166.650   -28247082.889 7 -21734560.46624        26.750           3.531
 91  7 27  2 29 59.9930000  0  4G 3G17G21G23
  19800539.263    -4025662.962 6  -3018915.33721        19.250           1.188
  18755408.974   -11158821.963 7  -8636279.37124        27.250           4.000
  22040494.739    -4563229.461 5  -3327383.74321         8.750           0.250
  18785721.903   -28286193.633 7 -21765036.35523        26.250           3.469
 91  7 27  2 30 14.9930000  0  4G 3G17G21G23
  19803970.552    -4007625.891 6  -3004860.52321        19.500           1.156
  18754223.403   -11165058.848 7  -8641139.29124        27.500           4.063
  22026899.630    -4634666.885 5  -3383049.14521         8.750           0.469
  18778298.544   -28325204.159 7 -21795434.15323        25.750           3.438
 91  7 27  2 30 29.9930000  0  4G 3G17G21G23
  19807426.435    -3989485.480 7  -2990725.16721        20.000           1.188
  18753047.388   -11171234.120 7  -8645951.19524        26.750           4.063
  22013314.466    -4706070.066 5  -3438687.87921        10.000           0.406
  18770895.982   -28364110.876 7 -21825751.06224        26.000           3.500
 91  7 27  2 30 44.9930000  0  4G 3G17G21G23
  19810897.896    -3971239.203 7  -2976507.33221        20.000           1.188
  18751883.075   -11177345.352 7  -8650713.19724        26.250           4.125
  21999734.380    -4777436.143 5  -3494297.69521        10.250           0.281
  18763509.630   -28402911.160 7 -21855985.03423        25.500           3.438
 91  7 27  2 30 59.9930000  0  4G 3G17G21G23
  19814389.732    -3952891.295 7  -2962210.29621        20.000           1.188
  18750733.161   -11183396.591 7  -8655428.45924        26.500           4.031
  21986151.685    -4848769.318 5  -3549881.88121         9.500           0.344
  18756147.747   -28441609.265 7 -21886139.39324        26.000           3.531
 91  7 27  2 31 14.9930000  0  4G 3G17G21G23
  19817897.825    -3934439.122 6  -2947832.01421        19.250           1.156
  18749593.841   -11189384.979 7  -8660094.74024        26.250           4.313
  21972593.208    -4920066.582 5  -3605438.09921        10.000           0.375
  18748803.661   -28480202.232 7 -21916211.82124        26.000           3.500
 91  7 27  2 31 29.9930000  0  4G 3G17G21G23
  19821429.880    -3915885.193 6  -2933374.43121        19.000           1.094
  18748465.591   -11195313.050 7  -8664714.01824        26.250           4.125
  21959026.224    -4991330.307 5  -3660968.15221         9.500           0.469
  18741476.536   -28518692.538 7 -21946204.25223        26.000           3.469
 91  7 27  2 31 44.9930000  0  4G 3G17G21G23
  19824981.614    -3897227.416 6  -2918835.95021        19.500           1.031
  18747349.974   -11201178.669 7  -8669284.63424        26.500           4.188
  21945473.044    -5062557.860 5  -3716470.01321        10.000           0.438
  18734174.247   -28557077.914 7 -21976114.92224        25.750           3.563
 91  7 27  2 31 59.9930000  0  4G 3G17G21G23
  19828552.099    -3878467.727 7  -2904218.05321        20.000           1.125
  18746245.552   -11206983.540 7  -8673807.91924        26.250           4.219
  21931915.005    -5133750.802 5  -3771944.94321         9.250           0.438
  18726888.153   -28595360.188 7 -22005945.25024        25.750           3.500
 91  7 27  2 32 14.9930000  0  4G 3G17G21G23
  19832142.021    -3859607.953 7  -2889522.15421        20.750           1.094
  18745149.927   -11212729.361 7  -8678285.18624        26.000           4.406
  21918388.997    -5204910.831 5  -3827394.21521         9.750           0.469
  18719622.411   -28633541.025 7 -22035696.54324        25.500           3.500
 91  7 27  2 32 29.9930000  0  4G 3G17G21G23
  19835746.786    -3840646.810 6  -2874747.26821        19.750           1.063
  18744070.958   -11218414.537 7  -8682715.19724        26.500           4.406
  21904842.435    -5276036.297 5  -3882816.53821         9.250           0.375
  18712376.739   -28671618.771 7 -22065367.50023        25.750           3.469
 91  7 27  2 32 44.9930000  0  4G 3G17G21G23
  19839377.583    -3821581.679 6  -2859891.34621        19.250           1.063
  18743000.521   -11224036.616 7  -8687096.04024        26.250           4.375
  21891327.786    -5347124.280 5  -3938209.68521        10.250           0.500
  18705150.130   -28709590.841 7 -22094956.11423        25.750           3.438
 91  7 27  2 32 59.9930000  0  4G 3G17G21G23
  19843024.388    -3802410.932 6  -2844953.14721        19.250           1.094
  18741943.778   -11229593.876 7  -8691426.37924        26.500           4.438
  21877800.317    -5418172.785 5  -3993572.02621        10.000           0.500
  18697946.028   -28747455.546 7 -22124461.06923        26.000           3.344
 91  7 27  2 33 14.9930000  0  4G 3G17G21G23
  19846689.482    -3783138.843 6  -2829935.96021        19.250           1.094
  18740892.591   -11235090.400 7  -8695709.38324        25.250           4.469
  21864286.536    -5489185.760 5  -4048906.72621         9.750           0.438
  18690757.513   -28785216.911 7 -22153885.49223        26.000           3.406
 91  7 27  2 33 29.9930000  0  4G 3G17G21G23
  19850379.864    -3763763.438 6  -2814838.27621        19.250           1.094
  18739861.560   -11240523.951 7  -8699943.32524        26.000           4.375
  21850786.575    -5560160.845 5  -4104211.87721         9.250           0.344
  18683595.825   -28822872.661 7 -22183227.62623        26.500           3.406
 91  7 27  2 33 44.9930000  0  4G 3G17G21G23
  19854079.771    -3744285.541 6  -2799660.72521        18.750           1.250
  18738840.060   -11245895.458 7  -8704128.91824        26.250           4.313
  21837286.192    -5631098.645 5  -4159487.98521        10.250           0.375
  18676450.599   -28860423.618 7 -22212488.09924        26.250           3.500
 91  7 27  2 33 59.9930000  0  4G 3G17G21G23
  19857812.849    -3724707.218 6  -2784404.92121        19.750           1.125
  18737828.575   -11251206.751 7  -8708267.59424        26.250           4.375
  21823788.091    -5702000.921 5  -4214736.40421        10.500           0.438
  18669323.974   -28897871.585 7 -22241668.32523        26.250           3.344
 91  7 27  2 34 14.9930000  0  4G 3G17G21G23
  19861554.403    -3705031.909 6  -2769073.54621        19.750           1.188
  18736828.247   -11256460.928 7  -8712361.75924        26.000           4.313
  21810304.442    -5772870.642 5  -4269959.49121        10.750           0.344
  18662213.364   -28935219.815 7 -22270770.82523        25.750           3.406
 91  7 27  2 34 29.9930000  0  4G 3G17G21G23
  19865319.099    -3685255.425 6  -2753663.33021        19.000           1.031
  18735843.364   -11261653.936 7  -8716408.27124        26.750           4.406
  21796829.341    -5843703.543 5  -4325153.84121        10.500           0.406
  18655129.919   -28972464.046 7 -22299792.29623        26.250           3.406
 91  7 27  2 34 44.9930000  0  4G 3G17G21G23
  19869099.521    -3665376.167 6  -2738173.03121        18.750           1.188
  18734864.138   -11266784.362 7  -8720406.01324        26.750           4.438
  21783350.974    -5914497.709 5  -4380318.04621        10.250           0.344
  18648060.333   -29009602.856 7 -22328731.61123        26.000           3.281
 91  7 27  2 34 59.9930000  0  4G 3G17G21G23
  19872901.435    -3645394.589 6  -2722603.00821        18.750           1.125
  18733899.107   -11271852.103 7  -8724354.91024        26.250           4.344
  21769882.138    -5985253.080 5  -4435452.01721        10.250           0.500
  18641014.692   -29046636.191 7 -22357588.74723        26.250           3.469
 91  7 27  2 35 14.9930000  0  4G 3G17G21G23
  19876724.192    -3625310.628 6  -2706953.20721        18.500           1.063
  18732947.552   -11276857.311 7  -8728255.08024        26.250           4.375
  21756426.021    -6055969.407 5  -4490555.54821         9.500           0.625
  18633989.591   -29083564.151 7 -22386363.76823        27.000           3.375
 91  7 27  2 35 29.9930000  0  4G 3G17G21G23
  19880565.513    -3605124.257 6  -2691223.59721        19.000           1.000
  18732008.341   -11281799.654 7  -8732106.26324        26.250           4.281
  21742979.677    -6126646.224 5  -4545628.27221         9.750           0.469
  18626980.450   -29120386.192 7 -22415056.25423        26.750           3.375
 91  7 27  2 35 44.9930000  0  4G 3G17G21G23
  19884429.224    -3584838.335 6  -2675416.41521        19.500           0.938
  18731078.810   -11286681.806 7  -8735910.54124        26.000           4.156
  21729546.286    -6197286.088 5  -4600672.21621        10.750           0.438
  18619991.114   -29157104.963 7 -22443668.26523        26.250           3.344
 91  7 27  2 35 59.9930000  0  4G 3G17G21G23
  19888308.685    -3564450.195 6  -2659529.59321        19.750           1.000
  18730161.763   -11291500.926 7  -8739665.71324        25.750           4.125
  21716102.849    -6267886.217 5  -4655685.21721        10.250           0.531
  18613026.442   -29193717.955 7 -22472197.85823        26.500           3.344
 91  7 27  2 36 14.9930000  0  4G 3G17G21G23
  19892206.661    -3543959.797 6  -2643563.07721        19.750           1.031
  18729256.067   -11296256.748 7  -8743371.55724        25.500           4.156
  21702675.630    -6338446.161 5  -4710666.90221        10.000           0.563
  18606077.044   -29230224.956 7 -22500644.85823        26.250           3.313
 91  7 27  2 36 29.9930000  0  4G 3G17G21G23
  19896123.107    -3523367.560 6  -2627517.22421        18.500           1.125
  18728366.013   -11300949.716 7  -8747028.42124        26.750           4.250
  21689263.192    -6408965.970 5  -4765617.28821        10.500           0.688
  18599151.607   -29266626.077 7 -22529009.35623        26.500           3.313
 91  7 27  2 36 44.9930000  0  4G 3G17G21G23
  19900060.607    -3502674.324 6  -2611392.66021        18.500           1.000
  18727483.083   -11305580.645 7  -8750636.95324        26.000           4.250
  21675852.911    -6479446.111 5  -4820536.77621        11.500           0.594
  18592246.521   -29302922.024 7 -22557291.89523        27.000           3.281
 91  7 27  2 36 59.9930000  0  4G 3G17G21G23
  19904019.325    -3481880.303 6  -2595189.55621        18.750           1.000
  18726611.802   -11310149.551 7  -8754197.14824        26.000           4.219
  21662445.341    -6549886.545 5  -4875425.32621        11.750           0.594
  18585357.294   -29339112.920 7 -22585492.58623        26.000           3.313
 91  7 27  2 37 14.9930000  0  4G 3G17G21G23
  19907994.560    -3460984.779 6  -2578907.37421        18.500           1.000
  18725756.333   -11314655.542 7  -8757708.31924        26.750           4.219
  21649041.278    -6620286.253 5  -4930282.16121        10.000           0.500
  18578492.560   -29375197.955 7 -22613610.77923        26.500           3.313
 91  7 27  2 37 29.9930000  0  4G 3G17G21G23
  19911991.739    -3439988.697 6  -2562546.83121        19.000           1.063
  18724908.716   -11319099.359 7  -8761171.04824        26.250           4.281
  21635655.349    -6690645.748 5  -4985107.63021         9.750           0.563
  18571643.067   -29411177.846 7 -22641647.04323        26.000           3.375
 91  7 27  2 37 44.9930000  0  4G 3G17G21G23
  19916006.302    -3418889.856 6  -2546106.20921        18.500           1.063
  18724074.646   -11323478.736 7  -8764583.55724        25.250           4.250
  21622277.396    -6760962.628 5  -5039899.89121        11.250           0.563
  18564817.544   -29447050.198 7 -22669599.51623        26.500           3.344
 91  7 27  2 37 59.9930000  0  4G 3G17G21G23
  19920039.833    -3397689.561 6  -2529586.54421        17.750           1.031
  18723252.997   -11327794.935 7  -8767946.84424        26.250           4.250
  21608902.310    -6831237.589 5  -5094659.50721        10.750           0.563
  18558012.794   -29482815.945 7 -22697468.91523        26.750           3.344
 91  7 27  2 38 14.9930000  0  4G 3G17G21G23
  19924093.239    -3376387.596 6  -2512987.64121        18.000           0.938
  18722445.013   -11332047.602 7  -8771260.62024        26.500           4.250
  21595538.364    -6901470.426 5  -5149386.28821        10.500           0.500
  18551225.653   -29518475.126 7 -22725255.27723        26.500           3.344
 91  7 27  2 38 29.9930000  0  4G 3G17G21G23
  19928164.153    -3354987.520 6  -2496312.29621        18.250           1.063
  18721646.755   -11336239.997 7  -8774527.43124        26.000           4.188
  21582174.950    -6971664.063 5  -5204082.53321        11.000           0.594
  18544460.927   -29554030.823 7 -22752961.00723        26.250           3.313
 91  7 27  2 38 44.9930000  0  4G 3G17G21G23
  19932254.935    -3333482.812 6  -2479555.42121        18.000           1.000
  18720863.724   -11340365.676 7  -8777742.26224        26.750           4.188
  21568830.638    -7041811.925 5  -5258743.11321        11.500           0.563
  18537715.489   -29589476.529 7 -22780581.02123        25.750           3.250
 91  7 27  2 38 59.9930000  0  4G 3G17G21G23
  19936367.005    -3311875.704 6  -2462718.74921        18.250           1.031
  18720087.817   -11344426.621 7  -8780906.63624        26.000           4.094
  21555490.286    -7111915.970 5  -5313369.54621        11.250           0.563
  18530986.599   -29624814.385 7 -22808116.99823        25.750           3.313
 91  7 27  2 39 14.9930000  0  4G 3G17G21G23
  19940502.028    -3290166.246 6  -2445802.32121        18.250           1.000
  18719329.552   -11348422.838 7  -8784020.59024        26.250           4.250
  21542157.544    -7181975.814 5  -5367961.52221        10.500           0.531
  18524288.732   -29660044.412 7 -22835568.95523        26.500           3.219
 91  7 27  2 39 29.9930000  0  4G 3G17G21G23
  19944649.208    -3268357.921 6  -2428808.86921        17.500           0.875
  18718581.685   -11352357.395 7  -8787086.48524        26.500           4.281
  21528834.435    -7251994.379 5  -5422521.32221        10.750           0.594
  18517603.974   -29695169.649 7 -22862939.25923        26.750           3.188
 91  7 27  2 39 44.9930000  0  4G 3G17G21G23
  19948821.052    -3246450.416 6  -2411738.12521        18.500           0.969
  18717842.513   -11356229.982 7  -8790104.09724        26.000           4.375
  21515514.411    -7321971.208 5  -5477048.63421        11.000           0.563
  18510937.505   -29730189.608 7 -22890227.52523        26.000           3.313
 91  7 27  2 39 59.9930000  0  4G 3G17G21G23
  19953007.810    -3224444.198 6  -2394590.46321        18.500           0.813
  18717117.583   -11360041.034 7  -8793073.76024        26.250           4.313
  21502212.700    -7391906.328 5  -5531543.42321        11.500           0.656
  18504294.638   -29765104.860 7 -22917434.20223        26.000           3.188
 91  7 27  2 40 14.9930000  0  4G 3G17G21G23
  19957215.575    -3202339.473 6  -2377366.03221        18.250           0.875
  18716405.435   -11363790.485 7  -8795995.41924        26.750           4.406
  21488916.575    -7461799.677 5  -5586005.65721        11.500           0.594
  18497671.114   -29799915.208 7 -22944559.13723        26.000           3.219
 91  7 27  2 40 29.9930000  0  4G 3G17G21G23
  19961437.864    -3180133.214 6  -2360062.50721        17.250           0.875
  18715703.114   -11367475.060 7  -8798866.52224        26.500           4.344
  21475621.474    -7531647.949 6  -5640432.78821        12.000           0.594
  18491065.607   -29834617.463 7 -22971599.84923        26.500           3.125
 91  7 27  2 40 44.9930000  0  4G 3G17G21G23
  19965687.513    -3157826.716 6  -2342680.85321        18.000           0.906
  18715014.528   -11371096.096 7  -8801688.12624        26.500           4.438
  21462330.427    -7601452.122 5  -5694825.54921        11.500           0.594
  18484484.989   -29869212.867 7 -22998557.29223        27.000           3.094
 91  7 27  2 40 59.9930000  0  4G 3G17G21G23
  19969946.544    -3135421.192 6  -2325222.04821        17.750           0.906
  18714338.646   -11374654.827 7  -8804461.16924        26.750           4.313
  21449063.357    -7671213.054 5  -5749184.64121        11.250           0.563
  18477921.482   -29903702.606 7 -23025432.40023        26.500           3.250
 91  7 27  2 41 14.9930000  0  4G 3G17G21G23
  19974233.114    -3112918.733 6  -2307687.71321        18.000           0.781
  18713670.903   -11378152.831 7  -8807186.89524        26.500           4.313
  21435785.583    -7740932.535 5  -5803511.39321        10.500           0.594
  18471377.919   -29938088.578 7 -23052226.65823        26.750           3.250
 91  7 27  2 41 29.9930000  0  4G 3G17G21G23
  19978532.739    -3090316.076 6  -2290075.29021        18.250           0.781
  18713019.989   -11381586.823 7  -8809862.73724        27.250           4.250
  21422530.778    -7810606.954 5  -5857803.03621        11.250           0.563
  18464853.536   -29972367.263 7 -23078937.30523        26.250           3.156
 91  7 27  2 41 44.9930000  0  4G 3G17G21G23
  19982853.521    -3067614.554 6  -2272385.83421        18.000           0.844
  18712377.138   -11384958.143 7  -8812489.75024        27.250           4.344
  21409281.396    -7880237.385 5  -5912060.42721        11.000           0.563
  18458350.708   -30006539.938 7 -23105565.34823        26.500           3.063
 91  7 27  2 41 59.9930000  0  4G 3G17G21G23
  19987192.013    -3044816.578 6  -2254621.22221        17.500           0.813
  18711747.638   -11388268.782 7  -8815069.47424        27.000           4.281
  21396035.278    -7949825.755 5  -5966285.02021        10.750           0.469
  18451867.489   -30040608.592 7 -23132112.34423        27.000           3.250
 91  7 27  2 42 14.9930000  0  4G 3G17G21G23
  19991547.239    -3021921.260 6  -2236780.76321        17.250           0.781
  18711128.372   -11391517.799 7  -8817601.18424        26.750           4.188
  21382807.677    -8019370.915 5  -6020475.96721        11.250           0.594
  18445404.935   -30074572.352 7 -23158577.60223        26.750           3.094
 91  7 27  2 42 29.9930000  0  4G 3G17G21G23
  19995920.942    -2998928.106 6  -2218864.05521        17.250           0.813
  18710520.271   -11394704.462 7  -8820084.30024        26.750           4.188
  21369584.060    -8088871.984 6  -6074632.53321        12.250           0.688
  18438962.380   -30108430.600 7 -23184960.64023        26.750           3.188
 91  7 27  2 42 44.9930000  0  4G 3G17G21G23
  20000316.661    -2975834.798 6  -2200869.31921        17.250           0.750
  18709926.794   -11397826.293 7  -8822516.90724        26.500           4.156
  21356362.778    -8158326.496 5  -6128752.82221        11.750           0.656
  18432538.536   -30142181.007 7 -23211259.64323        27.250           3.063
 91  7 27  2 42 59.9930000  0  4G 3G17G21G23
  20004731.638    -2952644.041 6  -2182798.64021        18.000           0.813
  18709347.091   -11400885.988 7  -8824901.09024        27.000           4.094
  21343157.708    -8227736.624 5  -6182838.54821        11.500           0.625
  18426136.341   -30175825.880 7 -23237476.42023        27.000           3.125
 91  7 27  2 43 14.9930000  0  4G 3G17G21G23
  20009159.614    -2929352.630 6  -2164649.53521        16.500           0.813
  18708779.286   -11403880.247 7  -8827234.28624        27.750           4.063
  21329956.732    -8297098.810 5  -6236886.91721        11.500           0.625
  18419755.263   -30209361.852 7 -23263608.33123        27.500           3.188
 91  7 27  2 43 29.9930000  0  4G 3G17G21G23
  20013616.060    -2905962.201 6  -2146423.26721        17.000           0.875
  18708220.364   -11406810.656 7  -8829517.72624        27.500           4.156
  21316767.755    -8366414.436 5  -6290898.98721        11.500           0.563
  18413393.755   -30242790.621 7 -23289656.71723        27.500           3.156
 91  7 27  2 43 44.9930000  0  4G 3G17G21G23
  20018083.044    -2882472.813 6  -2128119.89821        16.750           0.938
  18707672.364   -11409676.796 7  -8831751.08924        26.750           4.063
  21303583.052    -8435683.015 5  -6344874.41221        11.500           0.656
  18407051.536   -30276111.962 7 -23315621.38923        27.500           3.094
 91  7 27  2 43 59.9930000  0  4G 3G17G21G23
  20022569.028    -2858885.296 6  -2109740.05421        16.500           0.875
  18707139.786   -11412479.542 7  -8833935.05224        27.250           4.000
  21290411.271    -8504905.266 5  -6398813.73321        11.500           0.719
  18400732.067   -30309326.544 7 -23341502.87223        27.000           3.094
 91  7 27  2 44 14.9930000  0  4G 3G17G21G23
  20027078.302    -2835201.930 6  -2091285.53521        16.500           0.875
  18706616.622   -11415220.770 7  -8836071.07524        26.250           3.875
  21277248.200    -8574083.086 6  -6452718.42021        12.500           0.688
  18394432.271   -30342436.558 7 -23367302.87623        27.500           3.063
 91  7 27  2 44 29.9930000  0  4G 3G17G21G23
  20031604.169    -2811423.085 6  -2072756.61421        16.000           0.875
  18706108.778   -11417900.917 7  -8838159.51024        27.250           3.844
  21264095.919    -8643216.427 6  -6506588.46321        12.500           0.688
  18388150.247   -30375442.145 7 -23393021.50223        27.250           3.000
 91  7 27  2 44 44.9930000  0  4G 3G17G21G23
  20036146.911    -2787545.219 6  -2054150.52421        16.750           0.875
  18705610.130   -11420516.117 7  -8840197.33124        27.000           3.781
  21250943.036    -8712301.315 6  -6560420.74821        12.250           0.688
  18381889.661   -30408339.583 7 -23418655.85923        27.000           3.094
 91  7 27  2 44 59.9930000  0  4G 3G17G21G23
  20040709.575    -2763571.617 6  -2035469.85121        16.750           0.906
  18705123.575   -11423069.678 7  -8842187.12424        26.500           3.750
  21237807.927    -8781340.905 6  -6614217.74021        12.250           0.625
  18375648.864   -30441132.045 7 -23444208.41723        27.250           3.094
 91  7 27  2 45 14.9930000  0  4G 3G17G21G23
  20045290.169    -2739498.844 6  -2016711.89121        16.250           0.781
  18704652.060   -11425557.904 7  -8844126.01024        26.500           3.875
  21224684.825    -8850331.321 6  -6667976.39121        12.250           0.625
  18369431.552   -30473815.968 7 -23469676.39923        27.750           3.000
 91  7 27  2 45 29.9930000  0  4G 3G17G21G23
  20049891.450    -2715329.588 6  -1997878.74521        16.750           0.875
  18704187.302   -11427983.275 7  -8846015.91524        26.250           3.875
  21211557.060    -8919275.055 6  -6721698.68221        12.000           0.563
  18363228.435   -30506394.048 7 -23495061.90423        27.250           3.000
 91  7 27  2 45 44.9930000  0  4G 3G17G21G23
  20054504.989    -2691065.940 6  -1978972.05821        16.000           0.844
  18703741.060   -11430347.696 7  -8847858.32624        27.250           3.844
  21198454.294    -8988173.676 6  -6775385.85721        12.500           0.594
  18357050.763   -30538867.822 7 -23520366.13223        27.250           3.031
 91  7 27  2 45 59.9930000  0  4G 3G17G21G23
  20059142.903    -2666705.797 6  -1959990.16821        16.250           0.813
  18703300.607   -11432649.232 7  -8849651.73124        26.500           3.781
  21185347.216    -9057024.737 6  -6829035.92321        12.250           0.625
  18350891.857   -30571235.258 8 -23545587.50223        28.000           3.031
 91  7 27  2 46 14.9930000  0  4G 3G17G21G23
  20063790.302    -2642251.023 6  -1940934.55121        15.750           0.781
  18702877.536   -11434889.152 7  -8851397.13324        26.750           3.781
  21172260.036    -9125829.651 6  -6882650.05821        13.000           0.656
  18344750.677   -30603497.881 7 -23570727.20323        27.500           2.969
 91  7 27  2 46 29.9930000  0  4G 3G17G21G23
  20068468.005    -2617698.173 6  -1921802.51821        16.000           0.844
  18702463.169   -11437063.975 7  -8853091.80624        26.250           3.781
  21159163.325    -9194584.828 6  -6936225.43121        12.250           0.750
  18338636.653   -30635652.176 8 -23595782.48523        28.250           3.000
 91  7 27  2 46 44.9930000  0  4G 3G17G21G23
  20073160.810    -2593051.670 6  -1902597.49321        16.250           0.844
  18702060.294   -11439177.934 7  -8854739.05724        26.000           3.719
  21146095.888    -9263294.346 6  -6989765.24221        12.750           0.656
  18332534.911   -30667702.580 8 -23620756.81623        28.000           2.906
 91  7 27  2 46 59.9930000  0  4G 3G17G21G23
  20077869.653    -2568310.029 6  -1883318.33821        16.250           0.656
  18701670.528   -11441229.556 7  -8856337.71924        26.250           3.875
  21133033.411    -9331956.253 6  -7043267.91921        13.250           0.656
  18326457.435   -30699647.327 8 -23645648.82423        28.250           2.844
 91  7 27  2 47 14.9930000  0  4G 3G17G21G23
  20082593.747    -2543469.969 6  -1863962.48721        16.500           0.719
  18701289.802   -11443215.489 7  -8857885.20524        25.250           3.844
  21119976.192    -9400567.161 6  -7096730.88321        13.250           0.813
  18320398.232   -30731483.093 8 -23670455.90623        28.250           2.938
 91  7 27  2 47 29.9930000  0  4G 3G17G21G23
  20087338.763    -2518533.694 6  -1844531.67321        16.250           0.750
  18700925.724   -11445137.544 7  -8859382.92124        26.500           3.875
  21106927.778    -9469128.697 6  -7150155.37321        13.000           0.625
  18314357.567   -30763211.824 7 -23695179.58123        27.500           3.000
 91  7 27  2 47 44.9930000  0  4G 3G17G21G23
  20092104.192    -2493503.149 6  -1825027.40421        16.750           0.750
  18700571.325   -11446997.412 7  -8860832.16924        26.000           3.875
  21093889.614    -9537642.638 6  -7203542.76421        12.250           0.656
  18308343.724   -30794835.472 8 -23719821.38023        28.500           2.844
 91  7 27  2 47 59.9930000  0  4G 3G17G21G23
  20096884.521    -2468378.428 6  -1805449.74221        16.750           0.813
  18700229.232   -11448795.032 7  -8862232.92124        26.250           3.750
  21080864.942    -9606108.577 6  -7256892.76921        13.250           0.719
  18302342.880   -30826353.830 7 -23744381.13023        27.750           2.875
 91  7 27  2 48 14.9920000  0  4G 3G17G21G23
  20101683.024    -2443162.747 6  -1785801.21521        16.500           0.750
  18699897.586   -11450531.635 7  -8863586.12624        25.250           3.813
  21067845.008    -9674523.222 6  -7310202.80321        13.250           0.719
  18296365.609   -30857766.254 8 -23768858.33623        28.250           2.875
 91  7 27  2 48 29.9920000  0  4G 3G17G21G23
  20106498.180    -2417849.610 6  -1766076.72821        15.500           0.719
  18699582.320   -11452204.119 7  -8864889.36924        27.000           3.906
  21054822.078    -9742891.955 6  -7363477.04821        12.750           0.750
  18290408.609   -30889073.491 7 -23793253.57723        27.750           2.844
 91  7 27  2 48 44.9920000  0  4G 3G17G21G23
  20111335.922    -2392439.517 6  -1746276.70421        16.500           0.781
  18699275.438   -11453811.005 7  -8866141.48724        26.250           3.844
  21041830.383    -9811208.892 6  -7416710.94921        13.500           0.719
  18284472.922   -30920272.174 8 -23817564.23623        28.000           2.813
 91  7 27  2 48 59.9920000  0  4G 3G17G21G23
  20116186.859    -2366935.824 6  -1726403.74721        16.000           0.625
  18698980.586   -11455355.517 7  -8867345.01024        25.750           3.844
  21028842.828    -9879477.128 6  -7469906.90621        13.500           0.656
  18278554.109   -30951365.473 8 -23841792.77123        28.250           2.719
 91  7 27  2 49 14.9920000  0  4G 3G17G21G23
  20121061.274    -2341338.889 6  -1706458.11321        16.250           0.688
  18698698.891   -11456838.203 7  -8868500.35324        26.250           3.938
  21015859.211    -9947696.646 6  -7523064.89521        13.000           0.750
  18272658.656   -30982353.723 8 -23865939.45223        28.500           2.906
 91  7 27  2 49 29.9920000  0  4G 3G17G21G23
  20125949.109    -2315656.005 6  -1686445.51721        16.750           0.813
  18698427.555   -11458265.930 7  -8869612.87324        25.500           3.906
  21002881.828   -10015874.376 6  -7576190.32321        12.750           0.750
  18266783.078   -31013243.901 8 -23890009.71523        28.750           2.844
 91  7 27  2 49 44.9920000  0  4G 3G17G21G23
  20130851.617    -2289888.605 6  -1666367.06221        15.500           0.688
  18698164.742   -11459639.714 7  -8870683.36324        25.750           4.000
  20989916.242   -10084011.188 6  -7629283.85621        13.000           0.875
  18260920.617   -31044037.256 8 -23914004.52823        28.500           2.781
 91  7 27  2 49 59.9920000  0  4G 3G17G21G23
  20135770.852    -2264027.547 6  -1646215.64421        16.000           0.750
  18697916.031   -11460950.289 7  -8871704.59424        25.500           4.000
  20976960.703   -10152097.799 6  -7682338.27021        13.000           0.719
  18255081.828   -31074724.789 8 -23937916.88223        28.750           2.781
 91  7 27  2 50 14.9920000  0  4G 3G17G21G23
  20140709.024    -2238076.191 6  -1625993.84221        15.250           0.688
  18697677.867   -11462201.126 7  -8872679.28424        25.250           3.906
  20964007.617   -10220137.133 6  -7735355.85321        12.750           0.781
  18249259.992   -31105309.484 8 -23961749.10723        28.500           2.813
 91  7 27  2 50 29.9920000  0  4G 3G17G21G23
  20145664.227    -2212033.960 6  -1605701.24421        15.500           0.719
  18697451.703   -11463391.276 7  -8873606.67724        25.250           3.969
  20951077.570   -10288128.097 6  -7788335.75221        13.500           0.750
  18243461.492   -31135790.388 8 -23985500.45223        28.500           2.750
 91  7 27  2 50 44.9920000  0  4G 3G17G21G23
  20150635.289    -2185898.492 6  -1585335.99021        15.500           0.688
  18697238.453   -11464518.260 7  -8874484.85124        25.000           4.031
  20938143.859   -10356068.086 6  -7841275.92221        13.250           0.844
  18237683.524   -31166165.264 8 -24009169.18023        29.000           2.844
 91  7 27  2 50 59.9920000  0  4G 3G17G21G23
  20155627.203    -2159670.675 6  -1564898.77121        14.250           0.813
  18697037.375   -11465582.749 7  -8875314.33124        25.250           4.094
  20925232.125   -10423957.860 6  -7894176.97321        13.750           0.719
  18231921.047   -31196434.854 8 -24032755.86223        28.750           2.781
 91  7 27  2 51 14.9920000  0  4G 3G17G21G23
  20160635.391    -2133353.180 6  -1544391.67621        15.250           0.625
  18696842.469   -11466587.239 7  -8876097.06224        25.500           4.125
  20912321.649   -10491799.719 6  -7947040.69721        13.500           0.813
  18226179.484   -31226601.661 8 -24056262.45823        28.250           2.781
 91  7 27  2 51 29.9920000  0  4G 3G17G21G23
  20165661.024    -2106943.228 6  -1523812.55021        15.750           0.688
  18696665.524   -11467528.602 7  -8876830.59224        25.750           4.000
  20899417.313   -10559590.428 6  -7999864.54621        12.750           0.813
  18220459.406   -31256662.739 8 -24079686.66423        28.500           2.813
 91  7 27  2 51 44.9920000  0  4G 3G17G21G23
  20170701.563    -2080433.398 6  -1503155.57721        15.500           0.719
  18696499.695   -11468399.211 7  -8877508.98824        24.750           4.031
  20886529.445   -10627322.162 6  -8052642.43921        13.250           0.781
  18214760.469   -31286610.566 8 -24103022.62923        28.750           2.844
 91  7 27  2 51 59.9920000  0  4G 3G17G21G23
  20175772.133    -2053827.907 6  -1482424.07121        15.750           0.656
  18696348.063   -11469203.205 7  -8878135.48724        25.000           4.125
  20873652.656   -10694998.655 6  -8105377.30321        13.000           0.938
  18209083.703   -31316448.999 8 -24126273.34723        29.000           2.813
 91  7 27  2 52 14.9920000  0  4G 3G17G21G23
  20180845.766    -2027131.172 6  -1461621.46521        15.000           0.594
  18696206.297   -11469945.163 7  -8878713.64424        25.500           4.313
  20860785.992   -10762624.222 6  -8158072.45721        13.250           0.844
  18203424.641   -31346182.522 8 -24149442.31723        28.500           2.813
 91  7 27  2 52 29.9920000  0  4G 3G17G21G23
  20185947.227    -2000344.210 6  -1440748.55121        15.500           0.531
  18696075.219   -11470625.495 7  -8879243.77924        25.750           4.125
  20847925.383   -10830199.260 6  -8210728.26421        13.750           0.938
  18197785.531   -31375811.762 8 -24172530.02623        28.250           2.781
 91  7 27  2 52 44.9920000  0  4G 3G17G21G23
  20191060.180    -1973465.443 6  -1419804.10421        14.500           0.563
  18695956.906   -11471242.442 7  -8879724.51624        25.000           4.031
  20835073.828   -10897721.949 6  -8263343.26821        13.750           0.813
  18192167.102   -31405334.914 8 -24195535.07323        28.500           2.750
 91  7 27  2 52 59.9920000  0  4G 3G17G21G23
  20196194.883    -1946494.258 6  -1398787.62421        14.750           0.625
  18695848.914   -11471795.468 7  -8880155.45224        24.750           4.063
  20822236.211   -10965191.363 6  -8315916.76421        14.000           0.781
  18186572.281   -31434751.534 8 -24218457.10323        29.000           2.656
 91  7 27  2 53 14.9920000  0  4G 3G17G21G23
  20201343.649    -1919435.007 6  -1377702.55621        15.250           0.625
  18695757.203   -11472288.406 7  -8880539.56224        24.750           4.063
  20809403.469   -11032611.423 6  -8368451.80721        13.000           0.813
  18180992.078   -31464065.591 8 -24241299.21823        28.750           2.813
 91  7 27  2 53 29.9920000  0  4G 3G17G21G23
  20206509.867    -1892286.879 6  -1356548.19921        14.500           0.594
  18695676.500   -11472720.264 7  -8880876.08524        25.750           4.125
  20796584.172   -11099980.962 6  -8420947.46721        13.500           0.750
  18175433.758   -31493276.229 8 -24264060.74723        28.500           2.781
 91  7 27  2 53 44.9920000  0  4G 3G17G21G23
  20211691.055    -1865046.927 6  -1335322.33121        14.000           0.563
  18695607.063   -11473088.104 7  -8881162.72324        25.500           4.063
  20783778.664   -11167296.700 6  -8473401.22821        14.000           0.875
  18169894.391   -31522380.338 8 -24286739.26423        28.750           2.813
 91  7 27  2 53 59.9920000  0  4G 3G17G21G23
  20216896.539    -1837715.244 6  -1314024.94721        15.250           0.688
  18695548.617   -11473392.145 7  -8881399.64924        25.250           4.063
  20770970.531   -11234558.542 6  -8525812.97421        13.500           0.844
  18164377.156   -31551378.154 8 -24309334.95523        28.750           2.750
 91  7 27  2 54 14.9920000  0  4G 3G17G21G23
  20222113.297    -1810295.473 6  -1292658.95721        14.250           0.594
  18695501.094   -11473635.322 7  -8881589.14324        25.500           4.000
  20758184.695   -11301769.487 6  -8578185.07121        13.750           0.875
  18158878.024   -31580272.669 8 -24331850.15123        28.750           2.781
 91  7 27  2 54 29.9920000  0  4G 3G17G21G23
  20227342.719    -1782787.538 6  -1271224.22821        13.500           0.719
  18695468.539   -11473817.493 7  -8881731.10824        25.750           4.125
  20745406.516   -11368929.257 6  -8630517.29521        14.000           0.844
  18153399.734   -31609063.688 8 -24354284.70123        29.000           2.750
 91  7 27  2 54 44.9920000  0  4G 3G17G21G23
  20232599.320    -1755190.672 6  -1249720.24321        14.250           0.750
  18695444.281   -11473937.773 7                        25.000
  20732639.125   -11436036.710 6  -8682808.75821        13.750           0.875
  18147941.344   -31637750.412 8 -24376637.98323        29.250           2.844
 91  7 27  2 54 59.9920000  0  4G 3G17G21G23
  20237866.664    -1727504.074 6  -1228146.31021        14.000           0.594
  18695436.492   -11473995.039 7                        25.250
  20719877.469   -11503090.595 6  -8735058.45521        13.750           0.844
  18142503.047   -31666331.819 8 -24398909.20023        29.000           2.844
 91  7 27  2 55 14.9920000  0  4G 3G17G21G23
  20243158.406    -1699726.746 6  -1206501.68121        15.250           0.625
  18695435.852   -11473988.067 7                        24.750
  20707119.922   -11570089.547 6  -8787265.36121        13.500           0.844
  18137082.336   -31694806.688 8 -24421097.39723        28.750           2.844
 91  7 27  2 55 29.9920000  0  4G 3G17G21G23
  20248456.602    -1671867.018 6  -1184792.85321        14.500           0.719
  18695447.774   -11473925.286 7                        26.000
  20694381.602   -11637041.689 6  -8839435.80021        13.750           0.813
  18131682.531   -31723183.449 8 -24443209.15223        28.250           2.844
 91  7 27  2 55 44.9920000  0  4G 3G17G21G23
  20253769.336    -1643930.761 6  -1163024.41221        14.500           0.625
  18695470.859   -11473812.022 7                        25.750
  20681651.539   -11703952.379 6  -8891573.93021        14.000           0.813
  18126302.899   -31751467.625 8 -24465248.75923        28.750           2.719
 91  7 27  2 55 59.9920000  0  4G 3G17G21G23
  20259104.516    -1615906.964 6  -1141187.72121        14.000           0.781
  18695502.727   -11473637.305 7                        26.000
  20668924.688   -11770810.216 6  -8943670.88821        14.000           0.781
  18120936.859   -31779648.299 8 -24487207.71923        28.250           2.719
 91  7 27  2 56 14.9920000  0  4G 3G17G21G23
  20264460.297    -1587778.756 6  -1119269.70021        14.750           0.625
  18695552.156   -11473383.964 7                        26.000
  20656217.789   -11837598.035 6  -8995713.28621        14.000           0.781
  18115599.813   -31807708.230 8 -24509072.59123        28.500           2.781
 91  7 27  2 56 29.9920000  0  4G 3G17G21G23
  20269829.375    -1559563.776 6  -1097284.03421        14.500           0.625
  18695612.664   -11473069.221 7  -8881148.13424        26.000           4.188
  20643519.563   -11904333.129 6  -9047714.60021        14.250           0.813
  18110278.453   -31835664.886 8 -24530856.98723        28.000           2.750
 91  7 27  2 56 44.9920000  0  4G 3G17G21G23
  20275211.188    -1531257.527 6  -1075227.27921        13.750           0.719
  18695681.063   -11472688.700 7  -8880851.63324        25.750           4.063
  20630829.820   -11971010.671 6  -9099671.05821        14.500           0.875
  18104980.086   -31863513.645 8 -24552557.31223        28.500           2.781
 91  7 27  2 56 59.9920000  0  4G 3G17G21G23
  20280615.313    -1502864.449 6  -1053102.86021        14.000           0.594
  18695769.258   -11472246.521 7  -8880507.09324        26.000           3.969
  20618156.149   -12037634.549 6  -9151585.71421        14.500           0.906
  18099700.008   -31891258.571 8 -24574176.72423        28.500           2.719
 91  7 27  2 57 14.9920000  0  4G 3G17G21G23
  20286037.969    -1474384.790 6  -1030910.96321        14.500           0.719
  18695860.539   -11471742.746 7  -8880114.54924        25.500           4.000
  20605485.149   -12104204.868 6  -9203458.62721        14.000           0.844
  18094441.242   -31918900.198 8 -24595715.64623        29.000           2.719
 91  7 27  2 57 29.9920000  0  4G 3G17G21G23
  20291471.844    -1445830.315 6  -1008660.78521        14.500           0.656
  18695967.781   -11471189.082 7  -8879683.13824        26.000           4.000
  20592826.805   -12170732.887 6  -9255298.57721        14.250           0.875
  18089194.992   -31946450.055 8 -24617183.05523        28.000           2.719
 91  7 27  2 57 44.9920000  0  4G 3G17G21G23
  20296914.930    -1417186.704 6   -986341.14721        13.000           0.625
  18696088.547   -11470570.729 7  -8879201.31924        26.500           3.906
  20580177.938   -12237204.018 6  -9307094.20421        14.250           1.000
  18083974.164   -31973893.573 8 -24638567.60423        28.250           2.813
 91  7 27  2 57 59.9920000  0  4G 3G17G21G23
  20302386.750    -1388447.840 6   -963947.28121        13.250           0.656
  18696217.367   -11469881.432 7  -8878664.21224        26.500           3.750
  20567538.899   -12303611.716 6  -9358840.39921        14.250           0.875
  18078773.649   -32001224.295 8 -24659864.26223        28.250           2.688
 91  7 27  2 58 14.9920000  0  4G 3G17G21G23
  20307874.086    -1359625.165 6   -941488.11121        14.000           0.594
  18696360.000   -11469132.300 7  -8878080.48724        26.250           3.813
  20554913.000   -12369967.053 6  -9410545.79921        14.750           0.938
  18073592.414   -32028453.490 8 -24681081.80523        28.500           2.813
 91  7 27  2 58 29.9920000  0  4G 3G17G21G23
  20313373.836    -1330724.243 6   -918967.96021        14.000           0.625
  18696510.531   -11468328.767 7  -8877454.37324        26.000           3.781
  20542297.086   -12436275.199 6  -9462214.42221        15.250           1.000
  18068426.774   -32055586.707 8 -24702224.56223        28.000           2.813
 91  7 27  2 58 44.9920000  0  4G 3G17G21G23
  20318893.258    -1301724.936 6   -896371.14921        14.250           0.500
  18696680.094   -11467450.757 7  -8876770.22224        26.750           3.719
  20529689.438   -12502515.717 6  -9513830.35321        14.500           1.031
  18063285.969   -32082603.748 8 -24723276.79023        28.000           2.844
 91  7 27  2 58 59.9920000  0  4G 3G17G21G23
  20324425.039    -1272639.587 6   -873707.29621        14.000           0.594
  18696860.399   -11466510.234 7  -8876037.35024        26.250           3.688
  20517097.227   -12568700.558 6  -9565402.90421        15.000           0.969
  18058165.914   -32109516.456 8 -24744247.72323        28.250           2.781
 91  7 27  2 59 14.9920000  0  4G 3G17G21G23
  20329979.820    -1243474.608 6   -850981.37521        14.250           0.469
  18697049.719   -11465513.269 7  -8875260.50824        25.750           3.750
  20504507.352   -12634835.787 6  -9616936.79121        14.250           0.906
  18053062.094   -32136331.345 8 -24765142.43223        28.000           2.688
 91  7 27  2 59 29.9920000  0  4G 3G17G21G23
  20335542.977    -1214220.804 6   -828186.26021        14.500           0.563
  18697251.813   -11464450.650 7  -8874432.51324        26.000           3.625
  20491933.774   -12700911.877 6  -9668424.59221        14.500           1.000
  18047979.883   -32163039.323 8 -24785953.83323        28.000           2.750
 91  7 27  2 59 44.9920000  0  4G 3G17G21G23
  20341127.430    -1184878.849 6   -805322.43821        13.500           0.563
  18697464.664   -11463322.819 7  -8873553.68224        25.750           3.656
  20479377.820   -12766928.847 6  -9719866.33321        14.750           0.938
  18042920.578   -32189640.604 8 -24806682.09623        28.500           2.719
 91  7 27  2 59 59.9920000  0  4G 3G17G21G23
  20346726.875    -1155454.954 6   -782394.79021        13.750           0.563
  18697689.289   -11462135.802 7  -8872628.74624        25.250           3.719
  20466820.633   -12832892.804 6  -9771266.75721        15.000           0.969
  18037876.000   -32216141.182 8 -24827331.88823        28.500           2.688
 91  7 27  3  0 14.9920000  0  4G 3G17G21G23
  20352343.375    -1125944.781 6   -759399.89621        13.500           0.531
  18697929.219   -11460884.850 7  -8871653.98624        25.500           3.531
  20454280.938   -12898799.140 6  -9822622.30021        15.250           1.063
  18032852.625   -32242536.565 8 -24847899.70823        28.250           2.719
 91  7 27  3  0 29.9920000  0  4G 3G17G21G23
  20357975.133    -1096353.510 6   -736341.81821        14.250           0.656
  18698178.024   -11459575.177 7  -8870633.46824        25.000           3.563
  20441749.063   -12964652.489 6  -9873936.55021        15.000           0.969
  18027849.414   -32268831.769 8 -24868389.46723        28.500           2.719
 91  7 27  3  0 44.9920000  0  4G 3G17G21G23
  20363620.383    -1066677.143 6   -713217.42721        13.750           0.469
  18698440.914   -11458202.582 7  -8869563.92724        25.500           3.531
  20429233.789   -13030448.572 6  -9925206.17321        15.750           0.906
  18022864.813   -32295022.772 8 -24888798.03523        28.250           2.719
 91  7 27  3  0 59.9920000  0  4G 3G17G21G23
  20369280.703    -1036911.889 6   -690023.78021        13.500           0.438
  18698712.578   -11456762.637 7  -8868441.89124        24.750           3.563
  20416715.899   -13096183.003 6  -9976427.75421        14.500           0.969
  18017903.930   -32321105.498 8 -24909122.22623        29.250           2.750
 91  7 27  3  1 14.9920000  0  4G 3G17G21G23
  20374966.195    -1007067.164 6   -666768.18921        13.500           0.563
  18698997.289   -11455264.912 7  -8867274.84824        24.750           3.500
  20404220.805   -13161865.069 6 -10027608.53121        15.000           1.000
  18012958.125   -32347089.416 8 -24929369.42423        29.000           2.750
 91  7 27  3  1 29.9920000  0  4G 3G17G21G23
  20380663.094     -977134.154 6   -643443.82621        13.250           0.500
  18699298.703   -11453700.418 7  -8866055.76424        26.250           3.531
  20391734.344   -13227485.391 6 -10078741.20221        14.250           0.906
  18008035.399   -32372965.236 8 -24949532.39323        28.750           2.750
 91  7 27  3  1 44.9920000  0  4G 3G17G21G23
  20386374.274     -947115.261 6   -620052.53621        13.750           0.594
  18699606.656   -11452071.275 7  -8864786.31824        25.500           3.500
  20379253.188   -13293046.339 6 -10129827.59721        14.500           0.938
  18003132.016   -32398735.657 8 -24969613.23323        28.750           2.688
 91  7 27  3  1 59.9920000  0  4G 3G17G21G23
  20392100.500     -917015.756 6   -596598.43321        13.250           0.563
  18699928.149   -11450382.398 7  -8863470.31623        25.750           3.406
  20366787.617   -13358552.546 6 -10180871.34721        14.750           0.969
  17998245.508   -32424405.246 8 -24989615.50123        28.500           2.563
 91  7 27  3  2 14.9920000  0  4G 3G17G21G23
  20397843.680     -886829.711 6   -573076.87621        13.250           0.438
  18700260.641   -11448627.627 7  -8862102.96623        25.500           3.281
  20354335.188   -13423997.731 6 -10231867.55421        14.750           1.063
  17993381.070   -32449968.233 8 -25009534.70623        28.500           2.719
 91  7 27  3  2 29.9920000  0  4G 3G17G21G23
  20403607.180     -856560.422 6   -549490.46021        13.250           0.469
  18700607.758   -11446810.134 7  -8860686.75323        26.250           3.313
  20341893.047   -13489384.754 6 -10282818.42721        14.750           0.969
  17988536.703   -32475427.577 8 -25029373.15023        28.250           2.656
 91  7 27  3  2 44.9920000  0  4G 3G17G21G23
  20409382.039     -826210.471 6   -525841.20921        13.250           0.594
  18700964.445   -11444932.353 7  -8859223.54723        25.500           3.344
  20329463.172   -13554716.018 6 -10333725.84821        15.250           1.000
  17983709.844   -32500785.944 8 -25049132.90623        28.500           2.531
 91  7 27  3  2 59.9920000  0  4G 3G17G21G23
  20415170.609     -795780.150 6   -502129.31221        13.000           0.594
  18701333.039   -11442994.217 7  -8857713.32623        25.250           3.188
  20317042.875   -13619991.357 6 -10384589.70721        15.250           1.000
  17978904.906   -32526043.323 8 -25068813.97523        28.500           2.594
 91  7 27  3  3 14.9920000  0  4G 3G17G21G23
  20420976.211     -765265.620 6   -478351.80821        12.500           0.531
  18701715.992   -11440991.825 7  -8856153.02723        26.000           3.125
  20304634.344   -13685206.585 6 -10435406.72221        15.250           0.969
  17974119.938   -32551195.890 8 -25088413.37223        28.750           2.563
 91  7 27  3  3 29.9920000  0  4G 3G17G21G23
  20426801.086     -734668.131 6   -454509.67221        13.250           0.531
  18702106.992   -11438925.893 7  -8854543.22223        25.750           3.188
  20292231.383   -13750362.309 6 -10486177.35221        15.000           1.094
  17969350.164   -32576244.311 8 -25107931.61323        28.250           2.688
 91  7 27  3  3 44.9920000  0  4G 3G17G21G23
  20432637.992     -703985.937 6   -430601.51421        12.500           0.563
  18702513.805   -11436794.764 7  -8852882.60623        25.750           3.063
  20279844.992   -13815456.695 6 -10536900.20721        15.250           1.188
  17964603.047   -32601187.022 8 -25127367.49023        28.000           2.594
 91  7 27  3  3 59.9920000  0  4G 3G17G21G23
  20438495.047     -673223.379 6   -406630.74621        12.750           0.531
  18702931.672   -11434602.685 7  -8851174.49923        25.750           3.188
  20267463.266   -13880493.746 6 -10587578.37321        14.250           1.031
  17959877.383   -32626028.181 8 -25146724.23023        28.500           2.594
 91  7 27  3  4 14.9920000  0  4G 3G17G21G23
  20444357.789     -642376.026 6   -382593.90621        12.000           0.438
  18703360.875   -11432344.739 7  -8849415.07323        25.500           3.188
  20255104.508   -13945468.552 6 -10638208.05021        15.250           1.031
  17955169.938   -32650763.110 8 -25165998.19423        28.500           2.594
 91  7 27  3  4 29.9920000  0  4G 3G17G21G23
  20450241.430     -611451.109 5   -358496.62921        11.750           0.500
  18703802.758   -11430027.973 7  -8847609.81523        25.500           3.281
  20242752.672   -14010387.828 6 -10688794.44621        15.250           0.938
  17950482.047   -32675398.994 8 -25185194.98423        28.500           2.594
 91  7 27  3  4 44.9920000  0  4G 3G17G21G23
  20456143.422     -580446.959 5   -334337.59721        11.750           0.344
  18704255.531   -11427650.478 7  -8845757.22723        26.000           3.219
  20230407.414   -14075249.595 6 -10739336.02921        15.500           1.031
  17945812.117   -32699933.899 8 -25204313.08623        28.750           2.531
 91  7 27  3  4 59.9920000  0  4G 3G17G21G23
  20462062.149     -549361.254 6   -310115.02721        12.250           0.375
  18704717.836   -11425209.539 7  -8843855.20823        25.500           3.313
  20218075.766   -14140051.237 6 -10789830.76421        15.750           1.125
  17941165.070   -32724365.383 8 -25223350.60423        28.750           2.531
 91  7 27  3  5 14.9920000  0  4G 3G17G21G23
  20467990.430     -518194.388 5   -285829.19621        11.500           0.375
  18705196.977   -11422705.733 7  -8841904.20023        25.750           3.313
  20205755.024   -14204792.888 6 -10840278.75821        15.250           1.063
  17936535.336   -32748693.781 8 -25242307.79123        28.500           2.500
 91  7 27  3  5 29.9920000  0  4G 3G17G21G23
  20473941.867     -486942.938 6   -261477.47821        12.500           0.469
  18705685.805   -11420135.296 7  -8839901.26223        25.500           3.406
  20193446.664   -14269470.608 6 -10890676.92721        15.500           1.063
  17931925.828   -32772915.399 8 -25261181.77722        28.250           2.406
 91  7 27  3  5 44.9920000  0  4G 3G17G21G23
  20479898.219     -455611.270 5   -237063.23821        11.500           0.500
  18706183.969   -11417502.078 7  -8837849.41623        24.750           3.375
  20181149.164   -14334088.379 6 -10941028.38921        15.000           1.000
  17927337.094   -32797034.279 8 -25279975.70423        28.750           2.500
 91  7 27  3  5 59.9920000  0  4G 3G17G21G23
  20485880.266     -424201.006 6   -212587.74621        12.250           0.375
  18706697.149   -11414807.803 7  -8835749.98724        25.750           3.500
  20168861.055   -14398647.556 6 -10991334.19121        14.750           1.031
  17922764.938   -32821052.083 8 -25298690.87723        28.250           2.500
 91  7 27  3  6 14.9910000  0  4G 3G17G21G23
  20491871.581     -392708.995 5   -188048.57221        11.250           0.469
  18707224.417   -11412047.057 7  -8833598.76123        25.750           3.469
  20156594.042   -14463138.122 6 -11041586.52421        15.250           1.063
  17918216.339   -32844961.973 8 -25317321.95322        28.500           2.406
 91  7 27  3  6 29.9910000  0  4G 3G17G21G23
  20497879.089     -361135.533 6   -163445.94621        12.250           0.531
  18707760.409   -11409223.560 7  -8831398.64623        25.750           3.375
  20144331.730   -14527572.836 6 -11091795.33621        15.500           1.125
  17913683.269   -32868771.190 8 -25335874.58822        28.250           2.344
 91  7 27  3  6 44.9910000  0  4G 3G17G21G23
  20503903.917     -329482.091 5   -138780.96521        11.500           0.438
  18708311.026   -11406336.811 7  -8829149.23123        25.500           3.406
  20132082.605   -14591946.322 6 -11141956.44521        15.750           1.031
  17909174.550   -32892477.481 8 -25354347.01722        28.500           2.313
 91  7 27  3  6 59.9910000  0  4G 3G17G21G23
  20509938.620     -297747.212 5   -114052.56421        11.750           0.375
  18708871.066   -11403385.169 7  -8826849.25824        25.500           3.500
  20119846.675   -14656256.841 6 -11192068.48821        16.000           1.063
  17904681.784   -32916079.225 8 -25372737.98622        28.500           2.406
 91  7 27  3  7 14.9910000  0  4G 3G17G21G23
  20515996.050     -265933.526 5    -89262.71321        11.750           0.375
  18709446.441   -11400370.909 7  -8824500.49124        25.750           3.531
  20107618.628   -14720506.451 6 -11242133.06221        15.750           1.094
  17900211.112   -32939578.821 8 -25391049.35722        28.500           2.438
 91  7 27  3  7 29.9910000  0  4G 3G17G21G23
  20522065.964     -234039.458 6    -64410.25421        12.250           0.563
  18710032.878   -11397292.171 7  -8822101.48024        25.500           3.531
  20095406.972   -14784693.222 6 -11292148.67321        16.250           1.188
  17895758.198   -32962974.375 8 -25409279.65722        28.500           2.469
 91  7 27  3  7 44.9910000  0  4G 3G17G21G23
  20528148.167     -202066.121 6    -39496.01621        12.000           0.344
  18710627.308   -11394149.987 7  -8819653.03123        24.750           3.469
  20083202.948   -14848818.052 6 -11342116.01121        16.250           1.156
  17891327.214   -32986267.050 8 -25427429.79022        29.000           2.344
 91  7 27  3  7 59.9910000  0  4G 3G17G21G23
  20534249.159     -170006.252 6    -14514.34721        12.250           0.375
  18711240.511   -11390936.948 7  -8817149.37524        25.500           3.500
  20071015.401   -14912873.214 6 -11392029.06521        16.250           1.250
  17886913.300   -33009449.427 8 -25445493.97522        28.250           2.406
 91  7 27  3  8 14.9910000  0  4G 3G17G21G23
  20540367.089     -137876.819 5     10521.51121        11.750           0.375
  18711863.245   -11387669.654 7  -8814603.43724        25.750           3.594
  20058834.417   -14976875.296 6 -11441900.75921        16.250           1.250
  17882521.448   -33032538.372 8 -25463485.36022        28.500           2.313
 91  7 27  3  8 29.9910000  0  4G 3G17G21G23
  20546492.355     -105668.081 6     35619.17821        12.000           0.344
  18712497.909   -11384337.915 7  -8812007.28424        26.000           3.531
  20046665.886   -15040814.109 6 -11491723.15121        15.750           1.156
  17878146.011   -33055523.816 8 -25481396.09122        28.500           2.313
 91  7 27  3  8 44.9910000  0  4G 3G17G21G23
  20552637.628      -73381.070 6     60777.83721        12.250           0.406
  18713142.370   -11380942.847 7  -8809361.78023        25.250           3.438
  20034515.745   -15104690.496 6 -11541496.89821        16.500           1.156
  17873791.855   -33078406.974 8 -25499227.11822        28.750           2.313
 91  7 27  3  8 59.9910000  0  4G 3G17G21G23
  20558797.433      -41012.501 5     86000.03821        11.500           0.406
  18713799.855   -11377480.907 7  -8806664.17523        25.250           3.469
  20022369.253   -15168500.591 6 -11591218.99021        16.500           1.313
  17869458.753   -33101184.097 8 -25516975.52422        28.500           2.250
 91  7 27  3  9 14.9910000  0  4G 3G17G21G23
  20564969.683       -8572.349 6    111278.01821        12.250           0.375
  18714469.573   -11373961.681 7  -8803921.92223        25.000           3.406
  20010235.136   -15232254.141 6 -11640897.02121        16.000           1.156
  17865139.534   -33123865.040 8 -25534648.98322        28.500           2.250
 91  7 27  3  9 29.9910000  0  4G 3G17G21G23
  20571162.581       23949.191 6    136619.43121        12.000           0.406
  18715153.683   -11370375.412 7  -8801127.43823        25.750           3.438
  19998123.261   -15295940.955 6 -11690523.04121        16.500           1.188
  17860845.378   -33146439.891 8 -25552239.77522        28.500           2.313
 91  7 27  3  9 44.9910000  0  4G 3G17G21G23
  20577363.792       56549.949 5    162022.56621        11.500           0.375
  18715847.691   -11366723.572 7  -8798281.84824        25.250           3.625
  19986010.612   -15359562.666 6 -11740098.33721        16.500           1.219
  17856569.362   -33168910.407 8 -25569749.26522        28.500           2.281
 91  7 27  3  9 59.9910000  0  4G 3G17G21G23
  20583584.222       89225.552 5    187484.00921        11.750           0.406
  18716555.933   -11363010.491 7  -8795388.55324        25.250           3.625
  19973911.511   -15423123.347 6 -11789626.08521        16.250           1.188
  17852313.550   -33191281.159 8 -25587181.01722        28.750           2.250
 91  7 27  3 10 14.9910000  0  4G 3G17G21G23
  20589814.237      121977.491 5    213004.95521        10.750           0.406
  18717273.198   -11359234.455 7  -8792446.19524        25.750           3.563
  19961831.261   -15486621.234 6 -11839104.90521        16.500           1.063
  17848074.855   -33213550.367 8 -25604533.64422        28.500           2.188
 91  7 27  3 10 29.9910000  0  4G 3G17G21G23
  20596058.089      154806.245 5    238585.72921        10.000           0.313
  18718005.511   -11355394.960 7  -8789454.38424        26.000           3.563
  19949763.511   -15550055.416 6 -11888534.07821        16.500           1.219
  17843857.542   -33235717.398 8 -25621806.65222        28.500           2.188
 91  7 27  3 10 44.9910000  0  4G 3G17G21G23
  20602325.316      187713.254 5    264227.48421        10.750           0.406
  18718745.519   -11351490.279 7  -8786411.78224        25.250           3.625
  19937700.472   -15613424.003 6 -11937912.14121        16.250           1.188
  17839659.566   -33257780.640 8 -25638998.78822        28.750           2.344
 91  7 27  3 10 59.9910000  0  4G 3G17G21G23
  20608601.776      220701.085 5    289932.22921        10.500           0.250
  18719502.136   -11347517.426 7  -8783316.05924        25.500           3.625
  19925646.956   -15676724.066 6 -11987236.81121        15.750           1.188
  17835481.237   -33279737.208 8 -25656107.79522        28.750           2.250
 91  7 27  3 11 14.9910000  0  4G 3G17G21G23
  20614895.456      253763.885 5    315695.37121        11.500           0.375
  18720271.269   -11343482.168 7  -8780171.70624        26.000           3.531
  19913618.948   -15739961.228 6 -12036512.46721        15.750           1.188
  17831322.714   -33301593.127 8 -25673138.37922        28.750           2.188
 91  7 27  3 11 29.9910000  0  4G 3G17G21G23
  20621199.230      286905.101 5    341519.63821        11.500           0.313
  18721049.284   -11339380.653 7  -8776975.72224        25.250           3.531
  19901597.487   -15803131.358 6 -12085735.89221        16.000           1.188
  17827183.276   -33323344.540 8 -25690087.52822        28.750           2.188
 91  7 27  3 11 44.9910000  0  4G 3G17G21G23
  20627525.433      320123.911 5    367404.38421        11.250           0.281
  18721843.011   -11335213.580 7  -8773728.65724        25.500           3.531
  19889590.378   -15866235.152 6 -12134907.62121        16.000           1.406
  17823060.792   -33344992.096 8 -25706955.74722        28.250           2.250
 91  7 27  3 11 59.9910000  0  4G 3G17G21G23
  20633856.659      353418.021 5    393347.78621        11.000           0.344
  18722649.245   -11330982.714 7  -8770431.88624        25.500           3.531
  19877591.698   -15929274.420 6 -12184029.07021        16.250           1.156
  17818962.761   -33366538.090 8 -25723744.82722        28.500           2.250
 91  7 27  3 12 14.9910000  0  4G 3G17G21G23
  20640205.417      386787.834 5    419350.18121        11.500           0.313
  18723466.230   -11326687.853 7  -8767085.24924        25.250           3.563
  19865618.401   -15992248.406 6 -12233099.66521        17.500           1.219
  17814883.972   -33387981.958 8 -25740454.32922        28.500           2.188
 91  7 27  3 12 29.9910000  0  4G 3G17G21G23
  20646571.066      420235.924 5    445413.57021        10.250           0.375
  18724295.128   -11322326.079 7  -8763686.47724        25.250           3.500
  19853637.714   -16055154.169 6 -12282117.08621        16.000           1.188
  17810821.042   -33409320.827 8 -25757082.01522        28.500           2.313
 91  7 27  3 12 44.9910000  0  4G 3G17G21G23
  20652956.269      453761.367 5    471537.23221        11.000           0.344
  18725138.753   -11317897.966 7  -8760235.99923        24.750           3.438
  19841689.237   -16117992.327 6 -12331081.84621        17.750           1.219
  17806780.597   -33430555.685 8 -25773628.65122        28.000           2.219
 91  7 27  3 12 59.9910000  0  4G 3G17G21G23
  20659340.839      487362.188 5    497719.62321        10.500           0.313
  18725994.198   -11313405.222 7  -8756735.16423        24.750           3.438
  19829740.862   -16180764.398 6 -12379995.08821        17.500           1.156
  17802759.472   -33451688.038 8 -25790095.41622        28.250           2.344
 91  7 27  3 13 14.9910000  0  4G 3G17G21G23
  20665754.995      521038.526 5    523960.87621        10.750           0.375
  18726859.534   -11308847.383 7  -8753183.60823        24.500           3.375
  19817807.597   -16243469.726 6 -12428856.34121        17.000           1.250
  17798755.698   -33472717.764 8 -25806482.21222        28.500           2.094
 91  7 27  3 13 29.9910000  0  4G 3G17G21G23
  20672178.948      554794.143 6    550263.87821        12.000           0.281
  18727739.761   -11304220.753 7  -8749578.45123        24.000           3.438
  19805892.105   -16306104.168 6 -12477662.34321        17.750           1.219
  17794776.347   -33493640.860 8 -25822785.91422        28.750           2.156
 91  7 27  3 13 44.9910000  0  4G 3G17G21G23
  20678614.136      588623.963 5    576624.72121        11.000           0.313
  18728634.878   -11299530.032 7  -8745923.35923        25.250           3.344
  19793981.870   -16368672.461 6 -12526416.82021        17.000           1.281
  17790813.495   -33514462.355 8 -25839010.45222        28.500           2.281
 91  7 27  3 13 59.9910000  0  4G 3G17G21G23
  20685069.003      622529.496 5    603044.54921        11.000           0.281
  18729538.206   -11294773.405 7  -8742216.89623        24.250           3.281
  19782084.925   -16431172.784 6 -12575118.31721        17.000           1.281
  17786871.534   -33535180.429 8 -25855154.39922        29.250           2.250
 91  7 27  3 14 14.9910000  0  4G 3G17G21G23
  20691534.386      656509.733 5    629522.57521        11.750           0.438
  18730458.495   -11289951.709 7  -8738459.74223        25.000           3.219
  19770208.378   -16493605.876 6 -12623767.43221        17.500           1.313
  17782948.901   -33555796.071 8 -25871218.53322        28.500           2.281
 91  7 27  3 14 29.9910000  0  4G 3G17G21G23
  20698014.659      690565.641 5    656059.60821        10.750           0.344
  18731386.019   -11285063.858 7  -8734651.04123        25.500           3.156
  19758336.847   -16555970.205 6 -12672362.97321        16.750           1.313
  17779045.042   -33576308.167 8 -25887201.97522        28.250           2.250
 91  7 27  3 14 44.9910000  0  4G 3G17G21G23
  20704509.730      724695.518 5    682654.24021        10.250           0.438
  18732329.214   -11280111.155 7  -8730791.79023        25.000           3.219
  19746484.448   -16618267.143 6 -12720905.99321        17.000           1.375
  17775162.323   -33596718.289 8 -25903105.96322        28.500           2.219
 91  7 27  3 14 59.9910000  0  4G 3G17G21G23
  20711017.776      758899.104 5    709306.32021        10.750           0.281
  18733285.823   -11275093.204 7  -8726881.71523        25.000           3.250
  19734641.058   -16680496.506 6 -12769396.34921        17.250           1.313
  17771296.761   -33617026.308 8 -25918930.38822        28.250           2.250
 91  7 27  3 15 14.9910000  0  4G 3G17G21G23
  20717539.050      793178.080 5    736017.15421         9.500           0.344
  18734251.487   -11270008.243 7  -8722919.42023        24.750           3.156
  19722814.370   -16742656.267 6 -12817832.49021        17.500           1.281
  17767451.511   -33637230.544 8 -25934673.94122        28.500           2.344
 91  7 27  3 15 29.9910000  0  4G 3G17G21G23
  20724074.347      827531.841 5    762786.23721         9.500           0.281
  18735234.472   -11264857.130 7  -8718905.57523        25.500           3.000
  19710997.339   -16804746.737 6 -12866214.62721        18.000           1.406
  17763625.581   -33657331.538 8 -25950337.04822        28.000           2.375
 91  7 27  3 15 44.9910000  0  4G 3G17G21G23
  20730635.120      861960.850 5    789613.98521        10.500           0.250
  18736224.901   -11259638.791 7  -8714839.33923        24.500           3.094
  19699192.581   -16866766.904 6 -12914541.99121        17.250           1.406
  17759821.917   -33677328.444 8 -25965919.04922        28.250           2.344
 91  7 27  3 15 59.9910000  0  4G 3G17G21G23
  20737197.620      896462.457 5    816498.32021        10.250           0.313
  18737230.667   -11254355.736 7  -8710722.68323        24.500           3.188
  19687407.917   -16928718.996 6 -12962816.30521        17.500           1.250
  17756035.394   -33697223.826 8 -25981421.93522        28.250           2.281
 91  7 27  3 16 14.9910000  0  4G 3G17G21G23
  20743775.034      931038.296 5    843440.42321        10.500           0.313
  18738248.714   -11249006.121 7  -8706554.16123        25.000           3.188
  19675631.753   -16990601.265 6 -13011036.21421        17.500           1.375
  17752268.706   -33717015.924 8 -25996844.34222        28.000           2.344
 91  7 27  3 16 29.9910000  0  4G 3G17G21G23
  20750369.214      965685.339 5    870438.06421        11.000           0.344
  18739278.831   -11243592.386 7  -8702335.67723        24.750           3.188
  19663871.409   -17052416.104 6 -13059203.57921        17.250           1.469
  17748521.800   -33736707.493 8 -26012188.42222        28.000           2.375
 91  7 27  3 16 44.9910000  0  4G 3G17G21G23
  20756973.620     1000405.538 5    897492.70721        10.500           0.375
  18740320.901   -11238112.546 7  -8698065.68023        24.250           2.938
  19652121.050   -17114161.366 6 -13107316.71721        17.500           1.469
  17744796.886   -33756296.603 8 -26027452.65322        28.250           2.250
 91  7 27  3 16 59.9910000  0  4G 3G17G21G23
  20763597.011     1035200.212 5    924605.34521        11.000           0.438
  18741378.120   -11232565.304 7  -8693743.16323        24.000           3.000
  19640381.245   -17175835.367 6 -13155374.33821        17.250           1.469
  17741087.691   -33775781.830 8 -26042635.94622        28.250           2.219
 91  7 27  3 17 14.9910000  0  4G 3G17G21G23
  20770233.269     1070065.788 5    951773.25821        10.250           0.344
  18742444.519   -11226953.692 7  -8689370.48923        24.500           3.094
  19628661.292   -17237441.131 6 -13203378.79021        17.750           1.469
  17737397.175   -33795166.422 8 -26057740.81822        28.250           2.406
 91  7 27  3 17 29.9910000  0  4G 3G17G21G23
  20776882.026     1105002.390 5    978996.53621        10.250           0.250
  18743526.659   -11221277.346 7  -8684947.36023        24.500           3.031
  19616951.589   -17298978.153 6 -13251329.67421        17.750           1.375
  17733728.894   -33814450.054 8 -26072767.01822        28.000           2.281
 91  7 27  3 17 44.9910000  0  4G 3G17G21G23
  20783541.183     1140018.085 5   1006281.41021         9.750           0.375
  18744622.120   -11215528.136 7  -8680467.47323        24.500           2.969
  19605253.261   -17360438.147 6 -13299220.53621        17.750           1.406
  17730079.659   -33833624.685 8 -26087708.28722        28.250           2.344
 91  7 27  3 17 59.9910000  0  4G 3G17G21G23
  20790220.714     1175100.011 5   1033617.87821         9.750           0.313
  18745725.347   -11209718.333 7  -8675940.36523        24.750           3.031
  19593566.308   -17421833.460 6 -13347061.00121        17.000           1.406
  17726451.441   -33852702.796 8 -26102574.34722        28.750           2.375
 91  7 27  3 18 14.9910000  0  4G 3G17G21G23
  20796912.487     1210253.865 5   1061010.41021        11.000           0.188
  18746842.941   -11203842.255 7  -8671361.61023        24.000           3.094
  19581902.292   -17483158.024 6 -13394846.33721        18.500           1.406
  17722837.362   -33871678.641 7 -26117360.70923        27.500           2.500
 91  7 27  3 18 29.9910000  0  4G 3G17G21G23
  20803608.847     1245479.523 5   1088458.95321        10.250           0.250
  18747974.558   -11197899.735 7  -8666731.08723        24.500           3.063
  19570242.573   -17544411.725 6 -13442576.45521        18.000           1.438
  17719244.769   -33890552.233 7 -26132067.39922        27.500           2.469
 91  7 27  3 18 44.9910000  0  4G 3G17G21G23
  20810329.347     1280774.573 5   1115961.53621         9.750           0.250
  18749118.644   -11191892.968 7  -8662050.49423        24.750           2.844
  19558600.628   -17605596.504 6 -13490252.86821        18.250           1.469
  17715675.941   -33909325.850 8 -26146696.18822        28.000           2.438
 91  7 27  3 18 59.9910000  0  4G 3G17G21G23
  20817060.300     1316138.569 5   1143517.79721        10.500           0.219
  18750272.503   -11185822.048 7  -8657319.90723        24.500           2.938
  19546971.628   -17666712.353 6 -13537875.56222        18.250           1.563
  17712120.566   -33927999.786 7 -26161247.30222        27.500           2.469
 91  7 27  3 19 14.9910000  0  4G 3G17G21G23
  20823800.019     1351574.200 5   1171129.95021        10.250           0.219
  18751442.066   -11179683.851 7  -8652536.91023        24.750           2.875
  19535362.159   -17727756.146 6 -13585442.11321        19.250           1.438
  17708585.362   -33946570.967 7 -26175718.34922        27.000           2.469
 91  7 27  3 19 29.9910000  0  4G 3G17G21G23
  20830562.136     1387079.386 5   1198796.28821        10.500           0.188
  18752622.667   -11173480.525 7  -8647703.15223        25.000           2.875
  19523755.191   -17788729.828 6 -13632954.02121        18.500           1.375
  17705070.534   -33965041.455 7 -26190110.93022        26.750           2.469
 91  7 27  3 19 44.9910000  0  4G 3G17G21G23
  20837326.370     1422653.078 5   1226515.95321        11.000           0.188
  18753812.253   -11167212.640 7  -8642819.09523        23.500           2.844
  19512164.581   -17849633.841 6 -13680411.65521        18.750           1.469
  17701574.144   -33983412.249 7 -26204425.83023        27.250           2.531
 91  7 27  3 19 59.9910000  0  4G 3G17G21G23
  20844109.862     1458293.049 5   1254287.32121        10.250           0.219
  18755018.987   -11160882.257 7  -8637886.33723        25.250           2.906
  19500587.042   -17910470.056 6 -13727816.45121        18.500           1.438
  17698098.300   -34001685.337 7 -26218664.59822        27.000           2.469
 91  7 27  3 20 14.9910000  0  4G 3G17G21G23
  20850908.534     1494000.994 5   1282111.59721        10.250           0.250
  18756235.691   -11154487.513 7  -8632903.43023        24.750           2.844
  19489020.917   -17971236.200 6 -13775166.65322        18.500           1.563
  17694640.925   -34019858.701 7 -26232825.65622        27.500           2.469
 91  7 27  3 20 29.9910000  0  4G 3G17G21G23
  20857715.362     1529779.714 5   1309991.04621         9.500           0.375
  18757463.909   -11148025.378 7  -8627868.01423        24.750           2.875
  19477476.136   -18031929.370 6 -13822459.99322        19.000           1.625
  17691202.042   -34037929.664 7 -26246906.92123        27.250           2.500
 91  7 27  3 20 44.9910000  0  4G 3G17G21G23
  20864538.151     1565625.100 5   1337922.43521         9.000           0.188
  18758706.237   -11141499.506 7  -8622782.92623        25.000           2.906
  19465934.941   -18092553.095 6 -13869699.20722        18.750           1.563
  17687782.331   -34055901.868 7 -26260911.23522        27.250           2.469
 91  7 27  3 20 59.9910000  0  4G 3G17G21G23
  20871369.316     1601534.970 5   1365904.10421         9.500           0.250
  18759962.034   -11134912.092 7  -8617649.88423        25.250           2.906
  19454414.589   -18153109.322 6 -13916885.84321        19.000           1.469
  17684377.956   -34073777.575 7 -26274840.35323        26.750           2.594
 91  7 27  3 21 14.9910000  0  4G 3G17G21G23
  20878213.839     1637518.436 5   1393943.12221         9.000           0.250
  18761227.105   -11128253.674 7  -8612461.52623        25.250           2.781
  19442905.026   -18213588.614 6 -13964012.51322        19.000           1.531
  17680998.691   -34091547.524 7 -26288687.05723        26.750           2.656
 91  7 27  3 21 29.9910000  0  4G 3G17G21G23
  20885074.589     1673572.227 5   1422036.91821         8.500           0.250
  18762507.784   -11121527.074 7  -8607220.01723        25.750           2.906
  19431412.706   -18273993.682 6 -14011081.35622        19.000           1.500
  17677635.120   -34109214.604 7 -26302453.61423        26.500           2.500
 91  7 27  3 21 44.9910000  0  4G 3G17G21G23
  20891947.628     1709691.222 5   1450181.51221         9.500           0.281
  18763799.386   -11114737.312 7  -8601929.29623        24.750           2.844
  19419928.987   -18334329.293 6 -14058096.08022        18.750           1.531
  17674292.011   -34126783.965 7 -26316144.01923        26.750           2.500
 91  7 27  3 21 59.9910000  0  4G 3G17G21G23
  20898833.651     1745879.441 5   1478380.06121         9.750           0.219
  18765105.495   -11107880.008 7  -8596585.96123        25.000           2.844
  19408462.175   -18394591.144 6 -14105053.31421        18.750           1.469
  17670971.683   -34144251.301 7 -26329754.93123        27.250           2.594
 91  7 27  3 22 14.9910000  0  4G 3G17G21G23
  20905736.511     1782133.250 5   1506629.71721         9.750           0.250
  18766422.316   -11100958.599 7  -8591192.67123        25.250           3.031
  19397009.011   -18454782.523 6 -14151955.64522        19.000           1.625
  17667664.878   -34161620.319 7 -26343289.22823        26.500           2.563
 91  7 27  3 22 29.9910000  0  4G 3G17G21G23
  20912649.425     1818454.686 5   1534932.08021         8.250           0.344
  18767751.659   -11093971.030 7  -8585747.81123        25.000           2.844
  19385568.042   -18514900.857 6 -14198801.05022        19.250           1.594
  17664378.214   -34178888.484 7 -26356744.93823        26.500           2.500
 91  7 27  3 22 44.9910000  0  5G 3G17G21G11G23
  20919577.745     1854848.157 5   1563290.52221         9.500           0.250
  18769095.933   -11086912.399 7  -8580247.57923        25.000           2.844
  19374139.081   -18574941.473 6 -14245585.90122        18.750           1.563
  21979684.386      -77014.916 5                         8.750
  17661113.651   -34196051.557 7 -26370118.76322        26.500           2.469
 91  7 27  3 22 59.9910000  0  5G 3G17G21G11G23
  20926510.956     1891307.372 5   1591700.24221         9.000           0.125
  18770451.542   -11079788.333 7  -8574696.37023        25.500           2.938
  19362730.167   -18634910.049 6 -14292314.61622        19.500           1.656
  21965028.159     -154017.595 5                         8.750
  17657865.761   -34213115.338 7 -26383415.21123        26.000           2.531
 91  7 27  3 23 14.9910000  0  5G 3G17G21G11G23
  20933466.081     1927830.823 5   1620160.02221         8.750           0.250
  18771817.034   -11072600.664 7  -8569095.59123        25.000           2.969
  19351334.292   -18694807.972 7 -14338988.27122        20.000           1.563
  21950380.706     -231010.136 5                         8.750
  17654635.386   -34230081.531 7 -26396635.62323        26.250           2.594
 91  7 27  3 23 29.9910000  0  5G 3G17G21G11G23
  20940417.620     1964416.225 5   1648668.06021         7.500           0.219
  18773194.487   -11065351.277 7  -8563446.72923        24.250           2.969
  19339947.472   -18754637.073 6 -14385608.31422        19.250           1.531
  21935725.370     -307994.207 5                         8.000
  17651423.816   -34246952.130 7 -26409781.54323        26.500           2.531
 91  7 27  3 23 44.9910000  0  5G 3G17G21G11G23
  20947404.386     2001074.435 5   1677232.84921         9.500           0.156
  18774592.355   -11058028.972 7  -8557741.04723        24.750           3.125
  19328580.261   -18814385.927 7 -14432165.81022        20.000           1.688
  21921084.581     -384958.020 5                         8.250
  17648234.136   -34263715.913 7 -26422844.22823        26.000           2.594
 91  7 27  3 23 59.9910000  0  5G 3G17G21G11G23
  20954388.753     2037801.978 5   1705851.62221         9.250           0.281
  18775999.401   -11050637.085 7  -8551981.15423        24.500           3.031
  19317224.792   -18874058.029 6 -14478663.50922        19.000           1.656
  21906439.308     -461904.752 5        -0.11731         8.250           0.156
  17645067.706   -34280376.429 7 -26435826.45023        26.750           2.688
 91  7 27  3 24 14.9910000  0  5G 3G17G21G11G23
  20961391.526     2074594.550 5   1734521.09521         9.250           0.156
  18777416.722   -11043179.472 7  -8546170.03323        24.250           3.000
  19305879.534   -18933657.014 6 -14525104.23222        19.000           1.563
  21891803.566     -538837.860 5    -59947.98021         8.500           0.219
  17641913.347   -34296937.614 7 -26448731.26923        26.500           2.656
 91  7 27  3 24 29.9900000  0  5G 3G17G21G11G23
  20968403.881     2111452.927 5   1763241.85421        10.000           0.281
  18778849.592   -11035653.375 7  -8540305.54423        24.250           2.969
  19294555.928   -18993175.363 6 -14571482.12622        19.000           1.594
  21877163.561     -615748.585 5   -119878.36921         8.500           0.281
  17638784.006   -34313395.193 7 -26461555.35423        26.750           2.563
 91  7 27  3 24 44.9900000  0  5G 3G17G21G11G23
  20975426.686     2148379.991 5   1792016.07421        10.250           0.219
  18780292.232   -11028059.242 7  -8534388.04923        23.250           3.031
  19283238.272   -19052622.539 6 -14617804.54922        18.500           1.594
  21862529.412     -692648.509 5   -179800.32921         8.250           0.125
  17635669.342   -34329753.095 7 -26474301.76823        27.000           2.688
 91  7 27  3 24 59.9900000  0  5G 3G17G21G11G23
  20982471.795     2185371.141 5   1820840.34121         9.750           0.281
  18781749.592   -11020399.675 7  -8528419.56523        23.500           3.000
  19271940.857   -19111996.453 6 -14664069.88522        19.250           1.688
  21847903.592     -769534.131 5   -239711.17721         9.000           0.156
  17632574.678   -34346012.410 7 -26486971.36623        26.500           2.688
 91  7 27  3 25 14.9900000  0  5G 3G17G21G11G23
  20989518.068     2222425.395 5   1849713.67921         9.500           0.313
  18783221.131   -11012675.391 7  -8522400.65623        23.750           2.938
  19260659.045   -19171297.470 6 -14710278.43022        19.500           1.563
  21833272.537     -846405.579 5   -299611.47921         9.000           0.188
  17629501.357   -34362173.721 7 -26499564.58823        26.750           2.594
 91  7 27  3 25 29.9900000  0  5G 3G17G21G11G23
  20996584.670     2259543.968 5   1878637.20521         8.750           0.156
  18784702.186   -11004884.870 7  -8516330.12523        23.250           3.000
  19249389.006   -19230524.054 6 -14756428.97222        19.750           1.563
  21818650.787     -923261.169 5   -359498.92921         8.500           0.281
  17626445.709   -34378235.701 7 -26512080.41923        27.000           2.719
 91  7 27  3 25 44.9900000  0  5G 3G17G21G11G23
  21003655.662     2296725.865 5   1907610.02221         8.250           0.313
  18786198.850   -10997028.895 7  -8510208.60023        23.500           2.750
  19238133.615   -19289676.870 7 -14802522.03322        20.000           1.563
  21804027.404    -1000101.382 5   -419374.33921         8.500           0.188
  17623405.482   -34394199.271 7 -26524519.56623        26.750           2.656
 91  7 27  3 25 59.9900000  0  5G 3G17G21G11G23
  21010742.826     2333967.389 5   1936629.32121         8.500           0.156
  18787705.842   -10989111.026 7  -8504038.84523        23.750           2.938
  19226885.943   -19348759.299 6 -14848560.24822        19.500           1.594
  21789405.631    -1076929.316 5   -479240.25021         8.750           0.250
  17620385.186   -34410068.013 7 -26536884.81323        26.750           2.594
 91  7 27  3 26 14.9900000  0  5G 3G17G21G11G23
  21017847.529     2371275.800 5   1965700.74421         9.250           0.188
  18789221.061   -10981123.364 7  -8497814.70323        23.000           2.750
  19215659.357   -19407763.636 6 -14894537.61222        19.500           1.531
  21774788.162    -1153737.017 5   -539090.36121         8.500           0.375
  17617384.678   -34425834.171 7 -26549170.12723        27.000           2.625
 91  7 27  3 26 29.9900000  0  5G 3G17G21G11G23
  21024957.272     2408649.569 5   1994823.10121         9.250           0.219
  18790758.045   -10973067.598 7  -8491537.48723        24.000           2.938
  19204445.326   -19466691.226 6 -14940455.17422        19.000           1.500
  21760172.748    -1230525.648 5   -598925.62421         9.000           0.219
  17614404.631   -34441499.596 7 -26561376.95023        26.750           2.656
 91  7 27  3 26 44.9900000  0  5G 3G17G21G11G23
  21032084.857     2446086.076 5   2023994.32921         9.500           0.188
  18792302.904   -10964945.818 7  -8485208.84323        23.500           2.750
  19193246.326   -19525544.100 6 -14986314.51522        19.000           1.625
  21745572.514    -1307297.000 5   -658747.41221         9.000           0.188
  17611442.506   -34457066.361 7 -26573506.89923        27.250           2.656
 91  7 27  3 26 59.9900000  0  5G 3G17G21G11G23
  21039208.654     2483584.562 5   2053213.84721         8.000           0.281
  18793862.045   -10956758.547 7  -8478829.16023        23.500           2.844
  19182061.623   -19584322.610 6 -15032115.90822        19.250           1.594
  21730964.897    -1384051.125 5   -718555.78721         9.250           0.250
  17608499.115   -34472535.250 7 -26585560.57523        27.250           2.688
 91  7 27  3 27 14.9900000  0  5G 3G17G21G11G23
  21046357.506     2521146.245 5   2082482.60021         7.500           0.219
  18795432.670   -10948504.397 7  -8472397.37623        24.250           2.719
  19170890.068   -19643025.234 6 -15077858.17422        19.000           1.594
  21716360.490    -1460786.299 5   -778349.40221         8.750           0.313
  17605573.318   -34487904.912 7 -26597536.93823        26.750           2.563
 91  7 27  3 27 29.9900000  0  5G 3G17G21G11G23
  21053529.014     2558771.060 5   2111800.59121         7.750           0.313
  18797016.928   -10940183.152 7  -8465913.29823        24.250           2.656
  19159736.803   -19701651.642 6 -15123541.05522        19.500           1.594
  21701750.951    -1537501.966 5   -838127.80521         8.250           0.281
  17602668.553   -34503175.292 7 -26609435.93123        27.250           2.594
 91  7 27  3 27 44.9900000  0  5G 3G17G21G11G23
  21060693.631     2596461.714 5   2141169.88221         8.000           0.219
  18798614.365   -10931791.634 7  -8459374.46423        24.000           2.625
  19148595.607   -19760198.739 6 -15169162.13722        19.500           1.625
  21687164.342    -1614194.756 5   -897888.38121         8.750           0.219
  17599782.397   -34518343.383 7 -26621255.22523        27.250           2.688
 91  7 27  3 27 59.9900000  0  5G 3G17G21G11G23
  21067880.436     2634215.149 4   2170588.03321         6.750           0.344
  18800224.975   -10923332.772 7  -8452783.14623        24.500           2.625
  19137470.576   -19818669.257 6 -15214723.54222        19.750           1.656
  21672579.092    -1690867.265 5   -957633.16121         8.750           0.281
  17596913.928   -34533412.189 7 -26632997.14823        26.750           2.656
 91  7 27  3 28 14.9900000  0  5G 3G17G21G11G23
  21075076.764     2672031.485 4   2200055.21321         6.500           0.250
  18801847.334   -10914806.377 7  -8446139.22423        24.250           2.688
  19126353.959   -19877062.742 6 -15260224.91322        19.000           1.594
  21657989.217    -1767518.831 5  -1017361.62521         8.500           0.281
  17594066.287   -34548381.484 7 -26644661.53823        27.750           2.594
 91  7 27  3 28 29.9900000  0  5G 3G17G21G11G23
  21082286.701     2709907.511 5   2229568.92121         7.750           0.250
  18803480.662   -10906215.105 7  -8439444.73823        23.750           2.656
  19115261.045   -19935381.732 7 -15305668.25222        20.000           1.750
  21643412.014    -1844151.654 5  -1077075.46521         9.000           0.438
  17591234.576   -34563253.999 7 -26656250.50423        26.750           2.688
 91  7 27  3 28 44.9900000  0  5G 3G17G21G11G23
  21089503.951     2747847.925 5   2259132.78421         7.500           0.188
  18805128.553   -10897554.148 7  -8432695.94723        23.750           2.625
  19104176.334   -19993621.387 7 -15351049.75722        20.250           1.563
  21628830.084    -1920760.643 5  -1136771.25221         9.250           0.375
  17588424.186   -34578024.977 7 -26667760.35623        26.750           2.750
 91  7 27  3 28 59.9900000  0  5G 3G17G21G11G23
  21096738.693     2785852.366 5   2288746.56121         7.750           0.125
  18806789.904   -10888823.708 7  -8425893.02923        23.750           2.500
  19093107.506   -20051781.586 7 -15396369.35622        20.000           1.750
  21614254.795    -1997345.482 5  -1196447.73521         8.500           0.500
  17585633.897   -34592694.812 7 -26679191.39723        27.250           2.844
 91  7 27  3 29 14.9900000  0  5G 3G17G21G11G23
  21103977.350     2823916.980 4   2318407.28221         7.000           0.188
  18808462.037   -10880027.262 7  -8419038.66023        23.000           2.656
  19082057.701   -20109865.807 7 -15441629.75422        20.750           1.719
  21599688.373    -2073909.461 5  -1256107.91721         8.500           0.281
  17582860.600   -34607267.225 7 -26690546.52223        27.250           2.688
 91  7 27  3 29 29.9900000  0  5G 3G17G21G11G23
  21111228.178     2862041.652 4   2348114.71821         6.750           0.188
  18810148.467   -10871164.442 7  -8412132.58623        22.750           2.625
  19071016.693   -20167873.704 7 -15486830.67722        20.000           1.750
  21585118.998    -2150451.999 5  -1315751.41421         9.000           0.375
  17580107.553   -34621742.063 7 -26701825.61923        27.500           2.750
 91  7 27  3 29 44.9900000  0  5G 3G17G21G11G23
  21118503.029     2900224.947 4   2377867.85021         7.250           0.094
  18811850.397   -10862236.692 7  -8405175.91423        23.250           2.500
  19059989.982   -20225806.415 7 -15531973.02522        20.000           1.750
  21570561.998    -2226974.050 5  -1375378.96521         9.750           0.375
  17577369.654   -34636120.638 7 -26713029.70123        27.000           2.719
 91  7 27  3 29 59.9900000  0  5G 3G17G21G11G23
  21125777.272     2938465.229 4   2407665.37821         7.000           0.125
  18813559.248   -10853245.522 7  -8398169.81623        23.750           2.500
  19048981.975   -20283665.311 7 -15577057.84022        20.000           1.844
  21555996.889    -2303476.689 5  -1434991.87221         8.250           0.375
  17574650.397   -34650404.337 7 -26724159.85523        27.000           2.688
 91  7 27  3 30 14.9900000  0  5G 3G17G21G11G23
  21133066.701     2976764.040 4   2437508.55521         7.000           0.156
  18815284.256   -10844188.750 7  -8391112.59822        23.750           2.438
  19037986.967   -20341448.229 6 -15622083.45522        19.750           1.844
  21541449.373    -2379957.445 5  -1494587.22821         9.750           0.406
  17571951.428   -34664591.318 7 -26735214.64523        27.250           2.625
 91  7 27  3 30 29.9900000  0  5G 3G17G21G11G23
  21140364.318     3015123.215 4   2467398.74321         7.250           0.125
  18817020.232   -10835064.381 7  -8384002.71822        24.000           2.438
  19027002.686   -20399153.112 6 -15667048.26122        19.750           1.719
  21526896.256    -2456414.142 5  -1554163.84221         9.500           0.500
  17569270.756   -34678679.880 7 -26746192.74323        27.250           2.688
 91  7 27  3 30 44.9900000  0  5G 3G17G21G11G23
  21147680.209     3053543.733 5   2497336.71921         7.750           0.031
  18818768.670   -10825871.199 7  -8376839.20723        23.250           2.531
  19016040.193   -20456778.466 7 -15711951.09922        20.250           1.781
  21512356.662    -2532844.945 5  -1613720.27821        10.000           0.344
  17566608.928   -34692668.697 7 -26757093.12323        27.000           2.656
 91  7 27  3 30 59.9900000  0  5G 3G17G21G11G23
  21155001.693     3092024.586 5   2527321.73521         8.250           0.188
  18820528.514   -10816609.980 7  -8369622.69523        22.500           2.531
  19005090.725   -20514324.830 7 -15756792.38822        20.250           1.781
  21497812.412    -2609250.209 5  -1673256.82721         9.750           0.344
  17563966.631   -34706558.689 7 -26767916.49423        27.250           2.656
 91  7 27  3 31 14.9900000  0  5G 3G17G21G11G23
  21162333.670     3130563.877 5   2557352.29521         8.250           0.219
  18822306.537   -10807282.460 7  -8362354.49922        23.000           2.469
  18994153.936   -20571794.006 7 -15801573.53322        20.750           1.813
  21483284.842    -2685631.448 5  -1732774.65021        10.250           0.406
  17561341.443   -34720351.860 7 -26778664.41423        26.500           2.625
 91  7 27  3 31 29.9900000  0  5G 3G17G21G11G23
  21169681.647     3169164.010 5   2587430.23521         8.000           0.188
  18824094.803   -10797885.765 7  -8355032.41222        23.000           2.344
  18983230.053   -20629183.139 6 -15846292.30222        19.750           1.844
  21468746.889    -2761985.590 5  -1792271.33621         9.750           0.375
  17558736.061   -34734045.385 7 -26789334.69423        27.000           2.844
 91  7 27  3 31 44.9900000  0  5G 3G17G21G11G23
  21177033.772     3207820.010 5   2617551.73721         7.500           0.156
  18825896.357   -10788424.574 7  -8347660.05922        23.250           2.313
  18972324.982   -20686496.702 7 -15890952.19022        20.250           1.844
  21454221.756    -2838316.727 5  -1851750.09721        10.000           0.344
  17556147.381   -34747643.973 7 -26799930.99923        26.750           2.688
 91  7 27  3 31 59.9900000  0  5G 3G17G21G11G23
  21184402.193     3246537.023 5   2647720.71921         7.500           0.156
  18827708.498   -10778893.666 7  -8340233.39722        23.000           2.375
  18961432.545   -20743729.236 7 -15935548.94222        20.500           1.875
  21439704.576    -2914619.376 5  -1911206.68221        10.500           0.500
  17553578.334   -34761142.531 7 -26810449.34723        26.500           2.750
 91  7 27  3 32 14.9900000  0  5G 3G17G21G11G23
  21191786.357     3285311.836 5   2677934.82721         8.000           0.188
  18829536.826   -10769295.899 7  -8332754.62122        23.250           2.344
  18950557.545   -20800883.586 7 -15980084.76822        20.750           1.875
  21425186.506    -2990896.114 5  -1970643.04321        10.000           0.406
  17551027.576   -34774543.791 7 -26820891.88923        26.250           2.719
 91  7 27  3 32 29.9900000  0  5G 3G17G21G11G23
  21199175.686     3324142.195 5   2708192.18521         8.000           0.188
  18831372.732   -10759633.122 7  -8325225.19822        22.750           2.375
  18939698.248   -20857961.591 7 -16024561.11322        20.750           1.875
  21410687.865    -3067148.356 5  -2030060.35921        10.750           0.375
  17548496.154   -34787849.944 7 -26831260.31623        26.750           2.750
 91  7 27  3 32 44.9900000  0  5G 3G17G21G11G23
  21206578.365     3363029.414 5   2738493.82521         7.750           0.094
  18833223.842   -10749903.983 7  -8317644.05822        22.500           2.281
  18928850.068   -20914961.628 7 -16068976.68922        20.500           1.938
  21396172.123    -3143374.347 5  -2089457.19121        10.250           0.469
  17545984.068   -34801059.751 7 -26841553.67323        27.250           2.781
 91  7 27  3 32 59.9900000  0  5G 3G17G21G11G23
  21213985.107     3401969.057 5   2768836.32721         7.750           0.188
  18835088.326   -10740112.542 7  -8310014.38222        23.000           2.250
  18918012.131   -20971887.604 6 -16113334.56222        19.750           1.906
  21381673.303    -3219577.704 5  -2148836.39621        10.000           0.438
  17543486.459   -34814177.429 7 -26851775.23823        26.750           2.781
 91  7 27  3 33 14.9900000  0  5G 3G17G21G11G23
  21221402.709     3440966.897 4   2799224.14721         7.000           0.125
  18836961.826   -10730252.967 7  -8302331.59822        22.000           2.313
  18907196.373   -21028733.437 7 -16157629.98622        20.000           1.969
  21367177.022    -3295752.092 5  -2208193.00921        10.000           0.375
  17541009.334   -34827196.946 7 -26861920.31423        27.750           2.719
 91  7 27  3 33 29.9900000  0  5G 3G17G21G11G23
  21228839.068     3480022.235 4   2829656.87821         6.750           0.188
  18838854.436   -10720325.505 7  -8294595.92522        22.750           2.250
  18896394.873   -21085499.437 7 -16201863.21222        20.250           1.938
  21352685.092    -3371897.620 5  -2267527.14821        10.250           0.406
  17538551.170   -34840118.992 7 -26871989.43923        27.500           2.750
 91  7 27  3 33 44.9900000  0  5G 3G17G21G11G23
  21236282.342     3519131.772 4   2860131.70221         6.500           0.125
  18840756.584   -10710332.947 7  -8286809.52222        22.500           2.406
  18885607.201   -21142188.476 7 -16246036.44522        20.250           2.031
  21338203.357    -3448016.805 5  -2326840.75521        10.500           0.406
  17536112.639   -34852946.504 7 -26881984.90323        27.750           2.875
 91  7 27  3 33 59.9900000  0  4G17G21G11G23
  18842668.397   -10700274.230 7  -8278971.57022        22.250           2.219
  18874832.889   -21198799.380 7 -16290148.81422        20.250           1.906
  21323721.381    -3524108.150 5  -2386132.67721        10.000           0.375
  17533687.842   -34865678.431 7 -26891905.88923        27.500           2.688
 91  7 27  3 34 14.9900000  0  4G17G21G11G23
  18844596.717   -10690146.848 7  -8271080.11022        22.500           2.438
  18864079.865   -21255329.554 7 -16334198.26122        20.500           2.094
  21309247.272    -3600168.954 5  -2445400.78021        10.500           0.438
  17531282.506   -34878312.589 7 -26901750.68323        27.250           2.719
 91  7 27  3 34 29.9900000  0  4G17G21G11G23
  18846533.732   -10679954.252 7  -8263137.85622        22.750           2.219
  18853335.951   -21311782.021 7 -16378187.17122        20.750           1.938
  21294778.482    -3676201.947 5  -2504647.21121        10.750           0.438
  17528897.873   -34890852.245 7 -26911521.84123        27.000           2.813
 91  7 27  3 34 44.9900000  0  4G17G21G11G23
  18848490.139   -10669696.221 7  -8255144.58122        23.250           2.375
  18842610.850   -21368156.474 7 -16422115.27922        21.000           2.031
  21280317.662    -3752206.557 5  -2563871.54021        10.750           0.344
  17526526.022   -34903297.332 7 -26921219.31123        26.250           2.813
 91  7 27  3 34 59.9900000  0  4G17G21G11G23
  18850454.326   -10659371.425 7  -8247099.29322        22.500           2.250
  18831900.889   -21424451.580 7 -16465981.56322        21.500           2.063
  21265859.107    -3828181.133 5  -2623072.48121        11.250           0.438
  17524177.584   -34915646.720 7 -26930842.20123        26.250           2.719
 91  7 27  3 35 14.9900000  0  4G17G21G11G23
  18852430.701   -10648980.192 7  -8239002.24122        23.250           2.469
  18821196.553   -21480667.188 7 -16509785.89822        20.500           2.000
  21251406.936    -3904125.358 5  -2682249.76221        11.000           0.375
  17521844.436   -34927900.382 7 -26940390.51023        26.250           2.781
 91  7 27  3 35 29.9900000  0  4G17G21G11G23
  18854422.498   -10638521.836 7  -8230852.88322        23.250           2.375
  18810515.607   -21536802.983 7 -16553528.04422        20.500           2.031
  21236958.264    -3980038.624 5  -2741402.91921        10.750           0.500
  17519532.834   -34940058.113 7 -26949864.06723        26.750           2.813
 91  7 27  3 35 44.9900000  0  4G17G21G11G23
  18856424.795   -10627995.841 7  -8222650.81222        22.500           2.188
  18799848.537   -21592858.256 7 -16597207.44622        20.250           2.063
  21222521.740    -4055919.993 5  -2800531.21221        11.250           0.313
  17517236.701   -34952119.713 7 -26959262.71823        27.000           2.906
 91  7 27  3 35 59.9900000  0  4G17G21G11G23
  18858441.045   -10617402.772 7  -8214396.48322        22.500           2.281
  18789199.686   -21648833.554 7 -16640824.52522        21.000           2.031
  21208086.217    -4131769.703 5  -2859634.82021        11.000           0.438
  17514958.607   -34964085.746 7 -26968586.89723        26.250           2.750
 91  7 27  3 36 14.9900000  0  4G17G21G11G23
  18860465.897   -10606744.068 7  -8206091.00422        21.500           2.375
  18778563.522   -21704730.131 7 -16684380.27522        21.000           2.063
  21193660.928    -4207588.763 5  -2918714.57721        11.000           0.375
  17512701.272   -34975957.834 7 -26977837.87223        26.500           2.875
 91  7 27  3 36 29.9900000  0  4G17G21G11G23
  18862509.318   -10596021.779 7  -8197735.97822        23.000           2.469
  18767938.568   -21760549.845 7 -16727876.11922        21.000           1.969
  21179235.498    -4283378.718 5  -2977771.64221        10.250           0.406
  17510458.045   -34987737.866 7 -26987017.11523        26.250           2.781
 91  7 27  3 36 44.9900000  0  4G17G21G11G23
  18864561.381   -10585234.180 7  -8189330.06122        22.750           2.406
  18757331.022   -21816290.828 7 -16771310.62422        20.500           2.031
  21164821.100    -4359137.517 5  -3036804.41221        11.250           0.469
  17508236.420   -34999424.314 7 -26996123.43823        26.500           2.906
 91  7 27  3 36 59.9900000  0  4G17G21G11G23
  18866626.412   -10574381.730 7  -8180873.62522        21.750           2.313
  18746739.397   -21871953.386 7 -16814684.01222        21.000           2.125
  21150410.803    -4434865.079 5  -3095812.85621        10.750           0.594
  17506030.014   -35011017.715 7 -27005157.25723        26.500           2.906
 91  7 27  3 37 14.9900000  0  4G17G21G11G23
  18868703.990   -10563464.603 7  -8172366.77322        22.250           2.313
  18736160.443   -21927537.571 7 -16857996.33122        20.750           2.031
  21136005.857    -4510561.312 5  -3154796.88821        10.750           0.469
  17503842.076   -35022518.291 7 -27014118.73823        26.500           2.906
 91  7 27  3 37 29.9900000  0  4G17G21G11G23
  18870793.654   -10552482.513 7  -8163809.31222        22.250           2.375
  18725600.568   -21983043.050 7 -16901247.31822        21.250           2.125
  21121605.717    -4586225.451 5  -3213755.89921        10.500           0.375
  17501669.436   -35033926.053 7 -27023007.90223        26.250           2.875
 91  7 27  3 37 44.9900000  0  4G17G21G11G23
  18872897.076   -10541435.922 7  -8155201.58222        22.250           2.313
  18715047.686   -22038470.119 7 -16944437.21322        20.250           2.094
  21107218.662    -4661857.460 5  -3272689.90221        10.750           0.469
  17499516.709   -35045241.466 7 -27031825.10323        26.500           2.906
 91  7 27  3 37 59.9900000  0  4G17G21G11G23
  18875008.154   -10530321.237 7  -8146540.79922        21.750           2.219
  18704521.967   -22093815.052 7 -16987563.10122        21.250           2.188
  21092832.553    -4737453.573 5  -3331595.90721        11.000           0.500
  17497380.850   -35056460.971 7 -27040567.57123        26.000           2.938
 91  7 27  3 38 14.9900000  0  4G17G21G11G23
  18877139.522   -10519143.243 7  -8137830.68222        23.250           2.281
  18694001.186   -22149082.730 7 -17030628.79222        20.250           2.250
  21078453.498    -4813018.235 5  -3390477.40621        10.250           0.531
  17495265.076   -35067589.537 7 -27049239.18023        26.500           2.875
 91  7 27  3 38 29.9900000  0  4G17G21G11G23
  18879276.725   -10507900.330 7  -8129069.97322        22.000           2.281
  18683502.186   -22204271.315 7 -17073632.84722        20.750           2.156
  21064082.537    -4888549.368 5  -3449332.77121        11.500           0.438
  17493164.600   -35078625.611 7 -27057838.72223        26.500           2.844
 91  7 27  3 38 44.9900000  0  4G17G21G11G23
  18881429.201   -10496593.182 7  -8120259.22722        22.250           2.250
  18673012.811   -22259381.469 7 -17116575.79522        20.750           2.250
  21049714.748    -4964047.438 5  -3508162.39321        11.000           0.563
  17491080.826   -35089570.244 7 -27066367.00023        26.250           2.813
 91  7 27  3 38 59.9900000  0  4G17G21G11G23
  18883593.147   -10485223.564 7  -8111399.79322        22.250           2.281
  18662543.936   -22314414.593 7 -17159458.71022        21.250           2.188
  21035346.529    -5039513.746 5  -3566967.24421        10.750           0.438
  17489013.147   -35100425.132 7 -27074825.36323        26.000           2.875
 91  7 27  3 39 14.9900000  0  4G17G21G11G23
  18885766.092   -10473788.109 7  -8102489.05622        22.250           2.188
  18652084.451   -22369367.626 7 -17202279.22822        21.000           2.094
  21020996.107    -5114944.776 5  -3625744.64621        11.250           0.469
  17486967.350   -35111187.372 7 -27083211.51923        26.500           2.875
 91  7 27  3 39 29.9900000  0  4G17G21G11G23
  18887957.201   -10462289.715 7  -8093529.27122        22.000           2.219
  18641641.662   -22424243.130 7 -17245039.32822        20.750           2.031
  21006649.709    -5190342.729 5  -3684496.23021        11.250           0.406
  17484935.420   -35121859.563 7 -27091527.51423        26.000           2.875
 91  7 27  3 39 44.9900000  0  4G17G21G11G23
  18890157.732   -10450730.441 7  -8084522.06522        22.500           2.156
  18631210.459   -22479042.817 7 -17287740.34922        20.250           2.125
  20992308.053    -5265709.156 5  -3743223.27921        11.500           0.375
  17482923.272   -35132443.900 7 -27099775.04823        26.500           2.938
 91  7 27  3 39 59.9900000  0  4G17G21G11G23
  18892366.272   -10439105.889 7  -8075463.97622        21.500           2.188
  18620805.076   -22533762.455 7 -17330379.00122        21.500           2.156
  20977972.178    -5341039.456 5  -3801922.16821        11.250           0.500
  17480926.373   -35142936.285 7 -27107950.93623        26.250           2.969
 91  7 27  3 40 14.9900000  0  4G17G21G11G23
  18894592.928   -10427418.260 7  -8066356.74422        22.250           2.281
  18610401.967   -22588404.041 7 -17372956.82922        21.000           2.094
  20963643.709    -5416335.296 5  -3860594.21521        11.500           0.375
  17478944.693   -35153338.777 7 -27116056.77323        25.750           2.906
 91  7 27  3 40 29.9900000  0  4G17G21G11G23
  18896829.084   -10415666.233 7  -8057199.33322        22.000           2.156
  18600019.740   -22642966.241 7 -17415472.79322        21.250           2.094
  20949315.584    -5491594.995 5  -3919238.09621        10.750           0.469
  17476985.076   -35163650.311 7 -27124091.73723        26.000           2.906
 91  7 27  3 40 44.9900000  0  4G17G21G11G23
  18899075.311   -10403849.456 7  -8047991.46122        21.500           2.281
  18589651.975   -22697448.619 7 -17457926.56122        21.500           2.094
  20935004.318    -5566818.014 5  -3977853.40321        11.250           0.531
  17475037.912   -35173870.711 7 -27132055.68023        25.500           2.938
 91  7 27  3 40 59.9900000  0  4G17G21G11G23
  18901338.553   -10391971.278 7  -8038735.74922        22.000           2.188
  18579301.482   -22751854.224 7 -17500320.51222        22.000           2.188
  20920692.147    -5642007.170 5  -4036442.30821        11.500           0.406
  17473110.147   -35184003.357 7 -27139951.25423        25.500           2.875
 91  7 27  3 41 14.9900000  0  4G17G21G11G23
  18903613.420   -10380027.642 7  -8029429.03222        23.000           2.156
  18568963.693   -22806178.976 7 -17542651.45822        21.250           2.219
  20906396.451    -5717157.921 6  -4095001.28921        12.250           0.344
  17471198.662   -35194044.185 7 -27147775.27123        25.000           2.906
 91  7 27  3 41 29.9900000  0  4G17G21G11G23
  18905893.436   -10368022.903 7  -8020074.70022        22.000           2.188
  18558638.514   -22860427.182 7 -17584922.75922        21.000           2.156
  20892103.084    -5792274.302 6  -4153533.50221        12.000           0.469
  17469307.717   -35203997.639 7 -27155531.21623        26.000           2.938
 91  7 27  3 41 44.9900000  0  4G17G21G11G23
  18908192.514   -10355956.148 7  -8010672.03822        22.000           2.125
  18548328.170   -22914597.717 7 -17627133.53322        21.500           2.156
  20877814.889    -5867354.973 6  -4212037.86621        12.500           0.406
  17467428.787   -35213863.180 7 -27163218.65123        25.500           2.906
 91  7 27  3 41 59.9900000  0  4G17G21G11G23
  18910499.772   -10343825.969 7  -8001219.96522        21.750           2.031
  18538037.662   -22968689.287 7 -17669282.77822        21.500           2.094
  20863535.678    -5942398.329 6  -4270513.18521        12.500           0.438
  17465570.318   -35223639.590 7 -27170836.63823        26.000           2.750
 91  7 27  3 42 14.9900000  0  4G17G21G11G23
  18912823.365   -10331633.655 7  -7991719.46222        22.250           2.063
  18527758.506   -23022702.711 7 -17711371.13122        22.000           2.188
  20849264.568    -6017405.017 6  -4328959.90521        12.250           0.563
  17463722.912   -35233327.923 7 -27178385.98523        25.250           2.938
 91  7 27  3 42 29.9900000  0  4G17G21G11G23
  18915148.787   -10319382.605 7  -7982173.21422        21.500           2.188
  18517491.576   -23076641.541 7 -17753401.35722        21.500           2.125
  20834996.693    -6092378.131 6  -4387380.45921        12.500           0.500
  17461898.482   -35242931.765 7 -27185869.50023        25.750           2.906
 91  7 27  3 42 44.9890000  0  4G17G21G11G23
  18917494.767   -10307068.902 7  -7972578.12122        22.000           2.000
  18507246.407   -23130497.180 7 -17795366.76522        21.750           2.031
  20820738.618    -6167307.480 6  -4445766.91621        13.000           0.531
  17460087.915   -35252445.776 7 -27193283.01823        25.500           2.781
 91  7 27  3 42 59.9890000  0  4G17G21G11G23
  18919849.704   -10294693.348 7  -7962934.84022        22.250           2.188
  18497010.610   -23184279.243 7 -17837274.83922        21.500           2.156
  20806484.892    -6242204.977 6  -4504128.57621        13.000           0.531
  17458291.282   -35261873.847 7 -27200629.56723        24.750           2.938
 91  7 27  3 43 14.9890000  0  4G17G21G11G23
  18922215.509   -10282256.545 7  -7953243.84722        21.750           2.031
  18486793.618   -23237983.972 7 -17879122.65322        22.500           2.250
  20792240.939    -6317065.238 6  -4562461.20621        13.000           0.625
  17456511.806   -35271215.449 7 -27207908.74323        24.250           2.906
 91  7 27  3 43 29.9890000  0  4G17G21G11G23
  18924595.415   -10269759.017 7  -7943505.51322        22.000           2.125
  18476589.368   -23291611.839 7 -17920910.56822        22.250           2.156
  20778000.017    -6391888.569 6  -4620765.05321        13.000           0.531
  17454753.603   -35280471.191 7 -27215121.00623        24.750           2.938
 91  7 27  3 43 44.9890000  0  4G17G21G11G23
  18926984.540   -10257200.570 7  -7933719.73222        21.750           1.906
  18466394.196   -23345162.326 7 -17962638.19422        21.500           2.125
  20763765.985    -6466674.165 6  -4679039.51721        12.750           0.594
  17453008.751   -35289640.867 7 -27222266.20923        25.250           2.844
 91  7 27  3 43 59.9890000  0  4G17G21G11G23
  18929387.064   -10244581.422 7  -7923886.63722        21.750           1.938
  18456219.189   -23398635.610 7 -18004305.66022        21.500           2.219
  20749546.376    -6541421.827 6  -4737284.39921        13.250           0.656
  17451282.603   -35298724.971 7 -27229344.73923        25.250           2.875
 91  7 27  3 44 14.9890000  0  4G17G21G11G23
  18931797.478   -10231903.110 7  -7914007.44222        22.250           1.969
  18446058.853   -23452033.134 7 -18045914.09622        21.250           2.250
  20735328.556    -6616132.722 6  -4795500.65521        12.500           0.656
  17449567.439   -35307725.010 7 -27236357.74923        25.000           2.969
 91  7 27  3 44 29.9890000  0  4G17G21G11G23
  18934220.993   -10219165.014 7  -7904081.66122        21.250           1.875
  18435912.048   -23505354.110 7 -18087462.87722        21.500           2.281
  20721120.743    -6690805.817 6  -4853687.42321        13.750           0.688
  17447869.610   -35316640.481 7 -27243304.87623        25.000           2.969
 91  7 27  3 44 44.9890000  0  4G17G21G11G23
  18936657.626   -10206363.246 7  -7894106.27622        21.250           2.000
  18425782.189   -23558594.501 7 -18128948.86222        21.500           2.281
  20706917.954    -6765436.640 6  -4911841.27021        13.250           0.719
  17446192.384   -35325467.597 7 -27250183.15223        25.500           3.000
 91  7 27  3 44 59.9890000  0  4G17G21G11G23
  18939104.798   -10193499.823 7  -7884082.84522        21.500           1.938
  18415666.392   -23611756.463 7 -18170373.73922        21.750           2.344
  20692719.024    -6840026.965 6  -4969963.55921        12.500           0.750
  17444527.274   -35334208.580 7 -27256994.30823        25.250           2.938
 91  7 27  3 45 14.9890000  0  4G17G21G11G23
  18941562.821   -10180577.319 7  -7874013.37322        21.750           2.063
  18405561.899   -23664842.241 7 -18211739.25422        21.500           2.281
  20678530.149    -6914578.965 6  -5028055.99221        12.000           0.719
  17442881.407   -35342865.968 7 -27263740.32523        25.250           2.969
 91  7 27  3 45 29.9890000  0  4G17G21G11G23
  18944034.665   -10167595.987 7  -7863898.04922        21.750           2.031
  18395476.837   -23717851.886 7 -18253045.44922        22.000           2.219
  20664353.032    -6989092.377 6  -5086118.34921        12.500           0.719
  17441248.110   -35351440.044 7 -27270421.42523        24.500           2.813
 91  7 27  3 45 44.9890000  0  4G17G21G11G23
  18946518.446   -10154556.302 7  -7853737.26922        21.750           1.938
  18385401.376   -23770785.810 7 -18294292.63422        22.000           2.313
  20650184.954    -7063567.169 6  -5144150.59821        13.000           0.688
  17439631.603   -35359931.397 7 -27277038.05923        24.500           2.813
 91  7 27  3 45 59.9890000  0  4G17G21G11G23
  18949007.548   -10141456.344 7  -7843529.52322        21.000           1.969
  18375343.728   -23823642.221 7 -18335479.41622        21.750           2.219
  20636018.243    -7138001.405 6  -5202151.26621        12.500           0.813
  17438035.978   -35368338.414 7 -27283588.98923        25.750           2.875
 91  7 27  3 46 14.9890000  0  4G17G21G11G23
  18951514.001   -10128296.232 7  -7833274.89722        22.250           2.031
  18365302.001   -23876421.132 7 -18376605.81522        21.500           2.313
  20621861.774    -7212394.693 6  -5260120.02221        13.000           0.688
  17436448.954   -35376661.540 7 -27290074.53923        24.750           2.781
 91  7 27  3 46 29.9890000  0  4G17G21G11G23
  18954031.181   -10115076.606 7  -7822973.89322        21.750           1.938
  18355268.782   -23929122.907 7 -18417672.11022        21.250           2.281
  20607719.064    -7286747.090 6  -5318056.90521        13.500           0.656
  17434881.673   -35384901.218 7 -27296495.07123        25.000           2.906
 91  7 27  3 46 44.9890000  0  4G17G21G11G23
  18956560.149   -10101799.266 7  -7812627.92822        22.500           2.031
  18345258.259   -23981749.425 7 -18458679.76022        22.000           2.281
  20593570.649    -7361060.093 6  -5375963.10621        12.750           0.719
  17433328.899   -35393059.372 7 -27302852.07323        24.500           2.938
 91  7 27  3 46 59.9890000  0  4G17G21G11G23
  18959095.142   -10088465.412 7  -7802237.92222        21.500           2.031
  18335258.681   -24034301.483 7 -18499629.39722        21.750           2.219
  20579436.290    -7435334.270 6  -5433839.06121        13.000           0.688
  17431793.001   -35401137.041 7 -27309146.36123        25.000           2.906
 91  7 27  3 47 14.9890000  0  4G17G21G11G23
  18961638.446   -10075077.744 7  -7791805.99022        21.250           2.125
  18325269.564   -24086781.809 7 -18540523.13122        21.750           2.281
  20565315.446    -7509572.152 6  -5491686.72421        13.750           0.656
  17430271.024   -35409137.426 7 -27315380.43223        24.750           2.875
 91  7 27  3 47 29.9890000  0  4G17G21G11G23
  18964200.392   -10061627.172 7  -7781325.02522        22.000           2.031
  18315297.853   -24139181.282 7 -18581353.86722        21.500           2.250
  20551192.634    -7583764.182 6  -5549498.67621        12.750           0.688
  17428764.798   -35417051.590 7 -27321547.30823        25.000           2.969
 91  7 27  3 47 44.9890000  0  4G17G21G11G23
  18966769.696   -10048123.588 7  -7770802.75622        21.500           1.938
  18305339.931   -24191509.834 7 -18622129.33722        21.750           2.250
  20537084.126    -7657919.999 6  -5607282.37421        14.250           0.656
  17427272.329   -35424889.514 7 -27327654.78223        24.750           2.938
 91  7 27  3 47 59.9890000  0  4G17G21G11G23
  18969353.954   -10034558.817 7  -7760232.81522        21.500           2.063
  18295398.892   -24243759.051 7 -18662842.98922        22.000           2.250
  20522982.314    -7732030.918 6  -5665031.11421        13.750           0.594
  17425797.743   -35432642.999 7 -27333696.46523        24.750           2.938
 91  7 27  3 48 14.9890000  0  4G17G21G11G23
  18971944.915   -10020931.852 7  -7749614.42022        21.000           1.969
  18285470.915   -24295927.508 7 -18703493.70822        22.000           2.250
  20508886.970    -7806095.200 6  -5722743.50321        14.000           0.594
  17424338.939   -35440310.820 7 -27339671.39223        25.000           2.875
 91  7 27  3 48 29.9890000  0  4G17G21G11G23
  18974549.001   -10007246.507 7  -7738950.51722        21.250           2.000
  18275559.032   -24348019.112 7 -18744084.54122        22.250           2.281
  20494797.610    -7880116.434 6  -5780422.35921        13.000           0.625
  17422891.712   -35447897.269 7 -27345582.90723        24.500           2.938
 91  7 27  3 48 44.9890000  0  4G17G21G11G23
  18977167.548    -9993501.420 7  -7728240.06022        22.000           1.969
  18265661.962   -24400032.501 7 -18784614.43222        22.000           2.156
  20480723.907    -7954092.970 6  -5838066.37621        14.250           0.563
  17421464.689   -35455401.090 7 -27351430.04323        24.000           2.844
 91  7 27  3 48 59.9890000  0  4G17G21G11G23
  18979792.439    -9979697.646 7  -7717483.88822        20.750           1.969
  18255776.814   -24451968.764 7 -18825084.22122        22.000           2.156
  20466656.103    -8028025.453 6  -5895676.08721        14.250           0.688
  17420053.712   -35462823.538 7 -27357213.76723        25.000           2.938
 91  7 27  3 49 14.9890000  0  4G17G21G11G23
  18982432.728    -9965834.567 7  -7706681.49422        22.000           2.000
  18245909.735   -24503827.105 7 -18865493.30522        21.750           2.188
  20452599.876    -8101912.835 6  -5953250.63521        14.500           0.531
  17418658.032   -35470164.034 7 -27362933.63623        25.000           2.875
 91  7 27  3 49 29.9890000  0  4G17G21G11G23
  18985078.509    -9951911.131 7  -7695832.07022        20.750           1.875
  18236056.806   -24555606.236 7 -18905840.65322        22.000           2.281
  20438542.251    -8175753.588 6  -6010788.86121        14.500           0.656
  17417275.454   -35477421.513 7 -27368588.81223        24.750           2.875
 91  7 27  3 49 44.9890000  0  4G17G21G11G23
  18987744.048    -9937928.119 7  -7684936.23122        21.750           1.844
  18226216.376   -24607306.951 7 -18946126.90122        21.750           2.250
  20424497.907    -8249548.161 6  -6068291.09521        14.000           0.563
  17415911.212   -35484597.067 7 -27374180.15623        25.000           2.875
 91  7 27  3 49 59.9890000  0  4G17G21G11G23
  18990413.860    -9923883.934 7  -7673992.71022        21.500           1.813
  18216392.626   -24658927.518 7 -18986350.69322        21.750           2.156
  20410466.728    -8323294.408 6  -6125755.68621        14.250           0.625
  17414561.103   -35491689.140 7 -27379706.44923        24.750           3.063
 91  7 27  3 50 14.9890000  0  4G17G21G11G23
  18993094.954    -9909783.013 7  -7663005.00322        20.750           1.906
  18206588.564   -24710472.418 7 -19026515.53022        22.000           2.125
  20396437.571    -8396996.496 6  -6183185.84721        13.500           0.688
  17413227.845   -35498702.304 7 -27385171.25523        25.250           3.031
 91  7 27  3 50 29.9890000  0  4G17G21G11G23
  18995793.704    -9895622.621 7  -7651970.93622        22.250           1.906
  18196790.579   -24761938.416 7 -19066618.88322        21.750           2.250
  20382426.618    -8470650.988 6  -6240578.92521        15.000           0.656
  17411907.454   -35505633.741 7 -27390572.36923        24.500           3.000
 91  7 27  3 50 44.9890000  0  4G17G21G11G23
  18998498.681    -9881398.893 7  -7640887.51822        21.250           1.813
  18187011.978   -24813321.578 7 -19106657.68522        21.750           2.438
  20368417.595    -8544253.626 6  -6297931.62121        14.250           0.688
  17410603.228   -35512479.541 7 -27395906.75523        24.500           3.000
 91  7 27  3 50 59.9890000  0  4G17G21G11G23
  19001213.267    -9867118.602 7  -7629760.03222        20.000           1.875
  18177249.212   -24864628.865 7 -19146637.36922        22.000           2.281
  20354424.423    -8617810.901 6  -6355248.95221        14.500           0.594
  17409316.720   -35519246.954 7 -27401180.06523        25.000           3.063
 91  7 27  3 51 14.9890000  0  4G17G21G11G23
  19003944.009    -9852780.333 7  -7618587.37022        20.750           1.906
  18167503.329   -24915858.692 7 -19186556.69422        22.250           2.344
  20340432.743    -8691320.984 6  -6412529.51021        14.500           0.719
  17408043.048   -35525934.649 7 -27406391.25523        24.750           2.969
 91  7 27  3 51 29.9890000  0  4G17G21G11G23
  19006683.446    -9838381.452 7  -7607367.47422        20.750           1.813
  18157768.181   -24967008.220 7 -19226413.44822        22.250           2.406
  20326453.142    -8764780.656 6  -6469770.78821        14.000           0.781
  17406787.040   -35532540.052 7 -27411538.32223        25.250           3.031
 91  7 27  3 51 44.9890000  0  4G17G21G11G23
  19009430.274    -9823922.283 6  -7596100.59322        19.750           1.781
  18148050.001   -25018077.808 7 -19266207.91322        22.750           2.344
  20312483.243    -8838189.951 6  -6526972.80721        14.250           0.719
  17405543.517   -35539063.656 7 -27416621.64723        24.750           3.094
 91  7 27  3 51 59.9890000  0  4G17G21G11G23
  19012199.157    -9809399.480 7  -7584784.13722        20.750           1.781
  18138349.876   -25069063.996 7 -19305937.39222        22.750           2.406
  20298525.618    -8911545.109 6  -6584132.65021        15.000           0.688
  17404318.603   -35545502.004 7 -27421638.54223        24.750           3.125
 91  7 27  3 52 14.9890000  0  4G17G21G11G23
  19014973.735    -9794815.403 7  -7573419.93222        20.250           1.750
  18128660.618   -25119968.973 7 -19345603.58822        22.750           2.438
  20284575.399    -8984848.111 6  -6641251.84321        14.000           0.844
  17403111.251   -35551857.556 7 -27426590.91623        25.250           3.188
 91  7 27  3 52 29.9890000  0  4G17G21G11G23
  19017761.353    -9780177.369 7  -7562013.69222        20.750           1.719
  18118984.853   -25170799.955 7 -19385212.12422        22.250           2.406
  20270635.540    -9058105.760 6  -6698335.70521        14.750           0.844
  17401915.024   -35558138.067 7 -27431484.82323        25.000           3.156
 91  7 27  3 52 44.9890000  0  4G17G21G11G23
  19020556.056    -9765478.729 6  -7550560.20722        19.750           1.719
  18109335.454   -25221550.288 7 -19424757.81622        23.000           2.406
  20256708.626    -9131311.080 6  -6755378.77821        15.250           0.875
  17400734.939   -35564336.996 7 -27436315.16023        25.000           3.250
 91  7 27  3 52 59.9890000  0  4G17G21G11G23
  19023363.579    -9750717.080 6  -7539057.64322        19.750           1.750
  18099689.626   -25272217.457 7 -19464238.71222        22.250           2.406
  20242785.212    -9204461.202 6  -6812378.85121        15.000           0.813
  17399570.728   -35570452.037 7 -27441080.12423        25.250           3.188
 91  7 27  3 53 14.9890000  0  4G17G21G11G23
  19026184.728    -9735894.290 7  -7527507.42822        20.250           1.625
  18090056.689   -25322803.198 7 -19503656.15022        21.750           2.406
  20228875.642    -9277557.388 6  -6869336.88721        14.500           0.938
  17398424.306   -35576484.860 7 -27445781.01323        25.500           3.281
 91  7 27  3 53 29.9890000  0  4G17G21G11G23
  19029018.915    -9721011.582 7  -7515910.52422        20.250           1.719
  18080450.056   -25373308.400 7 -19543010.83623        22.500           2.500
  20214973.626    -9350600.445 6  -6926253.53321        14.500           0.844
  17397291.712   -35582436.740 7 -27450418.85223        25.250           3.281
 91  7 27  3 53 44.9890000  0  4G17G21G11G23
  19031857.384    -9706069.201 6  -7504267.12822        19.250           1.719
  18070856.876   -25423733.376 7 -19582302.99922        23.000           2.375
  20201085.931    -9423590.269 6  -6983128.68121        14.750           0.781
  17396174.618   -35588308.058 7 -27454993.90423        25.500           3.281
 91  7 27  3 53 59.9890000  0  4G17G21G11G23
  19034715.415    -9691067.990 6  -7492577.88222        19.750           1.781
  18061272.970   -25474079.077 7 -19621533.39323        22.250           2.531
  20187207.376    -9496527.425 6  -7039962.79521        15.000           0.844
  17395070.876   -35594099.978 7 -27459507.08923        25.000           3.219
 91  7 27  3 54 14.9890000  0  4G17G21G11G23
  19037584.087    -9676009.709 7  -7480844.18022        20.000           1.750
  18051713.259   -25524347.028 7 -19660703.21022        23.000           2.438
  20173333.173    -9569413.225 6  -7096756.90421        14.000           0.906
  17393982.954   -35599814.434 7 -27463959.91323        25.000           3.313
 91  7 27  3 54 29.9890000  0  4G17G21G11G23
  19040459.095    -9660892.322 6  -7469064.40322        19.000           1.625
  18042158.423   -25574535.084 7 -19699810.77223        22.750           2.563
  20159473.985    -9642245.010 6  -7153508.91021        14.750           0.875
  17392913.548   -35605449.408 7 -27468350.80823        25.750           3.281
 91  7 27  3 54 44.9890000  0  4G17G21G11G23
  19043346.118    -9645710.507 6  -7457234.43622        19.000           1.656
  18032624.860   -25624638.029 7 -19738852.00723        22.750           2.563
  20145629.868    -9715017.258 6  -7210214.52921        15.500           0.875
  17391856.673   -35610999.801 7 -27472675.79023        25.750           3.250
 91  7 27  3 54 59.9890000  0  4G17G21G11G23
  19046248.978    -9630467.247 6  -7445356.57422        19.500           1.688
  18023107.048   -25674658.638 7 -19777829.08323        23.250           2.625
  20131792.431    -9787732.535 6  -7266875.75821        15.750           1.094
  17390816.032   -35616468.762 7 -27476937.32023        25.250           3.281
 91  7 27  3 55 14.9890000  0  4G17G21G11G23
  19049158.524    -9615164.750 6  -7433432.57622        19.000           1.781
  18013601.470   -25724598.787 7 -19816743.46923        23.250           2.531
  20117963.915    -9860392.313 6  -7323493.72521        15.000           0.813
  17389787.071   -35621858.062 7 -27481136.77823        25.000           3.219
 91  7 27  3 55 29.9890000  0  4G17G21G11G23
  19052085.782    -9599802.920 6  -7421462.32822        19.500           1.719
  18004114.274   -25774458.367 7 -19855595.07223        22.750           2.531
  20104152.892    -9932996.170 6  -7380068.13221        16.250           0.875
  17388780.673   -35627168.089 7 -27485274.46223        25.500           3.344
 91  7 27  3 55 44.9890000  0  4G17G21G11G23
  19055019.556    -9584381.561 6  -7409445.69222        19.750           1.625
  17994645.235   -25824237.135 7 -19894383.70423        23.500           2.531
  20090345.649   -10005543.607 6  -7436598.55421        16.250           0.875
  17387786.228   -35632398.638 7 -27489350.21423        25.000           3.281
 91  7 27  3 55 59.9890000  0  4G17G21G11G23
  19057964.501    -9568898.328 6  -7397380.85722        19.000           1.656
  17985189.876   -25873932.619 7 -19933107.44223        23.750           2.500
  20076547.923   -10078031.612 6  -7493082.69321        15.500           0.906
  17386804.696   -35637547.490 7 -27493362.31123        25.250           3.344
